[[{"header":{"parameterUnit":"m.s-1","parameterCategory":1,"la1":31.0,"la2":29.5877,"lo1":-88.7671,"lo2":-86.6584,"dy":0.0162,"dx":0.0185,"nx":115,"ny":88,"refTime":"2024-08-23T12:00:00:Z","depth":0,"parameterNumber":2,"parameterNumberName":"U-component_of_WINDS"},"data":[0.0,0.0,0.0,0.0,0.0,0.0,0.0,0.0,0.0,0.0,0.0,0.0,0.0,0.0,0.0,0.0,0.0,0.0,0.0,0.0,0.0,0.0,0.0,0.0,0.0,0.0,0.0,0.0,0.0,0.0,0.0,0.0,0.0,0.0,0.0,0.0,0.0,0.0,0.0,0.0,0.0,0.0,0.0,0.0,0.0,0.0,0.0,0.0,0.0,0.0,0.0,0.0,0.0,0.0,0.0,0.0,0.0,0.0,0.0,0.0,0.0,0.0,0.0,0.0,0.0,0.0,0.0,0.0,0.0,0.0,0.0,0.0,0.0,0.0,0.0,0.0,0.0,0.0,0.0,0.0,0.0,0.0,0.0,0.0,0.0,0.0,0.0,0.0,0.0,0.0,0.0,0.0,0.0,0.0,0.0,0.0,0.0,0.0,0.0,0.0,0.0,0.0,0.0,0.0,0.0,0.0,0.0,0.0,0.0,0.0,0.0,0.0,0.0,0.0,0.0,0.0,0.0,0.0,0.0,0.0,0.0,0.0,0.0,0.0,0.0,0.0,0.0,0.0,0.0,0.0,0.0,0.0,0.0,0.0,0.0,0.0,0.0,0.0,0.0,0.0,0.0,0.0,0.0,0.0,0.0,0.0,0.0,0.0,0.0,0.0,0.0,0.0,0.0,0.0,0.0,0.0,0.0,0.0,0.0,0.0,0.0,0.0,0.0,0.0,0.0,0.0,0.0,0.0,0.0,0.0,0.0,0.0,0.0,0.0,0.0,0.0,0.0,0.0,0.0,0.0,0.0,0.0,0.0,0.0,0.0,0.0,0.0,0.0,0.0,0.0,0.0,0.0,0.0,0.0,0.0,0.0,0.0,0.0,0.0,0.0,0.0,0.0,0.0,0.0,0.0,0.0,0.0,0.0,0.0,0.0,0.0,0.0,0.0,0.0,0.0,0.0,0.0,0.0,0.0,0.0,0.0,0.0,0.0,0.0,0.0,0.0,0.0,0.0,0.0,0.0,0.0,0.0,0.0,0.0,0.0,0.0,0.0,0.0,0.0,0.0,0.0,0.0,0.0,0.0,0.0,0.0,0.0,0.0,0.0,0.0,0.0,0.0,0.0,0.0,0.0,0.0,0.0,0.0,0.0,0.0,0.0,0.0,0.0,0.0,0.0,0.0,0.0,0.0,0.0,0.0,0.0,0.0,0.0,0.0,0.0,0.0,0.0,0.0,0.0,0.0,0.0,0.0,0.0,0.0,0.0,0.0,0.0,0.0,0.0,0.0,0.0,0.0,0.0,0.0,0.0,0.0,0.0,0.0,0.0,0.0,0.0,0.0,0.0,0.0,0.0,0.0,0.0,0.0,0.0,0.0,0.0,0.0,0.0,0.0,0.0,0.0,0.0,0.0,0.0,0.0,0.0,0.0,0.0,0.0,0.0,0.0,0.0,0.0,0.0,0.0,0.0,0.0,0.0,0.0,0.0,0.0,0.0,0.0,0.0,0.0,0.0,0.0,0.0,0.0,0.0,0.0,0.0,0.0,0.0,0.0,0.0,0.0,0.0,0.0,0.0,0.0,0.0,0.0,0.0,0.0,0.0,0.0,0.0,0.0,0.0,0.0,0.0,0.0,0.0,0.0,0.0,0.0,0.0,0.0,0.0,0.0,0.0,0.0,0.0,0.0,0.0,0.0,0.0,0.0,0.0,0.0,0.0,0.0,0.0,0.0,0.0,0.0,0.0,0.0,0.0,0.0,0.0,0.0,0.0,0.0,0.0,0.0,0.0,0.0,0.0,0.0,0.0,0.0,0.0,0.0,0.0,0.0,0.0,0.0,0.0,0.0,0.0,0.0,0.0,0.0,0.0,0.0,0.0,0.0,0.0,0.0,0.0,0.0,0.0,0.0,0.0,0.0,0.0,0.0,0.0,0.0,0.0,0.0,0.0,0.0,0.0,0.0,0.0,0.0,0.0,0.0,0.0,0.0,0.0,0.0,0.0,0.0,0.0,0.0,0.0,0.0,0.0,0.0,0.0,0.0,0.0,0.0,0.0,0.0,0.0,0.0,0.0,0.0,0.0,0.0,0.0,0.0,0.0,0.0,0.0,0.0,0.0,0.0,0.0,0.0,0.0,0.0,0.0,0.0,0.0,0.0,0.0,0.0,0.0,0.0,0.0,0.0,0.0,0.0,0.0,0.0,0.0,0.0,0.0,0.0,0.0,0.0,0.0,0.0,0.0,0.0,0.0,0.0,0.0,0.0,0.0,0.0,0.0,0.0,0.0,0.0,0.0,0.0,0.0,0.0,0.0,0.0,0.0,0.0,0.0,0.0,0.0,0.0,0.0,0.0,0.0,0.0,0.0,0.0,0.0,0.0,0.0,0.0,0.0,0.0,0.0,0.0,0.0,0.0,0.0,0.0,0.0,0.0,0.0,0.0,0.0,0.0,0.0,0.0,0.0,0.0,0.0,0.0,0.0,0.0,0.0,0.0,0.0,0.0,0.0,0.0,0.0,0.0,0.0,0.0,0.0,0.0,0.0,0.0,0.0,0.0,0.0,0.0,0.0,0.0,0.0,0.0,0.0,0.0,0.0,0.0,0.0,0.0,0.0,0.0,0.0,0.0,0.0,0.0,0.0,0.0,0.0,0.0,0.0,0.0,0.0,0.0,0.0,0.0,0.0,0.0,0.0,0.0,0.0,0.0,0.0,0.0,0.0,0.0,0.0,0.0,0.0,0.0,0.0,0.0,0.0,0.0,0.0,0.0,0.0,0.0,0.0,0.0,0.0,0.0,0.0,0.0,0.0,0.0,0.0,0.0,0.0,0.0,0.0,0.0,0.0,0.0,0.0,0.0,0.0,0.0,0.0,0.0,0.0,0.0,0.0,0.0,0.0,0.0,0.0,0.0,0.0,0.0,0.0,0.0,0.0,0.0,0.0,0.0,0.0,0.0,0.0,0.0,0.0,0.0,0.0,0.0,0.0,0.0,0.0,0.0,0.0,0.0,0.0,0.0,0.0,0.0,0.0,0.0,0.0,0.0,0.0,0.0,0.0,0.0,0.0,0.0,0.0,0.0,0.0,0.0,0.0,0.0,0.0,0.0,0.0,0.0,0.0,0.0,0.0,0.0,0.0,0.0,0.0,0.0,0.0,0.0,0.0,0.0,0.0,0.0,0.0,0.0,0.0,0.0,0.0,0.0,0.0,0.0,0.0,0.0,0.0,0.0,0.0,0.0,0.0,0.0,0.0,0.0,0.0,0.0,0.0,0.0,0.0,0.0,0.0,0.0,0.0,0.0,0.0,0.0,0.0,0.0,0.0,0.0,0.0,0.0,0.0,0.0,0.0,0.0,0.0,0.0,0.0,0.0,0.0,0.0,0.0,0.0,0.0,0.0,0.0,0.0,0.0,0.0,0.0,0.0,0.0,0.0,0.0,0.0,0.0,0.0,0.0,0.0,0.0,0.0,0.0,0.0,0.0,0.0,0.0,0.0,0.0,0.0,0.0,0.0,0.0,0.0,0.0,0.0,0.0,0.0,0.0,0.0,0.0,0.0,0.0,0.0,0.0,0.0,0.0,0.0,0.0,0.0,0.0,0.0,0.0,0.0,0.0,0.0,0.0,0.0,0.0,0.0,0.0,0.0,0.0,0.0,0.0,0.0,0.0,0.0,0.0,0.0,0.0,0.0,0.0,0.0,0.0,0.0,0.0,0.0,0.0,0.0,0.0,0.0,0.0,0.0,0.0,0.0,0.0,0.0,0.0,0.0,0.0,0.0,0.0,0.0,0.0,0.0,0.0,0.0,0.0,0.0,0.0,0.0,0.0,0.0,0.0,0.0,0.0,0.0,0.0,0.0,0.0,0.0,0.0,0.0,0.0,0.0,0.0,0.0,0.0,0.0,0.0,0.0,0.0,0.0,0.0,0.0,0.0,0.0,0.0,0.0,0.0,0.0,0.0,0.0,0.0,0.0,0.0,0.0,0.0,0.0,0.0,0.0,0.0,0.0,0.0,0.0,0.0,0.0,0.0,0.0,0.0,0.0,0.0,0.0,0.0,0.0,0.0,0.0,0.0,0.0,0.0,0.0,0.0,0.0,0.0,0.0,0.0,0.0,0.0,0.0,0.0,0.0,0.0,0.0,0.0,0.0,0.0,0.0,0.0,0.0,0.0,0.0,0.0,0.0,0.0,0.0,0.0,0.0,0.0,0.0,0.0,0.0,0.0,0.0,0.0,0.0,0.0,0.0,0.0,0.0,0.0,0.0,0.0,0.0,0.0,0.0,0.5821,0.0,0.0,0.0,0.0,0.0,0.0,0.0,0.0,0.0,0.0,0.0,0.0,0.0,0.0,0.0,0.0,0.0,0.0,0.0,0.0,0.0,0.0,0.0,0.0,0.0,0.0,0.0,0.0,0.0,0.0,0.0,0.0,0.0,0.0,0.0,0.0,0.0,0.0,0.0,0.0,0.0,0.0,0.0,0.0,0.0,0.0,0.0,0.0,0.0,0.0,0.0,0.0,0.0,0.0,0.0,0.0,0.0,0.0,0.0,0.0,0.0,0.0,0.0,0.0,0.0,0.0,0.0,0.0,0.0,0.0,0.0,0.0,0.0,0.0,0.0,0.0,0.0,0.0,0.0,0.0,0.0,0.0,0.0,0.0,0.0,0.0,0.0,0.0,0.0,0.0,0.0,0.0,0.0,0.0,0.0,0.0,0.0,0.0,0.0,0.0,0.0,0.0,0.0,0.0,0.0,0.0,0.0,0.0,0.0,0.0,0.5842,0.5805,0.5833,0.5821,0.5732,0.0,0.0,0.0,0.0,0.0,0.0,0.0,0.0,0.0,0.0,0.0,0.0,0.0,0.0,0.0,0.0,0.0,0.0,0.0,0.0,0.0,0.0,0.0,0.0,0.0,0.0,0.0,0.0,0.0,0.0,0.0,0.0,0.0,0.0,0.0,0.0,0.0,0.0,0.0,0.0,0.0,0.0,0.0,0.0,0.0,0.0,0.0,0.0,0.0,0.0,0.0,0.0,0.0,0.0,0.0,0.0,0.0,0.0,0.0,0.0,0.0,0.0,0.0,0.0,0.0,0.0,0.0,0.0,0.0,0.0,0.0,0.0,0.0,0.0,0.0,0.0,0.0,0.0,0.0,0.0,0.0,0.0,0.0,0.0,0.0,0.0,0.0,0.0,0.0,0.0,0.0,0.0,0.0,0.0,0.0,0.0,0.0,0.0,0.0,0.0,0.0,0.0,0.0,0.0,0.0,0.0,0.0,0.0,0.0,0.0,0.0,0.0,0.6112,0.6039,0.5966,0.0,0.0,0.0,0.0,0.0,0.0,0.0,0.0,0.0,0.0,0.0,0.0,0.0,0.0,0.0,0.0,0.0,0.0,0.0,0.0,0.0,0.0,0.0,0.0,0.0,0.0,0.0,0.0,0.0,0.0,0.0,0.0,0.0,0.0,0.0,0.0,0.0,0.0,0.0,0.0,0.0,0.0,0.0,0.0,0.0,0.0,0.0,0.0,0.0,0.0,0.0,0.0,0.0,0.0,0.0,0.0,0.0,0.0,0.0,0.0,0.0,0.0,0.0,0.0,0.0,0.0,0.0,0.0,0.0,0.0,0.0,0.0,0.0,0.0,0.0,0.0,0.0,0.0,0.0,0.0,0.0,0.0,0.0,0.0,0.0,0.0,0.0,0.0,0.0,0.0,0.0,0.0,0.0,0.0,0.0,0.0,0.0,0.0,0.0,0.0,0.0,0.0,0.0,0.0,0.0,0.0,0.0,0.0,0.0,0.0,0.6116,0.696,0.6924,0.0,0.6805,0.0,0.0,0.0,0.0,0.0,0.0,0.0,0.0,0.0,0.0,0.0,0.0,0.0,0.0,0.0,0.0,0.0,0.0,0.0,0.0,0.0,0.0,0.0,0.0,0.0,0.0,0.0,0.0,0.0,0.0,0.0,0.0,0.0,0.0,0.0,0.0,0.0,0.0,0.0,0.0,0.0,0.0,0.0,0.0,0.0,0.0,0.0,0.0,0.0,0.0,0.0,0.0,0.0,0.0,0.0,0.0,0.0,0.0,0.0,0.0,0.0,0.0,0.0,0.0,0.0,0.0,0.0,0.0,0.0,0.0,0.0,0.0,0.0,0.0,0.0,0.0,0.0,0.0,0.0,0.0,0.0,0.0,0.0,0.0,0.0,0.0,0.0,0.0,0.0,0.0,0.0,0.0,0.0,0.0,0.0,0.0,0.0,0.0,0.0,0.0,0.0,0.0,0.0,0.0,0.0,0.0,0.0,0.0,0.0,0.0,0.6771,0.7035,0.7022,0.6766,0.0,0.0,0.0,0.0,0.0,0.0,0.0,0.0,0.0,0.0,0.0,0.0,0.0,0.0,0.0,0.0,0.0,0.0,0.0,0.0,0.0,0.0,0.0,0.0,0.0,0.0,0.0,0.0,0.0,0.0,0.0,0.0,0.0,0.0,0.0,0.0,0.0,0.0,0.0,0.0,0.0,0.0,0.0,0.0,0.0,0.0,0.0,0.0,0.0,0.0,0.0,0.0,0.0,0.0,0.0,0.0,0.0,0.0,0.0,0.0,0.0,0.0,0.0,0.0,0.0,0.0,0.0,0.0,0.0,0.0,0.0,0.0,0.0,0.0,0.0,0.0,0.0,0.0,0.0,0.0,0.0,0.0,0.0,0.0,0.0,0.0,0.0,0.0,0.0,0.0,0.0,0.0,0.0,0.0,0.0,0.0,0.0,0.0,0.0,0.0,0.0,0.0,0.0,0.0,0.0,0.0,0.0,0.0,0.0,0.0,0.7041,0.7252,0.7343,0.709,0.6667,0.6068,0.0,0.0,0.0,0.0,0.0,0.0,0.0,0.0,0.0,0.0,0.0,0.0,0.0,0.0,0.0,0.0,0.0,0.0,0.0,0.0,0.0,0.0,0.0,0.0,0.0,0.0,0.0,0.0,0.0,0.0,0.0,0.0,0.0,0.0,0.0,0.0,0.0,0.0,0.0,0.0,0.0,0.0,0.0,0.0,0.0,0.0,0.0,0.0,0.0,0.0,0.0,0.0,0.0,0.0,0.0,0.0,0.0,0.0,0.0,0.0,0.0,0.0,0.0,0.0,0.0,0.0,0.0,0.0,0.0,0.0,0.0,0.0,0.0,0.0,0.0,0.0,0.0,0.0,0.0,0.0,0.0,0.0,0.0,0.0,0.0,0.0,0.0,0.0,0.0,0.0,0.0,0.0,0.0,0.0,0.0,0.0,0.0,0.0,0.0,0.0,0.0,0.0,0.0,0.0,0.0,0.0,0.0,0.0,0.8412,0.7526,0.7404,0.8161,0.7316,0.6769,0.0,0.0,0.0,0.0,0.0,0.0,0.0,0.0,0.0,0.0,0.0,0.0,0.0,0.0,0.0,0.0,0.0,0.0,0.0,0.0,0.0,0.0,0.0,0.0,0.0,0.0,0.0,0.0,0.0,0.0,0.0,0.0,0.0,0.0,0.0,0.0,0.0,0.0,0.0,0.0,0.0,0.0,0.0,0.0,0.0,0.0,0.0,0.0,0.0,0.0,0.0,0.0,0.0,0.0,0.0,0.0,0.0,0.0,0.0,0.0,0.0,0.0,0.0,0.0,0.0,0.0,0.0,0.0,0.0,0.0,0.0,0.0,0.0,0.0,0.0,0.0,0.0,0.0,0.0,0.0,0.0,0.0,0.0,0.0,0.0,0.0,0.0,0.0,0.0,0.0,0.0,0.0,0.0,0.0,0.0,0.0,0.0,0.0,0.0,0.0,0.0,0.0,0.0,0.0,0.0,0.0,0.0,0.0,0.0,0.664,0.677,0.7185,0.7793,0.721,0.6698,0.0,0.0,0.0,0.0,0.0,0.0,0.0,0.0,0.0,0.0,0.0,0.0,0.0,0.0,0.0,0.0,0.0,0.0,0.0,0.0,0.0,0.0,0.0,0.0,0.0,0.0,0.0,0.0,0.0,0.0,0.0,0.0,0.0,0.0,0.0,0.0,0.0,0.0,0.0,0.0,0.0,0.0,0.0,0.0,0.0,0.0,0.0,0.0,0.0,0.0,0.0,0.0,0.0,0.0,0.0,0.0,0.0,0.0,0.0,0.0,0.0,0.0,0.0,0.0,0.0,0.0,0.0,0.0,0.0,0.0,0.0,0.0,0.0,0.0,0.0,0.0,0.0,0.0,0.0,0.0,0.0,0.0,0.0,0.0,0.0,0.0,0.0,0.0,0.0,0.0,0.0,0.0,0.0,0.0,0.0,0.0,0.0,0.0,0.0,0.0,0.0,0.0,0.0,0.0,0.0,0.0,0.0,0.0,0.0,0.5997,0.0,0.6986,0.0,0.6772,0.6214,0.0,0.0,0.0,0.0,0.0,0.0,0.0,0.0,0.0,0.0,0.0,0.0,0.0,0.0,0.0,0.0,0.0,0.0,0.0,0.0,0.0,0.0,0.0,0.0,0.0,0.0,0.0,0.0,0.0,0.0,0.0,0.0,0.0,0.0,0.0,0.0,0.0,0.0,0.0,0.0,0.0,0.0,0.0,0.0,0.0,0.0,0.0,0.0,0.0,0.0,0.0,0.0,0.0,0.0,0.0,0.0,0.0,0.0,0.0,0.0,0.0,0.0,0.0,0.0,0.0,0.0,0.0,0.0,0.0,0.0,0.0,0.0,0.0,0.0,0.0,0.0,0.0,0.0,0.0,0.0,0.0,0.0,0.0,0.0,0.0,0.0,0.0,0.0,0.0,0.0,0.0,0.0,0.0,0.0,0.0,0.0,0.0,0.0,0.0,0.0,0.0,0.0,0.0,0.0,0.0,0.0,0.0,0.0,0.6129,0.6902,0.6832,0.6874,0.6988,0.606,0.5375,0.0,0.0,0.0,0.0,0.0,0.0,0.0,0.0,0.0,0.0,0.0,0.0,0.0,0.0,0.0,0.0,0.0,0.0,0.0,0.0,0.0,0.0,0.0,0.0,0.0,0.0,0.0,0.0,0.0,0.0,0.0,0.0,0.0,0.0,0.0,0.0,0.0,0.0,0.0,0.0,0.0,0.0,0.0,0.0,0.0,0.0,0.0,0.0,0.0,0.0,0.0,0.0,0.0,0.0,0.0,0.0,0.0,0.0,0.0,0.0,0.0,0.0,0.0,0.0,0.0,0.0,0.0,0.0,0.0,0.0,0.0,0.0,0.0,0.0,0.0,0.0,0.0,0.0,0.0,0.0,0.0,0.0,0.0,0.0,0.0,0.0,0.0,0.0,0.0,0.0,0.0,0.0,0.0,0.0,0.0,0.0,0.0,0.0,0.0,0.0,0.0,0.0,0.0,0.0,0.0,0.0,0.0,0.0,0.0,0.5966,0.6506,0.6816,0.6843,0.5977,0.5659,0.0,0.0,0.0,0.0,0.0,0.0,0.0,0.0,0.0,0.0,0.0,0.0,0.0,0.0,0.0,0.0,0.0,0.0,0.0,0.0,0.0,0.0,0.0,0.0,0.0,0.0,0.0,0.0,0.0,0.0,0.0,0.0,0.0,0.0,0.0,0.0,0.0,0.0,0.0,0.0,0.0,0.0,0.0,0.0,0.0,0.0,0.0,0.0,0.0,0.0,0.0,0.0,0.0,0.0,0.0,0.0,0.0,0.0,0.0,0.0,0.0,0.0,0.0,0.0,0.0,0.0,0.0,0.0,0.0,0.0,0.0,0.0,0.0,0.0,0.0,0.0,0.0,0.0,0.0,0.0,0.0,0.0,0.0,0.0,0.0,0.0,0.0,0.0,0.0,0.0,0.0,0.0,0.0,0.0,0.0,0.0,0.0,0.0,0.0,0.0,0.0,0.0,0.0,0.0,0.0,0.0,0.0,0.0,0.0,0.5813,0.6465,0.6713,0.647,0.5933,0.567,0.5733,0.0,0.0,0.0,0.0,0.0,0.0,0.0,0.0,0.0,0.0,0.0,0.0,0.0,0.0,0.0,0.0,0.0,0.0,0.0,0.0,0.0,0.0,0.0,0.0,0.0,0.0,0.0,0.0,0.0,0.0,0.0,0.0,0.0,0.0,0.0,0.0,0.0,0.0,0.0,0.0,0.0,0.0,0.0,0.0,0.0,0.0,0.0,0.0,0.0,0.0,0.0,0.0,0.0,0.0,0.0,0.0,0.0,0.0,0.0,0.0,0.0,0.0,0.0,0.0,0.0,0.0,0.0,0.0,0.0,0.0,0.0,0.0,0.0,0.0,0.0,0.0,0.0,0.0,0.0,0.0,0.0,0.0,0.0,0.0,0.0,0.0,0.0,0.0,0.0,0.0,0.0,0.0,0.0,0.0,0.0,0.0,0.0,0.0,0.0,0.0,0.0,0.0,0.0,0.0,0.0,0.0,0.0,0.0,0.6259,0.6765,0.6747,0.6134,0.602,0.553,0.0,0.0,0.0,0.0,0.0,0.0,0.0,0.0,0.0,0.0,0.0,0.0,0.0,0.0,0.0,0.0,0.0,0.0,0.0,0.0,0.0,0.0,0.0,0.0,0.0,0.0,0.0,0.0,0.0,0.0,0.0,0.0,0.0,0.0,0.0,0.0,0.0,0.0,0.0,0.0,0.0,0.0,0.0,0.0,0.0,0.0,0.0,0.0,0.0,0.0,0.0,0.0,0.0,0.0,0.0,0.0,0.0,0.0,0.0,0.0,0.0,0.0,0.0,0.0,0.0,0.0,0.0,0.0,0.0,0.0,0.0,0.0,0.0,0.0,0.0,0.0,0.0,0.0,0.0,0.0,0.0,0.0,0.0,0.0,0.0,0.0,0.0,0.0,0.0,0.0,0.0,0.0,0.0,0.0,0.0,0.0,0.0,0.0,0.0,0.0,0.0,0.0,0.0,0.0,0.0,0.0,0.0,0.0,0.0,0.6858,0.8077,0.8475,0.7895,0.7078,0.6535,0.0,0.0,0.0,0.0,0.0,0.0,0.0,0.0,0.0,0.0,0.0,0.0,0.0,0.0,0.0,0.0,0.0,0.0,0.0,0.0,0.0,0.0,0.0,0.0,0.0,0.0,0.0,0.0,0.0,0.0,0.0,0.0,0.0,0.0,0.0,0.0,0.0,0.0,0.0,0.0,0.0,0.0,0.0,0.0,0.0,0.0,0.0,0.0,0.0,0.0,0.0,0.0,0.0,0.0,0.0,0.0,0.0,0.0,0.0,0.0,0.0,0.0,0.0,0.0,0.0,0.0,0.0,0.0,0.0,0.0,0.0,0.0,0.0,0.0,0.0,0.0,0.0,0.0,0.0,0.0,0.0,0.0,0.0,0.0,0.0,0.0,0.0,0.0,0.0,0.0,0.0,0.0,0.0,0.0,0.0,0.0,0.0,0.0,0.0,0.0,0.0,0.0,0.0,0.0,0.0,0.0,0.0,0.0,0.7637,0.7524,0.8887,0.944,0.9065,0.8081,0.7181,0.0,0.0,0.0,0.0,0.0,0.0,0.0,0.0,0.0,0.0,0.0,0.0,0.0,0.0,0.0,0.0,0.0,0.0,0.0,0.0,0.0,0.0,0.0,0.0,0.0,0.0,0.0,0.0,0.0,0.0,0.0,0.0,0.0,0.0,0.0,0.0,0.0,0.0,0.0,0.0,0.0,0.0,0.0,0.0,0.0,0.0,0.0,0.0,0.0,0.0,0.0,0.0,0.0,0.0,0.0,0.0,0.0,0.0,0.0,0.0,0.0,0.0,0.0,0.0,0.0,0.0,0.0,0.0,0.0,0.0,0.0,0.0,0.0,0.0,0.0,0.0,0.0,0.0,0.0,0.0,0.0,0.0,0.0,0.0,0.0,0.0,0.0,0.0,0.0,0.0,0.0,0.0,0.0,0.0,0.0,0.0,0.0,0.0,0.0,0.0,0.0,0.0,0.0,0.0,0.0,0.0,0.0,0.0,0.8097,0.8191,0.9314,0.9855,0.9746,0.8914,0.767,0.0,0.0,0.0,0.0,0.0,0.0,0.0,0.0,0.0,0.0,0.0,0.0,0.0,0.0,0.0,0.0,0.0,0.0,0.0,0.0,0.0,0.0,0.0,0.0,0.0,0.0,0.0,0.0,0.0,0.0,0.0,0.0,0.0,0.0,0.0,0.0,0.0,0.0,0.0,0.0,0.0,0.0,0.0,0.0,0.0,0.0,0.0,0.0,0.0,0.0,0.0,0.0,0.0,0.0,0.0,0.0,0.0,0.0,0.0,0.0,0.0,0.0,0.0,0.0,0.0,0.0,0.0,0.0,0.0,0.0,0.0,0.0,0.0,0.0,0.0,0.0,0.0,0.0,0.0,0.0,0.0,0.0,0.0,0.0,0.0,0.0,0.0,0.0,0.0,0.0,0.0,0.0,0.0,0.0,0.0,0.0,0.0,0.0,0.0,0.0,0.0,0.0,0.0,0.0,0.0,0.0,0.0,0.0,0.7742,0.8129,0.9335,1.0033,1.0161,0.9273,0.8222,0.0,0.0,0.0,0.0,0.0,0.0,0.0,0.0,0.0,0.0,0.0,0.0,0.0,0.0,0.0,0.0,0.0,0.0,0.0,0.0,0.0,0.0,0.0,0.0,0.0,0.0,0.0,0.0,0.0,0.0,0.0,0.0,0.0,0.0,0.0,0.0,0.0,0.0,0.0,0.0,0.0,0.0,0.0,0.0,0.0,0.0,0.0,0.0,0.5914,0.0,0.0,0.0,0.0,0.0,0.0,0.0,0.0,0.0,0.0,0.0,0.0,0.0,0.0,0.0,0.0,0.0,0.0,0.0,0.0,0.0,0.0,0.0,0.0,0.0,0.0,0.0,0.0,0.0,0.0,0.0,0.0,0.0,0.0,0.0,0.0,0.0,0.0,0.0,0.0,0.0,0.0,0.0,0.0,0.0,0.0,0.0,0.0,0.0,0.0,0.0,0.0,0.0,0.0,0.0,0.0,0.0,0.0,0.0,0.8407,0.8753,0.9576,1.0051,1.0118,0.9368,0.8495,0.0,0.0,0.0,0.0,0.0,0.0,0.0,0.0,0.0,0.0,0.0,0.0,0.0,0.0,0.0,0.0,0.0,0.0,0.0,0.0,0.0,0.0,0.0,0.0,0.0,0.0,0.0,0.0,0.0,0.0,0.0,0.0,0.0,0.0,0.0,0.0,0.0,0.0,0.0,0.0,0.0,0.0,0.0,0.0,0.0,0.0,0.0,0.0,0.0,0.0,0.0,0.0,0.0,0.0,0.0,0.0,0.0,0.0,0.0,0.0,0.0,0.0,0.0,0.0,0.0,0.0,0.0,0.0,0.0,0.0,0.0,0.0,0.0,0.0,0.0,0.0,0.0,0.0,0.0,0.0,0.0,0.0,0.0,0.0,0.0,0.0,0.0,0.0,0.0,0.0,0.0,0.0,0.0,0.0,0.0,0.0,0.0,0.0,0.0,0.0,0.0,0.0,0.0,0.0,0.0,0.0,0.0,0.8319,0.9064,0.9467,0.9786,0.9973,0.9991,0.937,0.8666,0.7905,0.0,0.0,0.0,0.0,0.0,0.0,0.0,0.0,0.0,0.0,0.0,0.0,0.0,0.0,0.0,0.0,0.0,0.0,0.0,0.0,0.0,0.0,0.0,0.0,0.0,0.0,0.0,0.0,0.0,0.0,0.0,0.0,0.0,0.0,0.0,0.0,0.0,0.0,0.5741,0.6205,0.0,0.0,0.0,0.0,0.0,0.0,0.0,0.0,0.5853,0.0,0.0,0.0,0.0,0.0,0.0,0.0,0.0,0.0,0.0,0.0,0.0,0.0,0.0,0.0,0.0,0.0,0.0,0.0,0.0,0.0,0.0,0.0,0.0,0.0,0.0,0.0,0.0,0.0,0.0,0.0,0.0,0.0,0.0,0.0,0.0,0.0,0.0,0.0,0.0,0.0,0.0,0.0,0.0,0.0,0.0,0.0,0.0,0.0,0.0,0.0,0.0,0.0,0.0,0.0,0.0,0.7514,0.7369,0.7944,0.9301,0.9654,0.9882,0.9971,0.9459,0.8912,0.8286,0.0,0.0,0.0,0.0,0.0,0.0,0.0,0.0,0.0,0.0,0.0,0.0,0.0,0.0,0.0,0.0,0.0,0.0,0.0,0.0,0.0,0.0,0.0,0.0,0.0,0.0,0.0,0.0,0.0,0.0,0.0,0.0,0.0,0.0,0.0,0.0,0.0,0.0,0.0,0.6185,0.6545,0.0,0.0,0.0,0.0,0.0,0.0,0.0,0.0,0.6236,0.0,0.0,0.0,0.0,0.0,0.0,0.0,0.0,0.0,0.0,0.0,0.0,0.0,0.0,0.0,0.0,0.0,0.0,0.0,0.0,0.0,0.0,0.0,0.0,0.0,0.0,0.0,0.0,0.0,0.0,0.0,0.0,0.0,0.0,0.0,0.0,0.0,0.0,0.0,0.0,0.0,0.0,0.0,0.0,0.0,0.0,0.0,0.0,0.0,0.0,0.0,0.0,0.0,0.0,0.0,0.7323,0.744,0.8111,0.9401,0.9341,0.9439,0.9767,0.8939,0.828,0.0,0.0,0.0,0.0,0.0,0.0,0.0,0.0,0.0,0.0,0.0,0.0,0.0,0.0,0.0,0.0,0.0,0.0,0.0,0.0,0.0,0.0,0.0,0.0,0.0,0.0,0.0,0.0,0.0,0.0,0.0,0.0,0.0,0.0,0.0,0.0,0.0,0.0,0.0,0.0,0.6421,0.6625,0.657,0.0,0.0,0.0,0.0,0.0,0.0,0.6418,0.633,0.0,0.0,0.0,0.0,0.0,0.0,0.0,0.0,0.0,0.0,0.0,0.0,0.0,0.0,0.0,0.0,0.0,0.0,0.0,0.0,0.0,0.0,0.0,0.0,0.0,0.0,0.0,0.0,0.0,0.0,0.0,0.0,0.0,0.0,0.0,0.0,0.0,0.0,0.0,0.0,0.0,0.0,0.0,0.0,0.0,0.0,0.0,0.0,0.0,0.0,0.0,0.0,0.0,0.0,0.0,0.6947,0.7456,0.8227,0.92,0.8863,0.8902,0.9358,0.8361,0.7682,0.0,0.0,0.0,0.0,0.0,0.0,0.0,0.0,0.0,0.0,0.0,0.0,0.0,0.0,0.0,0.0,0.0,0.0,0.0,0.0,0.0,0.0,0.0,0.0,0.0,0.0,0.0,0.0,0.0,0.0,0.0,0.0,0.0,0.0,0.0,0.0,0.0,0.0,0.0,0.0,0.0,0.6794,0.6915,0.6923,0.0,0.0,0.0,0.0,0.6542,0.6567,0.0,0.0,0.0,0.0,0.0,0.0,0.0,0.0,0.0,0.0,0.0,0.0,0.0,0.0,0.0,0.0,0.0,0.0,0.0,0.0,0.0,0.0,0.0,0.0,0.0,0.0,0.0,0.0,0.0,0.0,0.0,0.0,0.0,0.0,0.0,0.0,0.0,0.0,0.0,0.0,0.0,0.0,0.0,0.0,0.0,0.0,0.0,0.0,0.0,0.0,0.0,0.0,0.0,0.0,0.0,0.0,0.6121,0.6546,0.7206,0.8049,0.8157,0.8356,0.8712,0.8173,0.767,0.0,0.0,0.0,0.0,0.0,0.0,0.0,0.0,0.0,0.0,0.0,0.0,0.0,0.0,0.0,0.0,0.0,0.0,0.0,0.0,0.0,0.0,0.0,0.0,0.0,0.0,0.0,0.0,0.0,0.0,0.0,0.0,0.0,0.0,0.0,0.0,0.0,0.0,0.0,0.0,0.0,0.7073,0.7613,0.668,0.6327,0.0,0.0,0.6513,0.7257,0.7328,0.0,0.0,0.0,0.0,0.0,0.0,0.0,0.0,0.0,0.0,0.0,0.0,0.0,0.0,0.0,0.0,0.0,0.0,0.0,0.0,0.0,0.0,0.0,0.0,0.0,0.0,0.0,0.0,0.0,0.0,0.0,0.0,0.0,0.0,0.0,0.0,0.0,0.0,0.0,0.0,0.0,0.0,0.0,0.0,0.0,0.0,0.0,0.0,0.0,0.0,0.0,0.0,0.0,0.0,0.0,0.5281,0.5865,0.6233,0.6912,0.7841,0.7664,0.7744,0.8196,0.7414,0.6806,0.0,0.0,0.0,0.0,0.0,0.0,0.0,0.0,0.0,0.0,0.0,0.0,0.0,0.0,0.0,0.0,0.0,0.0,0.0,0.0,0.0,0.0,0.0,0.0,0.0,0.0,0.0,0.0,0.0,0.0,0.0,0.0,0.0,0.0,0.0,0.0,0.0,0.0,0.0,0.0,0.0,0.0,0.7152,0.6852,0.0,0.0,0.0,0.7234,0.6441,0.0,0.0,0.0,0.0,0.0,0.0,0.0,0.0,0.0,0.0,0.0,0.0,0.0,0.0,0.0,0.0,0.0,0.0,0.0,0.0,0.0,0.0,0.0,0.0,0.0,0.0,0.0,0.0,0.0,0.0,0.0,0.0,0.0,0.0,0.0,0.0,0.0,0.0,0.0,0.0,0.0,0.0,0.0,0.0,0.0,0.0,0.0,0.0,0.0,0.0,0.0,0.0,0.0,0.0,0.0,0.0,0.0,0.5537,0.5974,0.6607,0.7433,0.7085,0.7098,0.7566,0.6754,0.0,0.0,0.0,0.0,0.0,0.0,0.0,0.0,0.0,0.0,0.0,0.0,0.0,0.0,0.0,0.0,0.0,0.0,0.0,0.0,0.0,0.0,0.0,0.0,0.0,0.0,0.0,0.4169,0.0,0.0,0.0,0.0,0.0,0.0,0.0,0.0,0.0,0.0,0.0,0.0,0.0,0.0,0.6707,0.6607,0.6711,0.6628,0.0,0.0,0.7319,0.5889,0.6754,0.7171,0.0,0.0,0.0,0.0,0.0,0.0,0.0,0.0,0.0,0.0,0.0,0.0,0.0,0.0,0.0,0.0,0.0,0.0,0.0,0.0,0.0,0.0,0.0,0.0,0.0,0.0,0.0,0.0,0.0,0.0,0.0,0.0,0.0,0.0,0.0,0.0,0.0,0.0,0.0,0.0,0.0,0.0,0.0,0.0,0.0,0.0,0.0,0.0,0.0,0.0,0.0,0.0,0.0,0.0,0.4737,0.4785,0.554,0.6061,0.6317,0.6273,0.6413,0.6759,0.6469,0.6001,0.0,0.0,0.0,0.0,0.0,0.0,0.0,0.0,0.0,0.0,0.0,0.0,0.0,0.0,0.0,0.0,0.0,0.0,0.0,0.0,0.0,0.0,0.0,0.0,0.0,0.0,0.0,0.0,0.0,0.0,0.0,0.0,0.0,0.0,0.0,0.0,0.0,0.0,0.0,0.0,0.0,0.655,0.634,0.5977,0.5926,0.0,0.6257,0.6057,0.6295,0.6317,0.6222,0.5919,0.0,0.0,0.0,0.0,0.0,0.0,0.0,0.0,0.0,0.0,0.0,0.0,0.0,0.0,0.0,0.0,0.0,0.0,0.0,0.0,0.0,0.0,0.0,0.0,0.0,0.0,0.0,0.0,0.0,0.0,0.0,0.0,0.0,0.0,0.0,0.0,0.0,0.0,0.0,0.0,0.0,0.0,0.0,0.0,0.0,0.0,0.0,0.0,0.0,0.0,0.0,0.0,0.0,0.4224,0.4754,0.4895,0.5255,0.5792,0.5549,0.5463,0.5578,0.5383,0.4956,0.0,0.0,0.0,0.0,0.0,0.0,0.0,0.0,0.0,0.0,0.0,0.0,0.0,0.0,0.0,0.0,0.0,0.0,0.0,0.0,0.0,0.0,0.0,0.0,0.0,0.0,0.0,0.0,0.4227,0.4363,0.421,0.0,0.0,0.0,0.0,0.0,0.0,0.0,0.0,0.0,0.0,0.5891,0.5991,0.584,0.0,0.0,0.617,0.633,0.5596,0.6094,0.6314,0.5583,0.6019,0.0,0.0,0.0,0.0,0.0,0.0,0.0,0.0,0.0,0.0,0.0,0.0,0.0,0.0,0.0,0.0,0.0,0.0,0.0,0.0,0.0,0.0,0.0,0.0,0.0,0.0,0.0,0.0,0.0,0.0,0.0,0.0,0.0,0.0,0.0,0.0,0.0,0.0,0.0,0.0,0.0,0.0,0.0,0.0,0.0,0.0,0.0,0.0,0.0,0.0,0.0,0.0,0.3868,0.4557,0.4494,0.4751,0.5381,0.5079,0.4914,0.4907,0.4775,0.44,0.0,0.0,0.0,0.0,0.0,0.0,0.0,0.0,0.0,0.0,0.0,0.0,0.0,0.0,0.0,0.0,0.0,0.0,0.0,0.0,0.0,0.0,0.0,0.0,0.0,0.0,0.0,0.0,0.3824,0.3973,0.3816,0.0,0.0,0.0,0.0,0.0,0.0,0.0,0.0,0.0,0.0,0.4837,0.4888,0.5114,0.5152,0.4775,0.5666,0.6022,0.5062,0.5442,0.5603,0.4947,0.0,0.0,0.0,0.0,0.0,0.0,0.0,0.0,0.0,0.0,0.0,0.0,0.0,0.0,0.0,0.0,0.0,0.0,0.0,0.0,0.0,0.0,0.0,0.0,0.0,0.0,0.0,0.5405,0.0,0.0,0.4742,0.0,0.0,0.0,0.0,0.0,0.0,0.0,0.0,0.0,0.0,0.0,0.0,0.0,0.0,0.0,0.0,0.0,0.0,0.0,0.0,0.0,0.0,0.3722,0.4014,0.438,0.468,0.4917,0.4901,0.4869,0.4876,0.4883,0.4635,0.4092,0.0,0.0,0.0,0.0,0.0,0.0,0.0,0.0,0.0,0.0,0.0,0.0,0.0,0.0,0.0,0.0,0.0,0.0,0.0,0.0,0.0,0.0,0.0,0.0,0.0,0.0,0.2973,0.2936,0.2968,0.0,0.0,0.0,0.0,0.0,0.0,0.0,0.0,0.0,0.2773,0.3135,0.3392,0.2974,0.359,0.4185,0.4287,0.4566,0.4776,0.4832,0.4213,0.3741,0.0,0.0,0.0,0.0,0.0,0.0,0.0,0.0,0.0,0.0,0.0,0.0,0.0,0.0,0.0,0.0,0.0,0.0,0.0,0.0,0.0,0.0,0.0,0.0,0.0,0.0,0.0,0.6224,0.5675,0.0,0.0,0.0,0.0,0.0,0.0,0.0,0.0,0.0,0.0,0.0,0.6113,0.5439,0.0,0.0,0.0,0.0,0.0,0.0,0.0,0.0,0.0,0.0,0.0,0.0,0.3435,0.4029,0.3886,0.3989,0.4354,0.4142,0.3995,0.3916,0.3989,0.392,0.3719,0.0,0.0,0.0,0.0,0.0,0.0,0.0,0.0,0.0,0.0,0.0,0.0,0.0,0.0,0.0,0.0,0.0,0.0,0.0,0.0,0.0,0.0,0.0,0.0,0.0,0.3183,0.0,0.0,0.0,0.0,0.0,0.0,0.0,0.0,0.0,0.0,0.3123,0.3012,0.3142,0.3087,0.306,0.3055,0.3316,0.3527,0.0,0.0,0.0,0.0,0.0,0.0,0.0,0.0,0.0,0.0,0.0,0.0,0.0,0.0,0.4135,0.4824,0.5041,0.5121,0.5157,0.0,0.0,0.0,0.0,0.0,0.0,0.0,0.0,0.0,0.0,0.0,0.0,0.0,0.0,0.6773,0.628,0.5981,0.0,0.0,0.0,0.0,0.0,0.0,0.0,0.0,0.5804,0.6114,0.6193,0.5535,0.536,0.5575,0.4634,0.4103,0.0,0.0,0.0,0.0,0.0,0.0,0.0,0.0,0.3294,0.3889,0.3636,0.3614,0.3899,0.3678,0.3496,0.3403,0.348,0.3464,0.3366,0.3344,0.3156,0.0,0.0,0.0,0.0,0.0,0.0,0.0,0.0,0.0,0.0,0.0,0.0,0.0,0.0,0.0,0.0,0.0,0.0,0.0,0.0,0.0,0.0,0.0,0.2732,0.0,0.0,0.0,0.0,0.0,0.0,0.0,0.0,0.0,0.2649,0.2426,0.2332,0.2591,0.2383,0.2246,0.238,0.0,0.0,0.0,0.0,0.0,0.0,0.0,0.265,0.266,0.2715,0.2828,0.3015,0.3187,0.3369,0.3584,0.0,0.0,0.4135,0.4318,0.4392,0.4419,0.4124,0.3873,0.3909,0.4003,0.4111,0.0,0.0,0.0,0.0,0.6991,0.0,0.0,0.0,0.7566,0.737,0.0,0.6497,0.0,0.0,0.0,0.0,0.4802,0.5826,0.0,0.0,0.6159,0.6549,0.6321,0.6297,0.5999,0.5438,0.5239,0.4819,0.4167,0.3476,0.0,0.0,0.0,0.0,0.0,0.0,0.3225,0.3502,0.3495,0.3538,0.3514,0.3388,0.3327,0.3332,0.3348,0.3239,0.3085,0.3351,0.3278,0.2716,0.2779,0.0,0.0,0.0,0.0,0.0,0.0,0.0,0.0,0.0,0.0,0.0,0.0,0.0,0.0,0.0,0.0,0.0,0.0,0.0,0.0,0.2022,0.0,0.0,0.0,0.0,0.0,0.0,0.0,0.0,0.0,0.0434,0.0791,0.1296,0.1478,0.1045,0.0,0.0,0.0,0.0,0.2037,0.1917,0.2495,0.2952,0.3012,0.2445,0.1992,0.1982,0.0,0.0,0.1897,0.2091,0.2376,0.2931,0.3082,0.32,0.3128,0.3122,0.3093,0.3075,0.2965,0.2805,0.2784,0.2872,0.2872,0.7238,0.0,0.0,0.0,0.0,0.707,0.7248,0.7486,0.7073,0.6622,0.6183,0.5932,0.0,0.0,0.0,0.0,0.0,0.0,0.5305,0.4878,0.5596,0.5584,0.4977,0.5071,0.4759,0.4082,0.383,0.3359,0.2664,0.2354,0.2542,0.3184,0.0,0.0,0.0,0.0,0.245,0.22,0.2256,0.2266,0.2185,0.2228,0.226,0.2272,0.2347,0.2376,0.2331,0.2503,0.2479,0.2224,0.2109,0.0,0.0,0.0,0.0,0.0,0.0,0.0,0.0,0.0,0.0,0.0,0.0,0.0,0.0,0.0,0.0,0.0,0.0,0.0,0.1596,0.1363,0.1294,0.0,0.0,0.0,0.0,0.0,0.0,0.0,0.0,0.0,-0.0687,-0.0032,0.0415,0.0,0.0,0.1135,0.1054,0.1273,0.1446,0.1403,0.1592,0.0,0.1743,0.1524,0.1371,0.1405,0.13,0.1254,0.1407,0.145,0.1544,0.173,0.1757,0.1793,0.184,0.2581,0.3145,0.3178,0.2759,0.2381,0.2381,0.2382,0.2362,0.6943,0.6719,0.6938,0.7025,0.7028,0.7079,0.7203,0.7312,0.6949,0.6668,0.645,0.6106,0.5934,0.5888,0.5795,0.0,0.0,0.0,0.5332,0.489,0.5174,0.4908,0.42,0.4121,0.3727,0.3077,0.2809,0.2488,0.2079,0.194,0.2105,0.2546,0.0,0.2378,0.1908,0.2022,0.1951,0.1686,0.1764,0.1755,0.1683,0.1706,0.1724,0.1728,0.179,0.1865,0.1935,0.2051,0.2088,0.2006,0.1888,0.174,0.0,0.0,0.0,0.0,0.0,0.0,0.0,0.0,0.0,0.0,0.0,0.1748,0.1877,0.0,0.0,0.0,0.1041,0.0812,0.0707,0.0452,0.0,0.0,0.0,0.0,0.0,0.0,0.0,-0.1016,-0.1204,-0.1426,-0.1807,-0.1341,-0.0862,-0.0611,-0.0128,0.0165,0.0036,0.0,0.0183,0.0111,0.0444,0.0724,0.073,0.0982,0.12,0.1237,0.1221,0.124,0.124,0.124,0.124,0.124,0.1221,0.124,0.124,0.1951,0.2493,0.2466,0.211,0.1801,0.1801,0.1784,0.1803,0.653,0.5854,0.652,0.678,0.676,0.6879,0.6917,0.6926,0.6914,0.7083,0.7277,0.6681,0.6637,0.6968,0.6651,0.0,0.5509,0.5794,0.5506,0.4877,0.4749,0.4335,0.365,0.3366,0.2896,0.2298,0.211,0.201,0.2,0.1882,0.1707,0.1474,0.1486,0.1495,0.1543,0.1545,0.1578,0.1638,0.1651,0.1655,0.1658,0.1535,0.1478,0.146,0.1478,0.1541,0.1682,0.1815,0.1874,0.1883,0.1902,0.1808,0.1612,0.0,0.0,0.0,0.0,0.0,0.0,0.0,0.0,0.0,0.0,0.0,0.0,0.0,0.0,0.0,0.0375,0.0,-0.0425,-0.0585,0.0,0.0,0.0,-0.0881,-0.1419,-0.1367,-0.1363,-0.155,0.0,0.0,-0.2657,-0.2581,-0.2256,-0.159,-0.1392,-0.1383,-0.1581,-0.1373,-0.1365,-0.1454,-0.0739,-0.0115,-0.0078,0.0488,0.0956,0.1074,0.1197,0.1175,0.1273,0.1293,0.1315,0.1312,0.1316,0.1314,0.1316,0.137,0.1279,0.1296,0.1268,0.123,0.127,0.1271,0.129,0.5984,0.5831,0.5992,0.5798,0.5387,0.5408,0.5423,0.5434,0.5535,0.569,0.5885,0.5856,0.5922,0.6078,0.5189,0.4723,0.456,0.3739,0.3231,0.2976,0.3033,0.2857,0.245,0.2554,0.2198,0.1455,0.1364,0.1042,0.0549,0.0489,0.0437,0.0392,0.0392,0.0568,0.0901,0.1023,0.0853,0.0442,0.0427,0.0421,0.0437,0.0394,0.0369,0.0386,0.0382,0.0507,0.0729,0.0774,0.0851,0.0995,0.1057,0.1009,0.0802,0.0932,0.0,0.0,0.0,0.0,0.0,0.0,0.0,0.0,0.0,0.1283,0.1299,0.0,0.093,0.0,-0.0544,-0.1028,-0.0937,-0.1065,0.0,0.0,-0.1126,-0.1362,-0.2086,-0.2094,-0.231,-0.2997,-0.3207,-0.3341,-0.3484,-0.3492,-0.3391,-0.3223,-0.2105,-0.138,-0.1572,-0.1415,-0.1369,-0.1551,-0.1281,-0.0993,-0.0958,-0.0843,-0.0411,0.0216,0.0313,0.0529,0.1198,0.1317,0.1317,0.1317,0.1317,0.1317,0.1317,0.1317,0.1293,0.1277,0.1274,0.1274,0.1274,0.1274,0.1293,0.5045,0.5008,0.4614,0.423,0.3988,0.4917,0.5229,0.5173,0.5329,0.5288,0.5074,0.4853,0.4749,0.4697,0.4104,0.3819,0.3768,0.3038,0.2608,0.2487,0.2406,0.213,0.171,0.171,0.1332,0.0613,0.0612,0.0391,0.0,0.0,0.0,0.0,0.0,0.0132,0.0393,0.0462,0.0319,0.0,0.0,0.0,0.0,0.0,0.0,0.0,0.0,0.0069,0.0205,0.0208,0.0292,0.0466,0.0567,0.0585,0.0551,0.0717,0.0746,0.0,0.0,0.0,0.0,0.0,0.0,0.0,0.0,0.0,0.0,0.0,-0.0084,-0.054,-0.1326,-0.1766,-0.1692,-0.1926,-0.2129,-0.2211,-0.2133,-0.2311,-0.2871,-0.2876,-0.3056,-0.3623,-0.3687,-0.3722,-0.3831,-0.3874,-0.3894,-0.3901,-0.3091,-0.2515,-0.256,-0.2468,-0.2448,-0.2547,-0.2155,-0.1685,-0.1371,-0.1312,-0.1135,-0.0685,-0.0568,-0.0411,0.0059,0.0471,0.0726,0.0746,0.104,0.1297,0.1317,0.1317,0.1317,0.1317,0.1317,0.1317,0.1317,0.1317,0.1317,0.3964,0.3905,0.3067,0.2711,0.282,0.4633,0.5295,0.5152,0.5386,0.5113,0.4507,0.3926,0.3571,0.3357,0.3218,0.3121,0.3012,0.2673,0.2472,0.2387,0.207,0.1646,0.1134,0.0899,0.0519,0.0,0.0,0.0,0.0,0.0,-0.0035,-0.014,-0.0137,-0.0186,-0.0269,-0.0269,-0.0183,0.0,0.0,0.0,0.0,0.0,0.0,0.0,0.0,0.0,0.0028,0.0028,0.0083,0.0201,0.0334,0.0433,0.047,0.0556,0.0565,0.0,0.0416,0.0,0.0,0.0,0.0,0.0,0.0,0.0,0.0,-0.1006,-0.1244,-0.1407,-0.2035,-0.2436,-0.2506,-0.2889,-0.3242,-0.3462,-0.3341,-0.3349,-0.3601,-0.3585,-0.3601,-0.3799,-0.3839,-0.385,-0.3926,-0.3965,-0.4006,-0.3978,-0.3919,-0.3792,-0.3808,-0.3728,-0.3713,-0.3858,-0.3206,-0.2487,-0.1946,-0.1744,-0.1684,-0.1544,-0.1507,-0.1443,-0.1269,-0.0674,-0.0198,-0.0139,0.0357,0.0893,0.109,0.1091,0.1151,0.1273,0.1314,0.131,0.1319,0.1317,0.1317,0.3289,0.326,0.2978,0.2756,0.2651,0.3104,0.3259,0.3265,0.362,0.3748,0.3728,0.3592,0.3376,0.3099,0.2305,0.2025,0.2079,0.1028,0.0626,0.0732,0.0523,0.0358,0.0249,0.0187,0.0111,0.0,0.0,0.0,0.0,0.0,-0.0298,-0.0876,-0.0889,-0.1152,-0.168,0.0,0.0,0.0,0.0,0.0,0.0,0.0,0.0,0.0,0.0,0.0,0.0154,0.0154,0.0168,0.0194,0.0433,0.0,0.0,0.0,0.0,0.0,0.0,0.0,0.0,0.0,0.0,0.0,-0.1748,-0.1392,-0.1001,-0.1328,-0.1708,-0.2024,-0.2635,-0.3028,-0.3046,-0.3233,-0.338,-0.3499,-0.3471,-0.3536,-0.3808,-0.3786,-0.3803,-0.394,-0.3964,-0.3969,-0.3989,-0.3989,-0.3988,-0.401,-0.4,-0.3996,-0.396,-0.3958,-0.402,-0.4124,-0.3821,-0.3648,-0.3507,-0.3416,-0.3117,-0.2735,-0.2527,-0.2256,-0.1675,-0.1386,-0.1201,-0.12,-0.1079,-0.0663,0.0,0.0166,0.0455,0.1142,0.1308,0.1316,0.1307,0.1317,0.1317,0.2253,0.2208,0.1693,0.1408,0.0,0.1371,0.1364,0.1445,0.2525,0.2788,0.241,0.2131,0.19,0.1701,0.118,0.1021,0.1078,0.0342,0.0057,0.0151,0.0038,0.0,0.0,0.0,0.0,0.0,0.0,-0.0243,-0.0623,-0.0645,-0.1019,-0.1798,-0.1795,-0.1919,-0.2175,-0.2128,-0.1745,-0.1042,-0.1043,-0.1029,-0.1046,-0.1031,-0.1016,-0.0986,-0.0999,0.0,0.0,0.0,0.0,0.0,0.0,0.0,0.0,0.0,0.0,-0.1032,-0.1041,-0.1241,-0.1653,-0.1658,-0.1881,-0.2432,-0.2495,-0.2375,-0.2071,-0.2283,-0.253,-0.2776,-0.3165,-0.337,-0.3371,-0.3499,-0.3616,-0.3683,-0.3697,-0.3751,-0.3904,-0.3926,-0.3934,-0.3999,-0.4054,-0.4104,-0.4104,-0.4122,-0.415,-0.4149,-0.4146,-0.4152,-0.4141,-0.4068,-0.4034,-0.4137,-0.4076,-0.3992,-0.3992,-0.3992,-0.391,-0.3486,-0.34,-0.3235,-0.2815,-0.2394,-0.2121,-0.21,-0.1806,-0.1303,-0.0903,-0.0441,0.0063,0.0525,0.0989,0.1277,0.1307,0.1322,0.1322,0.1144,0.1099,0.0314,0.0,0.0,0.0,0.0,0.0112,0.164,0.0,0.0,0.068,0.0399,0.0239,0.0238,0.0257,0.0237,0.0079,0.0,0.0,-0.0171,-0.0209,-0.0208,-0.038,-0.0441,-0.0409,-0.0431,-0.0824,-0.1506,-0.1515,-0.1895,-0.2617,-0.27,-0.271,-0.271,-0.2587,-0.2533,-0.2499,-0.2235,-0.2105,-0.2106,-0.211,-0.2072,-0.2019,-0.2021,-0.1976,-0.1851,-0.1736,-0.1671,-0.1641,-0.1529,-0.1406,-0.1314,-0.1339,-0.1356,-0.1355,-0.1346,-0.1632,-0.2213,-0.2248,-0.2429,-0.2817,-0.2982,-0.309,-0.315,-0.3176,-0.3262,-0.3417,-0.352,-0.3579,-0.3571,-0.3719,-0.3825,-0.3912,-0.3924,-0.3959,-0.4023,-0.404,-0.4044,-0.4064,-0.4153,-0.4215,-0.4219,-0.4251,-0.4297,-0.4297,-0.4287,-0.4297,-0.4281,-0.4157,-0.4076,-0.4076,-0.4086,-0.407,-0.4043,-0.407,-0.4041,-0.401,-0.4028,-0.406,-0.3954,-0.3505,-0.3121,-0.3089,-0.2442,-0.2043,-0.1745,-0.1215,-0.0425,0.0064,0.0468,0.0809,0.083,0.083,0.087,0.0,0.0202,0.0067,0.0,0.0,0.0,0.0,0.0,0.0531,0.0654,0.0515,0.0451,0.0276,0.0042,0.0061,0.0041,0.004,0.0,0.0,0.0,-0.078,-0.106,-0.1003,-0.1773,-0.2085,-0.198,-0.2094,-0.221,-0.2308,-0.2339,-0.2716,-0.3349,-0.3443,-0.3745,-0.4303,-0.4242,-0.4166,-0.4146,-0.28,-0.211,-0.21,-0.2099,-0.2113,-0.2095,-0.2103,-0.2073,-0.2061,-0.206,-0.1984,-0.1873,-0.1721,-0.1798,-0.2116,-0.2021,-0.2197,-0.2673,-0.2721,-0.2757,-0.2847,-0.2877,-0.2921,-0.3038,-0.3243,-0.3346,-0.3356,-0.3248,-0.3293,-0.3536,-0.3491,-0.3534,-0.3793,-0.3817,-0.3866,-0.3971,-0.3976,-0.4031,-0.4164,-0.4155,-0.4177,-0.424,-0.4273,-0.4299,-0.4275,-0.4289,-0.4297,-0.4297,-0.4297,-0.4297,-0.4293,-0.4279,-0.4263,-0.4261,-0.4263,-0.4263,-0.422,-0.4259,-0.4246,-0.4261,-0.4251,-0.424,-0.4218,-0.4084,-0.3972,-0.4054,-0.3798,-0.3495,-0.2878,-0.2619,-0.1503,0.0154,-0.0022,-0.0795,-0.0861,-0.0884,-0.046,0.0,0.0,0.0,0.0,0.0,0.0,-0.0292,-0.0718,-0.0628,-0.0268,0.0177,0.0177,0.0132,0.0,0.0,-0.0278,-0.0759,-0.0751,-0.1044,-0.1579,-0.1995,-0.2123,-0.2102,-0.2448,-0.2549,-0.2429,-0.2491,-0.2719,-0.3078,-0.3166,-0.3598,-0.4315,-0.428,-0.443,-0.4728,-0.4665,-0.4605,-0.4582,-0.3735,-0.3305,-0.3288,-0.3296,-0.3266,-0.3199,-0.3186,-0.311,-0.2972,-0.2877,-0.2753,-0.2617,-0.2617,-0.2649,-0.2665,-0.2757,-0.2886,-0.3037,-0.3029,-0.3028,-0.3097,-0.3103,-0.3158,-0.3267,-0.3378,-0.3456,-0.3456,-0.3442,-0.3475,-0.3597,-0.3627,-0.3712,-0.3842,-0.394,-0.4041,-0.4099,-0.4151,-0.4174,-0.4254,-0.4262,-0.4259,-0.4293,-0.4297,-0.4297,-0.4297,-0.4297,-0.4297,-0.4297,-0.4297,-0.4297,-0.4297,-0.4297,-0.4297,-0.4297,-0.4297,-0.4297,-0.4297,-0.4297,-0.4297,-0.4297,-0.4297,-0.4297,-0.4297,-0.4297,-0.4297,-0.4297,-0.4297,-0.4141,-0.3649,-0.3202,-0.2216,-0.1364,-0.0872,-0.1498,-0.1789,-0.1677,-0.1106,-0.0351,-0.0365,-0.0624,-0.069,-0.0678,-0.0678,-0.1081,-0.1726,-0.1726,-0.1323,-0.0718,-0.0651,-0.0651,-0.0651,-0.0651,-0.1045,-0.1665,-0.1727,-0.2161,-0.2871,-0.3088,-0.3154,-0.314,-0.3217,-0.3231,-0.3113,-0.3079,-0.337,-0.388,-0.3992,-0.4361,-0.4927,-0.4901,-0.4855,-0.4855,-0.4773,-0.4731,-0.4699,-0.4453,-0.43,-0.4274,-0.43,-0.4238,-0.4086,-0.4108,-0.4051,-0.3843,-0.3645,-0.3471,-0.3359,-0.3393,-0.3306,-0.3049,-0.3219,-0.327,-0.3107,-0.3055,-0.3086,-0.3193,-0.3231,-0.3295,-0.3422,-0.346,-0.3518,-0.3558,-0.3591,-0.3609,-0.3648,-0.3777,-0.3872,-0.3934,-0.4059,-0.4203,-0.4223,-0.4281,-0.4289,-0.4297,-0.4297,-0.4297,-0.4297,-0.4297,-0.4297,-0.4297,-0.4297,-0.4297,-0.4297,-0.4297,-0.4297,-0.4297,-0.4297,-0.4297,-0.4297,-0.4297,-0.4297,-0.4297,-0.4297,-0.4297,-0.4297,-0.4297,-0.4297,-0.4297,-0.4297,-0.4297,-0.4297,-0.4297,-0.4275,-0.4231,-0.3762,-0.3179,-0.2707,-0.2505,-0.2349,-0.2752,-0.2529,-0.1871,-0.1449,-0.161,-0.2439,-0.2836,-0.2647,-0.2669,-0.2689,-0.2761,-0.2778,-0.2734,-0.2647,-0.2643,-0.2598,-0.2644,-0.2576,-0.2617,-0.2744,-0.2769,-0.2844,-0.3043,-0.3664,-0.3924,-0.392,-0.4709,-0.5089,-0.4904,-0.4757,-0.4687,-0.4772,-0.4708,-0.4792,-0.4985,-0.4988,-0.4974,-0.4966,-0.486,-0.4798,-0.4779,-0.4473,-0.427,-0.4221,-0.4273,-0.4195,-0.4015,-0.4181,-0.4262,-0.4188,-0.4047,-0.3862,-0.3763,-0.3562,-0.3378,-0.3121,-0.3111,-0.3131,-0.3111,-0.3103,-0.3124,-0.3205,-0.3322,-0.3409,-0.3493,-0.3499,-0.3569,-0.3738,-0.3663,-0.3638,-0.3749,-0.3808,-0.3932,-0.4121,-0.4204,-0.423,-0.4269,-0.4289,-0.4297,-0.4297,-0.4297,-0.4297,-0.4297,-0.4297,-0.4297,-0.4297,-0.4297,-0.4297,-0.4297,-0.4297,-0.4297,-0.4297,-0.4297,-0.4297,-0.4297,-0.4297,-0.4297,-0.4297,-0.4297,-0.4297,-0.4297,-0.4297,-0.4297,-0.4297,-0.4297,-0.4297,-0.4297,-0.4297,-0.4297,-0.4297,-0.4186,-0.4119,-0.3896,-0.3805,-0.3961,-0.4097,-0.3916,-0.3303,-0.255,-0.2595,-0.3008,-0.3155,-0.3102,-0.3121,-0.3437,-0.3942,-0.3871,-0.4146,-0.4616,-0.4591,-0.3941,-0.2934,-0.2889,-0.3203,-0.3715,-0.3715,-0.4035,-0.4555,-0.4907,-0.5012,-0.5023,-0.5265,-0.5391,-0.5321,-0.5267,-0.5151,-0.5015,-0.4874,-0.4844,-0.4866,-0.489,-0.4925,-0.4988,-0.493,-0.4923,-0.4917,-0.4579,-0.4367,-0.4258,-0.4134,-0.4025,-0.3966,-0.3979,-0.3947,-0.3832,-0.3746,-0.3629,-0.346,-0.3462,-0.3413,-0.3156,-0.3301,-0.3366,-0.3288,-0.3322,-0.3341,-0.3329,-0.3456,-0.3511,-0.3503,-0.3616,-0.3688,-0.3632,-0.3675,-0.3753,-0.3852,-0.394,-0.4057,-0.4178,-0.424,-0.4285,-0.4291,-0.4297,-0.4297,-0.4297,-0.4297,-0.4297,-0.4297,-0.4297,-0.4297,-0.4297,-0.4297,-0.4297,-0.4297,-0.4297,-0.4297,-0.4297,-0.4297,-0.4297,-0.4297,-0.4297,-0.4297,-0.4297,-0.4297,-0.4297,-0.4297,-0.4297,-0.4297,-0.4297,-0.4297,-0.4297,-0.4297,-0.4297,-0.4297,-0.4297,-0.4297,-0.4297,-0.4297,-0.4297,-0.4297,-0.4297,-0.4297,-0.3849,-0.3645,-0.3686,-0.3948,-0.4072,-0.405,-0.4049,-0.4441,-0.5006,-0.4983,-0.5349,-0.5893,-0.5808,-0.5033,-0.3856,-0.3683,-0.4052,-0.4634,-0.4679,-0.504,-0.5666,-0.571,-0.571,-0.5677,-0.5605,-0.5534,-0.549,-0.5417,-0.5262,-0.5069,-0.4923,-0.4828,-0.4785,-0.4793,-0.4841,-0.4878,-0.4928,-0.4963,-0.4949,-0.4653,-0.4427,-0.4289,-0.3987,-0.383,-0.3868,-0.3852,-0.3776,-0.3646,-0.3609,-0.3526,-0.337,-0.3475,-0.3411,-0.3286,-0.3444,-0.3498,-0.3425,-0.3473,-0.3495,-0.3425,-0.3542,-0.3583,-0.3552,-0.3661,-0.3692,-0.3642,-0.3723,-0.3844,-0.3971,-0.4072,-0.4179,-0.423,-0.4285,-0.4295,-0.4297,-0.4297,-0.4297,-0.4297,-0.4297,-0.4297,-0.4297,-0.4297,-0.4297,-0.4297,-0.4297,-0.4297,-0.4297,-0.4297,-0.4297,-0.4297,-0.4297,-0.4297,-0.4297,-0.4297,-0.4297,-0.4297,-0.4297,-0.4297,-0.4297,-0.4297,-0.4297,-0.4297,-0.4297,-0.4297,-0.4297,-0.4297,-0.4297,-0.4297,-0.4297,-0.4297,-0.4297,-0.4297,-0.4297,-0.4297,-0.4297,-0.4297,-0.473,-0.487,-0.5802,-0.6111,-0.6139,-0.6087,-0.6051,-0.5966,-0.5965,-0.6054,-0.6062,-0.5947,-0.5824,-0.5628,-0.5447,-0.5555,-0.5621,-0.5574,-0.5599,-0.571,-0.571,-0.571,-0.571,-0.5705,-0.5697,-0.5648,-0.5494,-0.5343,-0.5161,-0.5044,-0.489,-0.4708,-0.4746,-0.4728,-0.4669,-0.4725,-0.4866,-0.4891,-0.4576,-0.439,-0.4324,-0.3886,-0.3698,-0.3812,-0.3914,-0.3954,-0.3943,-0.3858,-0.3745,-0.3747,-0.3581,-0.3462,-0.3406,-0.3419,-0.3427,-0.3426,-0.3526,-0.3564,-0.3518,-0.3558,-0.3599,-0.3591,-0.3581,-0.3624,-0.3808,-0.3831,-0.394,-0.4194,-0.4351,-0.439,-0.435,-0.4334,-0.4297,-0.4297,-0.4297,-0.4297,-0.4297,-0.4297,-0.4297,-0.4297,-0.4297,-0.4297,-0.4297,-0.4297,-0.4297,-0.43,-0.43,-0.4302,-0.4302,-0.43,-0.4308,-0.43,-0.4297,-0.4297,-0.4297,-0.4297,-0.4297,-0.4297,-0.4297,-0.4297,-0.4297,-0.4297,-0.4297,-0.4297,-0.4297,-0.4297,-0.4297,-0.4297,-0.4297,-0.4297,-0.4297,-0.4297,-0.4297,-0.4297,-0.4297,-0.5809,-0.5859,-0.6237,-0.6387,-0.6352,-0.6374,-0.635,-0.6282,-0.6257,-0.6227,-0.6205,-0.6096,-0.5977,-0.5878,-0.586,-0.5778,-0.5716,-0.571,-0.571,-0.571,-0.571,-0.571,-0.571,-0.571,-0.571,-0.5697,-0.5599,-0.5414,-0.5061,-0.4945,-0.4768,-0.4589,-0.4516,-0.4481,-0.4471,-0.4455,-0.4502,-0.4518,-0.4251,-0.4107,-0.4183,-0.3906,-0.3755,-0.3777,-0.372,-0.3699,-0.366,-0.3644,-0.3606,-0.3606,-0.3536,-0.3485,-0.346,-0.3503,-0.3558,-0.3628,-0.3624,-0.3593,-0.357,-0.3589,-0.3581,-0.356,-0.3683,-0.3776,-0.3846,-0.394,-0.4212,-0.4715,-0.5061,-0.5142,-0.4924,-0.4589,-0.4297,-0.4297,-0.432,-0.4364,-0.4297,-0.4297,-0.4297,-0.4297,-0.4297,-0.4297,-0.4326,-0.43,-0.4297,-0.4306,-0.4349,-0.4359,-0.4326,-0.4324,-0.4371,-0.4314,-0.4297,-0.4297,-0.4297,-0.4297,-0.4297,-0.4297,-0.4297,-0.4297,-0.4297,-0.4297,-0.4297,-0.4297,-0.4297,-0.4297,-0.4297,-0.4297,-0.4297,-0.4297,-0.4297,-0.4297,-0.4297,-0.4297,-0.4297,-0.6412,-0.6412,-0.6412,-0.6412,-0.6412,-0.6412,-0.6412,-0.6404,-0.6355,-0.635,-0.6323,-0.6222,-0.6121,-0.6021,-0.5977,-0.5899,-0.5767,-0.5729,-0.571,-0.571,-0.571,-0.571,-0.571,-0.571,-0.5666,-0.5599,-0.5599,-0.5421,-0.5155,-0.4991,-0.4774,-0.4485,-0.4385,-0.4356,-0.4346,-0.4329,-0.4354,-0.431,-0.4091,-0.4002,-0.4009,-0.3827,-0.3717,-0.3701,-0.3581,-0.353,-0.3579,-0.3585,-0.3585,-0.3604,-0.3604,-0.3604,-0.3589,-0.3609,-0.3633,-0.3723,-0.364,-0.3574,-0.3575,-0.3591,-0.3595,-0.3595,-0.3742,-0.3868,-0.3932,-0.4252,-0.4615,-0.4947,-0.5335,-0.5525,-0.5369,-0.4946,-0.4567,-0.4456,-0.4699,-0.4877,-0.4679,-0.4656,-0.4543,-0.4389,-0.4567,-0.456,-0.4437,-0.4595,-0.4587,-0.4447,-0.4444,-0.4444,-0.4414,-0.443,-0.4447,-0.4365,-0.4326,-0.4332,-0.4314,-0.4302,-0.4302,-0.4302,-0.4297,-0.4297,-0.4297,-0.4297,-0.4297,-0.4297,-0.4297,-0.4297,-0.4297,-0.4297,-0.4297,-0.4297,-0.4297,-0.4297,-0.4297,-0.4297,-0.4297,-0.6412,-0.6412,-0.6412,-0.6412,-0.6412,-0.6412,-0.6412,-0.6409,-0.6406,-0.6396,-0.6377,-0.6314,-0.6279,-0.6252,-0.6153,-0.6021,-0.5858,-0.5747,-0.571,-0.5713,-0.571,-0.571,-0.571,-0.571,-0.5621,-0.5485,-0.5416,-0.5413,-0.5314,-0.5171,-0.4863,-0.4494,-0.4447,-0.4356,-0.4207,-0.4326,-0.4447,-0.4381,-0.4174,-0.4022,-0.39,-0.3686,-0.3556,-0.353,-0.3516,-0.3595,-0.3765,-0.3771,-0.3735,-0.3765,-0.3769,-0.3772,-0.3746,-0.3656,-0.3605,-0.3613,-0.3605,-0.3583,-0.3514,-0.3568,-0.3663,-0.3743,-0.379,-0.3942,-0.4316,-0.4779,-0.5032,-0.4975,-0.527,-0.5572,-0.5594,-0.5636,-0.5324,-0.4589,-0.5475,-0.5899,-0.5547,-0.5416,-0.5149,-0.4681,-0.4978,-0.51,-0.4821,-0.5152,-0.5345,-0.4889,-0.472,-0.4675,-0.4586,-0.4576,-0.453,-0.4442,-0.4411,-0.4418,-0.4359,-0.4306,-0.4306,-0.4306,-0.4302,-0.4297,-0.4297,-0.4297,-0.4297,-0.4297,-0.4297,-0.4297,-0.4297,-0.4297,-0.4297,-0.4297,-0.4297,-0.4297,-0.4297,-0.4297,-0.4297,-0.6412,-0.6412,-0.6412,-0.6412,-0.6412,-0.6412,-0.6412,-0.6412,-0.6412,-0.6412,-0.6404,-0.6374,-0.6342,-0.6298,-0.6249,-0.6074,-0.5777,-0.5735,-0.5713,-0.5696,-0.5694,-0.5691,-0.5688,-0.5688,-0.5666,-0.5599,-0.5463,-0.5305,-0.5117,-0.4957,-0.466,-0.4378,-0.4319,-0.4223,-0.408,-0.4075,-0.41,-0.4077,-0.3991,-0.394,-0.3915,-0.3826,-0.3714,-0.3583,-0.3566,-0.3593,-0.3602,-0.3599,-0.3602,-0.3606,-0.3583,-0.3583,-0.3577,-0.3556,-0.3532,-0.3593,-0.355,-0.3563,-0.357,-0.3578,-0.3673,-0.3784,-0.3895,-0.4257,-0.4796,-0.5143,-0.5676,-0.6226,-0.6713,-0.6849,-0.6915,-0.7319,-0.6966,-0.5874,-0.6143,-0.6409,-0.6169,-0.6105,-0.5852,-0.5463,-0.5863,-0.629,-0.6449,-0.6648,-0.6209,-0.559,-0.543,-0.5305,-0.4786,-0.4685,-0.4652,-0.4551,-0.4536,-0.4516,-0.4463,-0.4426,-0.4418,-0.4383,-0.4351,-0.431,-0.4304,-0.4297,-0.4297,-0.4297,-0.4297,-0.4297,-0.4297,-0.4297,-0.4297,-0.4297,-0.4297,-0.4297,-0.4297,-0.4297,-0.4297,-0.6412,-0.6412,-0.6412,-0.6412,-0.6412,-0.6412,-0.6412,-0.6412,-0.6412,-0.6412,-0.6412,-0.6412,-0.6374,-0.6317,-0.6232,-0.6022,-0.5779,-0.5679,-0.5604,-0.5532,-0.5493,-0.5462,-0.5426,-0.5352,-0.5374,-0.5394,-0.5238,-0.506,-0.4899,-0.4748,-0.4567,-0.433,-0.4266,-0.4191,-0.4113,-0.4079,-0.4038,-0.4004,-0.3969,-0.3934,-0.3899,-0.3887,-0.3796,-0.3629,-0.3605,-0.3583,-0.3507,-0.3517,-0.3517,-0.3517,-0.3517,-0.3514,-0.352,-0.3507,-0.3538,-0.3577,-0.3566,-0.3573,-0.3605,-0.3674,-0.3767,-0.3871,-0.4004,-0.4272,-0.4857,-0.5294,-0.6207,-0.6561,-0.7158,-0.7511,-0.7555,-0.7848,-0.783,-0.7338,-0.725,-0.7095,-0.6922,-0.6879,-0.6494,-0.6148,-0.6539,-0.7227,-0.749,-0.7563,-0.7135,-0.6504,-0.6093,-0.5855,-0.5205,-0.4892,-0.4809,-0.4701,-0.4628,-0.4602,-0.4595,-0.4574,-0.4538,-0.4479,-0.4416,-0.4353,-0.4312,-0.4302,-0.4297,-0.4297,-0.4297,-0.4297,-0.4297,-0.4297,-0.4297,-0.4297,-0.4308,-0.4297,-0.4297,-0.4297,-0.4297,-0.6412,-0.6412,-0.6412,-0.6412,-0.6412,-0.6412,-0.6412,-0.6412,-0.6412,-0.6412,-0.6412,-0.6412,-0.6409,-0.6334,-0.6146,-0.5943,-0.5823,-0.5591,-0.5388,-0.5256,-0.5146,-0.5078,-0.5072,-0.4946,-0.4946,-0.5033,-0.4857,-0.4725,-0.4725,-0.4681,-0.4547,-0.4318,-0.4291,-0.4295,-0.4269,-0.4287,-0.4232,-0.4184,-0.4095,-0.3997,-0.3936,-0.3877,-0.378,-0.3648,-0.364,-0.3605,-0.3554,-0.3542,-0.3524,-0.3503,-0.3517,-0.3512,-0.3562,-0.3524,-0.354,-0.3613,-0.3617,-0.3635,-0.3668,-0.381,-0.3932,-0.4003,-0.421,-0.4273,-0.465,-0.56,-0.621,-0.6077,-0.6893,-0.7533,-0.7599,-0.7713,-0.7944,-0.8452,-0.8334,-0.8102,-0.7694,-0.7751,-0.7356,-0.6645,-0.7185,-0.8082,-0.8119,-0.8218,-0.7935,-0.7353,-0.6711,-0.6401,-0.6009,-0.5638,-0.5106,-0.5026,-0.5205,-0.5017,-0.5109,-0.4689,-0.4673,-0.4587,-0.4516,-0.4444,-0.4328,-0.4324,-0.4324,-0.432,-0.4324,-0.4318,-0.4334,-0.4383,-0.4349,-0.434,-0.4334,-0.431,-0.43,-0.43,-0.4196,-0.6412,-0.6412,-0.6412,-0.6412,-0.6412,-0.6412,-0.6412,-0.6412,-0.6412,-0.6412,-0.6412,-0.6412,-0.6412,-0.6387,-0.6114,-0.5897,-0.5671,-0.5397,-0.5102,-0.4898,-0.4822,-0.4896,-0.4988,-0.4946,-0.4921,-0.4944,-0.477,-0.4705,-0.4681,-0.4502,-0.4389,-0.432,-0.4297,-0.4297,-0.4297,-0.4297,-0.4312,-0.4291,-0.4244,-0.4183,-0.4129,-0.4096,-0.4006,-0.3842,-0.3828,-0.3783,-0.3723,-0.3712,-0.3645,-0.3509,-0.3517,-0.3507,-0.3548,-0.3532,-0.3587,-0.3727,-0.3755,-0.3791,-0.3881,-0.3946,-0.4019,-0.4165,-0.4609,-0.4988,-0.5114,-0.5877,-0.652,-0.6808,-0.7356,-0.7735,-0.816,-0.8278,-0.8484,-0.867,-0.8684,-0.8571,-0.8484,-0.8494,-0.8405,-0.8302,-0.8667,-0.8911,-0.9026,-0.9047,-0.8852,-0.8237,-0.7776,-0.745,-0.6933,-0.6612,-0.6155,-0.6216,-0.6239,-0.5859,-0.5525,-0.505,-0.4775,-0.4694,-0.463,-0.4567,-0.4457,-0.4338,-0.4348,-0.4358,-0.4402,-0.4404,-0.4486,-0.4533,-0.449,-0.4406,-0.4402,-0.4395,-0.4328,-0.4283,-0.4075,-0.6412,-0.6412,-0.6412,-0.6412,-0.6412,-0.6412,-0.6412,-0.6412,-0.6412,-0.6412,-0.6412,-0.6412,-0.6337,-0.6212,-0.5939,-0.5689,-0.5438,-0.5163,-0.4933,-0.4767,-0.472,-0.4739,-0.4746,-0.4739,-0.4739,-0.4699,-0.4589,-0.4545,-0.45,-0.4366,-0.432,-0.4297,-0.4297,-0.4297,-0.4297,-0.4297,-0.4297,-0.4297,-0.4297,-0.4295,-0.4252,-0.4248,-0.4176,-0.4059,-0.4032,-0.3994,-0.3893,-0.3877,-0.3793,-0.3675,-0.363,-0.3645,-0.3665,-0.3667,-0.3734,-0.3887,-0.3877,-0.393,-0.3972,-0.4048,-0.4265,-0.4597,-0.5065,-0.5259,-0.5556,-0.6232,-0.707,-0.6937,-0.7558,-0.8116,-0.847,-0.8651,-0.8714,-0.8769,-0.8796,-0.8828,-0.8934,-0.8988,-0.9047,-0.9149,-0.9311,-0.9498,-0.9595,-0.9599,-0.9377,-0.8949,-0.851,-0.8142,-0.7755,-0.7506,-0.7285,-0.7213,-0.7039,-0.6667,-0.6434,-0.6053,-0.5553,-0.5374,-0.5052,-0.492,-0.466,-0.4514,-0.4453,-0.4473,-0.4485,-0.4508,-0.4587,-0.4615,-0.4566,-0.45,-0.4472,-0.4477,-0.4422,-0.4373,-0.4154,-0.6412,-0.6412,-0.6412,-0.6412,-0.6412,-0.6412,-0.6412,-0.6412,-0.6412,-0.6412,-0.6387,-0.6387,-0.6214,-0.5992,-0.5689,-0.5436,-0.5215,-0.496,-0.4832,-0.4779,-0.473,-0.4658,-0.4544,-0.4524,-0.4485,-0.4429,-0.4349,-0.4342,-0.4344,-0.4314,-0.4297,-0.4297,-0.4297,-0.4297,-0.4297,-0.4297,-0.4297,-0.4297,-0.4297,-0.4295,-0.4285,-0.4281,-0.4238,-0.4209,-0.4188,-0.4136,-0.4081,-0.4034,-0.3991,-0.387,-0.3825,-0.3848,-0.3895,-0.3887,-0.3932,-0.4016,-0.4015,-0.4027,-0.4098,-0.4282,-0.4595,-0.5094,-0.5472,-0.5547,-0.5836,-0.6672,-0.7224,-0.6827,-0.7764,-0.829,-0.8607,-0.8735,-0.8844,-0.8922,-0.9043,-0.9136,-0.9197,-0.9299,-0.9323,-0.919,-0.9433,-0.9563,-0.9599,-0.9599,-0.9575,-0.9327,-0.9011,-0.8768,-0.8503,-0.8304,-0.8056,-0.7882,-0.7658,-0.7385,-0.7257,-0.7132,-0.6631,-0.6233,-0.5755,-0.545,-0.5026,-0.4847,-0.467,-0.4601,-0.4583,-0.4602,-0.4636,-0.4632,-0.461,-0.4594,-0.4587,-0.4577,-0.458,-0.4531,-0.4377,-0.6412,-0.6412,-0.6412,-0.6412,-0.6412,-0.6412,-0.6412,-0.6412,-0.6412,-0.6387,-0.6362,-0.6189,-0.6067,-0.5967,-0.5516,-0.5265,-0.5165,-0.4935,-0.4782,-0.478,-0.4795,-0.4726,-0.4645,-0.4583,-0.4558,-0.4513,-0.4434,-0.4385,-0.4373,-0.4342,-0.43,-0.4304,-0.4302,-0.4297,-0.4297,-0.4297,-0.4297,-0.4297,-0.4297,-0.4297,-0.4297,-0.4297,-0.431,-0.4331,-0.4333,-0.4283,-0.4249,-0.422,-0.4222,-0.4161,-0.4078,-0.4053,-0.401,-0.3993,-0.4078,-0.4182,-0.4166,-0.4169,-0.4336,-0.4799,-0.5223,-0.5502,-0.6313,-0.6805,-0.6276,-0.7003,-0.7423,-0.729,-0.758,-0.8138,-0.8661,-0.8773,-0.8954,-0.9168,-0.9282,-0.9376,-0.9458,-0.9445,-0.9425,-0.949,-0.9559,-0.9599,-0.9599,-0.9599,-0.9599,-0.9575,-0.9472,-0.9348,-0.9175,-0.9002,-0.8829,-0.8556,-0.8382,-0.8134,-0.8031,-0.7836,-0.7363,-0.6939,-0.6495,-0.6116,-0.5706,-0.5269,-0.5142,-0.4927,-0.4677,-0.4698,-0.4694,-0.472,-0.4714,-0.471,-0.4677,-0.4659,-0.4638,-0.4634,-0.4345,-0.6412,-0.6412,-0.6412,-0.6412,-0.6412,-0.6412,-0.6412,-0.6412,-0.6412,-0.6314,-0.6189,-0.6067,-0.5867,-0.5614,-0.534,-0.5165,-0.5012,-0.4885,-0.4782,-0.4782,-0.478,-0.4785,-0.475,-0.4712,-0.4663,-0.4609,-0.4526,-0.4502,-0.4475,-0.4414,-0.4344,-0.4355,-0.4302,-0.43,-0.4297,-0.432,-0.4297,-0.4297,-0.4297,-0.4297,-0.4297,-0.4297,-0.4545,-0.4746,-0.4812,-0.4812,-0.483,-0.4808,-0.463,-0.4475,-0.4515,-0.4461,-0.4202,-0.4159,-0.4315,-0.4658,-0.4386,-0.4709,-0.5154,-0.5369,-0.57,-0.6343,-0.7114,-0.7136,-0.7183,-0.7602,-0.7757,-0.7709,-0.7901,-0.8365,-0.888,-0.9071,-0.9213,-0.9323,-0.9457,-0.9527,-0.9559,-0.9539,-0.951,-0.9579,-0.9591,-0.9599,-0.9599,-0.9599,-0.9599,-0.9575,-0.9575,-0.9476,-0.9476,-0.9352,-0.9402,-0.9253,-0.9105,-0.8931,-0.8804,-0.8482,-0.7985,-0.7587,-0.7223,-0.6885,-0.6556,-0.6115,-0.5706,-0.5326,-0.4899,-0.4773,-0.4771,-0.4801,-0.4803,-0.4767,-0.473,-0.4708,-0.4698,-0.4673,-0.4209,-0.6412,-0.6412,-0.6412,-0.6387,-0.6337,-0.6337,-0.6287,-0.6262,-0.6287,-0.6089,-0.6017,-0.5992,-0.5892,-0.5516,-0.5614,-0.5363,-0.5135,-0.5258,-0.5359,-0.4809,-0.506,-0.4956,-0.4868,-0.4775,-0.4726,-0.4618,-0.46,-0.4619,-0.4593,-0.4506,-0.4436,-0.4417,-0.4342,-0.4338,-0.4326,-0.4458,-0.4567,-0.4589,-0.4587,-0.4699,-0.4699,-0.4676,-0.4901,-0.5413,-0.5547,-0.5525,-0.5547,-0.5502,-0.5302,-0.4701,-0.5213,-0.5146,-0.481,-0.452,-0.4676,-0.5347,-0.4954,-0.5287,-0.5916,-0.6058,-0.6343,-0.7467,-0.7669,-0.7691,-0.7826,-0.8133,-0.82,-0.8202,-0.835,-0.8846,-0.914,-0.9242,-0.9375,-0.9445,-0.9547,-0.9587,-0.9599,-0.9599,-0.9595,-0.9595,-0.9599,-0.9599,-0.9599,-0.9599,-0.9599,-0.9599,-0.9599,-0.9599,-0.9599,-0.9599,-0.9599,-0.9599,-0.9402,-0.9327,-0.9204,-0.913,-0.8606,-0.8382,-0.8006,-0.7708,-0.7459,-0.7146,-0.6635,-0.5576,-0.512,-0.5031,-0.488,-0.478,-0.4782,-0.4782,-0.4772,-0.4763,-0.475,-0.4732,-0.4071,-0.6412,-0.6412,-0.6412,-0.6287,-0.6092,-0.6092,-0.6039,-0.5737,-0.5909,-0.5712,-0.5812,-0.6137,-0.6337,-0.6287,-0.6689,-0.6464,-0.6014,-0.6212,-0.6012,-0.5286,-0.5461,-0.5564,-0.5135,-0.5108,-0.4955,-0.4757,-0.4824,-0.488,-0.4689,-0.4621,-0.4626,-0.4552,-0.4434,-0.4391,-0.471,-0.489,-0.5178,-0.5275,-0.5263,-0.5431,-0.5674,-0.5594,-0.5589,-0.6166,-0.6254,-0.6232,-0.6232,-0.6254,-0.6188,-0.6074,-0.6166,-0.6121,-0.5874,-0.5477,-0.5436,-0.5547,-0.5766,-0.6052,-0.6542,-0.6915,-0.7158,-0.7599,-0.8018,-0.8364,-0.8458,-0.8613,-0.8644,-0.8708,-0.8793,-0.912,-0.9339,-0.9408,-0.9457,-0.9531,-0.9567,-0.9599,-0.9599,-0.9599,-0.9599,-0.9599,-0.9599,-0.9599,-0.9599,-0.9599,-0.9599,-0.9599,-0.9599,-0.9599,-0.9599,-0.9599,-0.9599,-0.9599,-0.9599,-0.955,-0.9525,-0.9501,-0.9303,-0.9204,-0.8928,-0.8655,-0.8432,-0.8258,-0.7633,-0.6584,-0.5762,-0.5461,-0.5261,-0.496,-0.4782,-0.4782,-0.4782,-0.4759,-0.4684,-0.4535,-0.3959,-0.6364,-0.6592,-0.6592,-0.6789,-0.7017,-0.7017,-0.6964,-0.6861,-0.6836,-0.6783,-0.6758,-0.6908,-0.6933,-0.6936,-0.7061,-0.6936,-0.6864,-0.6964,-0.6711,-0.6209,-0.6387,-0.6464,-0.6012,-0.5984,-0.6034,-0.6044,-0.6006,-0.5461,-0.4812,-0.4685,-0.4912,-0.5097,-0.4808,-0.4877,-0.5497,-0.5624,-0.5904,-0.6056,-0.6147,-0.6226,-0.6594,-0.6413,-0.6726,-0.6874,-0.6966,-0.6959,-0.6981,-0.6959,-0.6764,-0.6542,-0.6738,-0.6697,-0.6548,-0.6507,-0.6482,-0.6485,-0.6476,-0.6808,-0.725,-0.765,-0.7631,-0.8147,-0.8516,-0.8733,-0.8847,-0.8926,-0.8995,-0.9096,-0.9172,-0.9323,-0.9498,-0.951,-0.9543,-0.9571,-0.9599,-0.9599,-0.9599,-0.9599,-0.9599,-0.9599,-0.9599,-0.9599,-0.9599,-0.9599,-0.9599,-0.9599,-0.9599,-0.9599,-0.9599,-0.9599,-0.9599,-0.9599,-0.9599,-0.9599,-0.9599,-0.9599,-0.9599,-0.9599,-0.9575,-0.9303,-0.9179,-0.8928,-0.8432,-0.7658,-0.6936,-0.6089,-0.5589,-0.5261,-0.5035,-0.4759,-0.4558,-0.4433,-0.4485,-0.4259,-0.3632,-0.652,-0.7045,-0.7045,-0.7366,-0.7864,-0.791,-0.7839,-0.7839,-0.7764,-0.7609,-0.7556,-0.7655,-0.763,-0.7534,-0.7612,-0.7633,-0.7487,-0.7609,-0.7534,-0.7135,-0.731,-0.7388,-0.7185,-0.721,-0.7061,-0.6883,-0.6952,-0.6537,-0.5687,-0.543,-0.5647,-0.5852,-0.541,-0.5617,-0.6558,-0.6535,-0.672,-0.6915,-0.7065,-0.6978,-0.708,-0.7498,-0.783,-0.783,-0.7808,-0.7849,-0.7871,-0.7852,-0.7602,-0.7418,-0.7498,-0.7603,-0.7167,-0.7521,-0.7812,-0.7711,-0.7177,-0.7624,-0.806,-0.8178,-0.8162,-0.8697,-0.8827,-0.8958,-0.9043,-0.9132,-0.9238,-0.9388,-0.9437,-0.9474,-0.9575,-0.9616,-0.9595,-0.9599,-0.9599,-0.9599,-0.9599,-0.9599,-0.9599,-0.9599,-0.9599,-0.9599,-0.9599,-0.9599,-0.9599,-0.9599,-0.9599,-0.9599,-0.9599,-0.9599,-0.9599,-0.9599,-0.9599,-0.9599,-0.9599,-0.9599,-0.9599,-0.9599,-0.9599,-0.9476,-0.9501,-0.9476,-0.8903,-0.8308,-0.7512,-0.6692,-0.6139,-0.5664,-0.5463,-0.5087,-0.446,-0.4158,-0.4234,-0.3806,-0.3102,-0.7141,-0.7864,-0.7839,-0.7786,-0.773,-0.7755,-0.7559,-0.7437,-0.7487,-0.7288,-0.7534,-0.801,-0.8308,-0.8382,-0.8931,-0.8808,-0.8606,-0.873,-0.8457,-0.7711,-0.7985,-0.7957,-0.7388,-0.721,-0.7484,-0.7534,-0.7434,-0.7138,-0.6855,-0.681,-0.6857,-0.6924,-0.6787,-0.6988,-0.7337,-0.7433,-0.7795,-0.7865,-0.7871,-0.7853,-0.7939,-0.8471,-0.8745,-0.8814,-0.881,-0.8775,-0.8709,-0.8705,-0.8625,-0.8663,-0.8748,-0.8834,-0.8799,-0.885,-0.8915,-0.88,-0.8611,-0.8456,-0.8718,-0.8611,-0.8637,-0.8996,-0.9064,-0.9076,-0.9169,-0.9299,-0.9421,-0.9551,-0.9559,-0.9579,-0.9587,-0.9599,-0.9599,-0.9599,-0.9599,-0.9599,-0.9599,-0.9599,-0.9599,-0.9599,-0.9599,-0.9599,-0.9599,-0.9599,-0.9599,-0.9599,-0.9599,-0.9599,-0.9599,-0.9599,-0.9599,-0.9599,-0.9599,-0.9599,-0.9599,-0.9599,-0.9599,-0.9599,-0.9599,-0.9603,-0.9529,-0.948,-0.9406,-0.8762,-0.7988,-0.7466,-0.7089,-0.6612,-0.6092,-0.5338,-0.4558,-0.4209,-0.4034,-0.338,-0.2549,-0.791,-0.8233,-0.8233,-0.8435,-0.8701,-0.873,-0.868,-0.8581,-0.8556,-0.8556,-0.8606,-0.8907,-0.908,-0.913,-0.948,-0.9402,-0.9204,-0.9451,-0.9303,-0.868,-0.8832,-0.8857,-0.8684,-0.856,-0.8556,-0.8457,-0.856,-0.868,-0.8357,-0.7686,-0.7363,-0.7776,-0.7505,-0.7691,-0.8164,-0.8282,-0.8551,-0.8738,-0.8841,-0.8733,-0.8742,-0.8909,-0.91,-0.91,-0.9104,-0.9112,-0.9112,-0.9096,-0.9096,-0.9096,-0.9096,-0.9096,-0.9092,-0.9092,-0.9088,-0.9076,-0.8966,-0.8891,-0.8943,-0.8932,-0.9076,-0.919,-0.9278,-0.9319,-0.938,-0.9453,-0.9522,-0.9587,-0.9599,-0.9599,-0.9599,-0.9599,-0.9599,-0.9599,-0.9599,-0.9599,-0.9599,-0.9599,-0.9599,-0.9599,-0.9599,-0.9599,-0.9599,-0.9599,-0.9599,-0.9599,-0.9599,-0.9599,-0.9599,-0.9599,-0.9599,-0.9599,-0.9599,-0.9599,-0.9599,-0.9599,-0.9599,-0.9599,-0.9599,-0.9554,-0.9406,-0.9311,-0.9232,-0.9105,-0.8531,-0.8159,-0.7957,-0.7185,-0.6289,-0.5434,-0.458,-0.4232,-0.3781,-0.2725,-0.2045,-0.8708,-0.8684,-0.8708,-0.9055,-0.9599,-0.9599,-0.9575,-0.9603,-0.955,-0.9579,-0.9599,-0.9579,-0.9579,-0.9603,-0.9579,-0.9575,-0.9599,-0.9599,-0.9599,-0.9599,-0.9599,-0.955,-0.9402,-0.9505,-0.9505,-0.9599,-0.9377,-0.9402,-0.913,-0.863,-0.8258,-0.8659,-0.8294,-0.8492,-0.9076,-0.9103,-0.903,-0.9371,-0.9381,-0.93,-0.9235,-0.9227,-0.925,-0.9242,-0.923,-0.9206,-0.923,-0.9219,-0.9223,-0.8894,-0.8882,-0.8778,-0.8532,-0.8444,-0.8436,-0.8436,-0.8372,-0.84,-0.8582,-0.8792,-0.9172,-0.938,-0.9453,-0.947,-0.9567,-0.9599,-0.9599,-0.9599,-0.9599,-0.9599,-0.9599,-0.9599,-0.9599,-0.9599,-0.9599,-0.9599,-0.9599,-0.9599,-0.9599,-0.9599,-0.9599,-0.9599,-0.9599,-0.9599,-0.9599,-0.9599,-0.9599,-0.9599,-0.9599,-0.9599,-0.9599,-0.9599,-0.9599,-0.9599,-0.9599,-0.9599,-0.9599,-0.9603,-0.9603,-0.9505,-0.9307,-0.9183,-0.9084,-0.8956,-0.8726,-0.8482,-0.8038,-0.7235,-0.6459,-0.5982,-0.5354,-0.4228,-0.3402,-0.2372,-0.1743,-0.9525,-0.9529,-0.9505,-0.9529,-0.9599,-0.9599,-0.9599,-0.9599,-0.9599,-0.9599,-0.9599,-0.9599,-0.9599,-0.9599,-0.9599,-0.9599,-0.9599,-0.9599,-0.9599,-0.9599,-0.9599,-0.9599,-0.9599,-0.9599,-0.9599,-0.9599,-0.9599,-0.9599,-0.9575,-0.9352,-0.9278,-0.9455,-0.9105,-0.9381,-0.9529,-0.9451,-0.9377,-0.9599,-0.9579,-0.9579,-0.9539,-0.9539,-0.9543,-0.9526,-0.9543,-0.9538,-0.9534,-0.9318,-0.898,-0.8388,-0.8381,-0.8161,-0.7776,-0.7681,-0.7653,-0.7653,-0.7656,-0.7656,-0.779,-0.8583,-0.9316,-0.9518,-0.9571,-0.9579,-0.9595,-0.9599,-0.9599,-0.9599,-0.9599,-0.9599,-0.9599,-0.9599,-0.9599,-0.9599,-0.9599,-0.9599,-0.9599,-0.9599,-0.9599,-0.9599,-0.9599,-0.9599,-0.9599,-0.9599,-0.9599,-0.9599,-0.9599,-0.9599,-0.9599,-0.9599,-0.9599,-0.9599,-0.9599,-0.9599,-0.9599,-0.9599,-0.9599,-0.9579,-0.9529,-0.9377,-0.9208,-0.908,-0.8857,-0.863,-0.8407,-0.8287,-0.8162,-0.7562,-0.7083,-0.6828,-0.6126,-0.4929,-0.3802,-0.2849,-0.2221,-0.9599,-0.9599,-0.9599,-0.9599,-0.9599,-0.9599,-0.9599,-0.9599,-0.9599,-0.9599,-0.9599,-0.9599,-0.9599,-0.9599,-0.9599,-0.9599,-0.9599,-0.9599,-0.9599,-0.9599,-0.9599,-0.9599,-0.9599,-0.9599,-0.9599,-0.9599,-0.9599,-0.9599,-0.9599,-0.9599,-0.9599,-0.9603,-0.9599,-0.9603,-0.9603,-0.9599,-0.9599,-0.9599,-0.9599,-0.9599,-0.9599,-0.9599,-0.9599,-0.9599,-0.8977,-0.8903,-0.8747,-0.8329,-0.7982,-0.7758,-0.7683,-0.7409,-0.7138,-0.7061,-0.7061,-0.7061,-0.7036,-0.7036,-0.7235,-0.8121,-0.897,-0.9538,-0.9599,-0.955,-0.9426,-0.9554,-0.9603,-0.9599,-0.9501,-0.9377,-0.9554,-0.9579,-0.9599,-0.9599,-0.9575,-0.9525,-0.9451,-0.9377,-0.9402,-0.9327,-0.9476,-0.9599,-0.9599,-0.9599,-0.9599,-0.9599,-0.9599,-0.9599,-0.9599,-0.9599,-0.9599,-0.9599,-0.9599,-0.9599,-0.9599,-0.9599,-0.9599,-0.9529,-0.9455,-0.9229,-0.9006,-0.8733,-0.8506,-0.8283,-0.8159,-0.8113,-0.8038,-0.7935,-0.7584,-0.7083,-0.6406,-0.5582,-0.4477,-0.3374,-0.2847,-0.9599,-0.9599,-0.9599,-0.9599,-0.9599,-0.9599,-0.9599,-0.9599,-0.9599,-0.9599,-0.9599,-0.9599,-0.9599,-0.9599,-0.9599,-0.9599,-0.9599,-0.9599,-0.9599,-0.9599,-0.9599,-0.9599,-0.9599,-0.9599,-0.9599,-0.9599,-0.9599,-0.9599,-0.9599,-0.9599,-0.9599,-0.9599,-0.9599,-0.9599,-0.9599,-0.9599,-0.9599,-0.9599,-0.9599,-0.9599,-0.9599,-0.9599,-0.9599,-0.9501,-0.8878,-0.8506,-0.8308,-0.7861,-0.7213,-0.6964,-0.6811,-0.6711,-0.6562,-0.6484,-0.6484,-0.6512,-0.6512,-0.6534,-0.6736,-0.7484,-0.823,-0.8606,-0.873,-0.8779,-0.8903,-0.8907,-0.8655,-0.873,-0.8808,-0.8907,-0.8956,-0.8928,-0.8804,-0.868,-0.9002,-0.9027,-0.8878,-0.8779,-0.8928,-0.9006,-0.913,-0.9154,-0.9327,-0.9327,-0.9599,-0.9599,-0.9599,-0.9599,-0.9599,-0.9599,-0.9599,-0.9599,-0.9599,-0.9599,-0.9599,-0.9505,-0.9406,-0.9327,-0.9229,-0.8981,-0.873,-0.8482,-0.8283,-0.8137,-0.8063,-0.8013,-0.7963,-0.7939,-0.7587,-0.7138,-0.6534,-0.5982,-0.5027,-0.3999,-0.3549,-0.9599,-0.9599,-0.9599,-0.9599,-0.9599,-0.9599,-0.9599,-0.9599,-0.9599,-0.9599,-0.9599,-0.9599,-0.9599,-0.9599,-0.9599,-0.9599,-0.9599,-0.9599,-0.9599,-0.9599,-0.9599,-0.9599,-0.9599,-0.9599,-0.9599,-0.9599,-0.9599,-0.9599,-0.9599,-0.9599,-0.9599,-0.9599,-0.9599,-0.9599,-0.9599,-0.9599,-0.9599,-0.9599,-0.9599,-0.9599,-0.9599,-0.9599,-0.9599,-0.943,-0.8804,-0.8407,-0.801,-0.7587,-0.6939,-0.6364,-0.6414,-0.6214,-0.5737,-0.5609,-0.5534,-0.5436,-0.5334,-0.5183,-0.5085,-0.6434,-0.7285,-0.7609,-0.7808,-0.7708,-0.7459,-0.7434,-0.7612,-0.7885,-0.7562,-0.7462,-0.7584,-0.7882,-0.7857,-0.7957,-0.8308,-0.8407,-0.8255,-0.8155,-0.8283,-0.8556,-0.8506,-0.8457,-0.8754,-0.9027,-0.9451,-0.9599,-0.9599,-0.9599,-0.9599,-0.9599,-0.9599,-0.9599,-0.9599,-0.9599,-0.9579,-0.936,-0.9236,-0.9158,-0.9006,-0.8754,-0.8556,-0.8382,-0.8212,-0.8038,-0.7988,-0.7988,-0.7988,-0.7988,-0.7715,-0.7437,-0.6961,-0.6359,-0.5427,-0.4799,-0.4501,-0.9599,-0.9599,-0.9599,-0.9599,-0.9599,-0.9599,-0.9599,-0.9599,-0.9599,-0.9599,-0.9599,-0.9599,-0.9599,-0.9599,-0.9599,-0.9599,-0.9599,-0.9599,-0.9599,-0.9599,-0.9599,-0.9599,-0.9599,-0.9599,-0.9599,-0.9599,-0.9599,-0.9599,-0.9599,-0.9599,-0.9599,-0.9599,-0.9599,-0.9599,-0.9599,-0.9599,-0.9599,-0.9599,-0.9599,-0.9599,-0.9599,-0.9599,-0.9603,-0.9583,-0.8832,-0.8209,-0.7786,-0.7388,-0.6839,-0.6289,-0.6389,-0.6512,-0.6262,-0.6234,-0.6284,-0.6309,-0.6334,-0.6112,-0.6012,-0.6614,-0.716,-0.7185,-0.7135,-0.711,-0.7188,-0.7556,-0.7506,-0.7113,-0.6736,-0.6789,-0.726,-0.7388,-0.7413,-0.7409,-0.7584,-0.7609,-0.7509,-0.7484,-0.7559,-0.7982,-0.8134,-0.8273,-0.8517,-0.9051,-0.9501,-0.9599,-0.9599,-0.9599,-0.9599,-0.9599,-0.9599,-0.9599,-0.9599,-0.9599,-0.9529,-0.9282,-0.9112,-0.9034,-0.8808,-0.8531,-0.8382,-0.8237,-0.8137,-0.8013,-0.7988,-0.7988,-0.7988,-0.7988,-0.7988,-0.7764,-0.7363,-0.721,-0.6781,-0.6232,-0.5807,-0.9599,-0.9599,-0.9599,-0.9599,-0.9599,-0.9599,-0.9599,-0.9599,-0.9599,-0.9599,-0.9599,-0.9599,-0.9599,-0.9599,-0.9599,-0.9599,-0.9599,-0.9599,-0.9599,-0.9599,-0.9599,-0.9599,-0.9599,-0.9599,-0.9599,-0.9599,-0.9599,-0.9599,-0.9599,-0.9599,-0.9599,-0.9599,-0.9599,-0.9599,-0.9599,-0.9599,-0.9599,-0.9599,-0.9599,-0.9599,-0.9599,-0.9599,-0.9599,-0.9402,-0.8878,-0.8184,-0.7711,-0.7313,-0.6989,-0.6739,-0.6864,-0.7235,-0.7235,-0.7235,-0.721,-0.721,-0.7135,-0.6861,-0.6739,-0.6789,-0.7064,-0.6714,-0.6789,-0.6639,-0.6487,-0.6431,-0.6456,-0.6237,-0.6112,-0.6162,-0.6412,-0.6564,-0.6811,-0.6811,-0.6811,-0.6811,-0.7185,-0.716,-0.731,-0.7708,-0.8209,-0.8319,-0.8513,-0.9044,-0.9599,-0.9599,-0.9599,-0.9599,-0.9599,-0.9599,-0.9599,-0.9599,-0.9579,-0.9554,-0.9402,-0.9154,-0.9006,-0.8935,-0.8634,-0.8308,-0.8212,-0.8113,-0.8038,-0.7988,-0.7988,-0.7988,-0.7988,-0.7988,-0.7988,-0.7988,-0.7864,-0.7839,-0.7988,-0.7512,-0.6836,-0.9599,-0.9599,-0.9599,-0.9599,-0.9599,-0.9599,-0.9599,-0.9599,-0.9599,-0.9599,-0.9599,-0.9599,-0.9599,-0.9599,-0.9599,-0.9599,-0.9599,-0.9599,-0.9599,-0.9599,-0.9599,-0.9599,-0.9599,-0.9599,-0.9599,-0.9599,-0.9599,-0.9599,-0.9599,-0.9599,-0.9599,-0.9599,-0.9599,-0.9599,-0.9599,-0.9599,-0.9599,-0.9599,-0.9599,-0.9599,-0.9599,-0.9599,-0.9599,-0.9402,-0.8981,-0.8531,-0.8159,-0.7836,-0.7512,-0.7338,-0.7385,-0.7385,-0.736,-0.7288,-0.7285,-0.7335,-0.7434,-0.7434,-0.731,-0.7437,-0.7017,-0.6717,-0.6467,-0.5764,-0.5311,-0.5334,-0.5409,-0.5536,-0.5511,-0.5286,-0.5213,-0.5661,-0.6087,-0.6062,-0.6039,-0.6364,-0.6911,-0.7135,-0.7285,-0.7708,-0.8357,-0.8676,-0.8949,-0.9377,-0.955,-0.9599,-0.9599,-0.9599,-0.9599,-0.9599,-0.9599,-0.9599,-0.9554,-0.9455,-0.9282,-0.9051,-0.8829,-0.8708,-0.8386,-0.8088,-0.8013,-0.8013,-0.8013,-0.7988,-0.7988,-0.7988,-0.7988,-0.7988,-0.7988,-0.7988,-0.7988,-0.7988,-0.7988,-0.7988,-0.7462,-0.9599,-0.9599,-0.9599,-0.9599,-0.9599,-0.9599,-0.9599,-0.9599,-0.9599,-0.9599,-0.9599,-0.9599,-0.9599,-0.9599,-0.9599,-0.9599,-0.9599,-0.9599,-0.9599,-0.9599,-0.9599,-0.9599,-0.9599,-0.9599,-0.9599,-0.9599,-0.9599,-0.9599,-0.9599,-0.9599,-0.9599,-0.9599,-0.9599,-0.9599,-0.9599,-0.9599,-0.9599,-0.9599,-0.9599,-0.9599,-0.9599,-0.9599,-0.9599,-0.9451,-0.9352,-0.8952,-0.8506,-0.873,-0.8482,-0.8159,-0.863,-0.8857,-0.8907,-0.8907,-0.8931,-0.8931,-0.8882,-0.873,-0.8283,-0.8581,-0.8283,-0.7288,-0.7288,-0.6409,-0.5534,-0.4857,-0.4883,-0.5236,-0.5762,-0.5912,-0.5837,-0.6037,-0.6309,-0.6359,-0.6337,-0.6562,-0.7061,-0.7285,-0.7484,-0.8109,-0.8733,-0.8832,-0.913,-0.9303,-0.9451,-0.955,-0.9599,-0.955,-0.9575,-0.9575,-0.9599,-0.9599,-0.9505,-0.941,-0.9183,-0.8981,-0.8705,-0.8457,-0.8184,-0.7988,-0.8013,-0.8013,-0.7988,-0.7988,-0.7988,-0.7988,-0.7988,-0.7988,-0.7988,-0.7988,-0.7988,-0.7988,-0.7988,-0.7988,-0.7963,-0.9599,-0.9599,-0.9599,-0.9599,-0.9599,-0.9599,-0.9599,-0.9599,-0.9599,-0.9599,-0.9599,-0.9599,-0.9599,-0.9599,-0.9599,-0.9599,-0.9599,-0.9599,-0.9599,-0.9599,-0.9599,-0.9599,-0.9599,-0.9599,-0.9599,-0.9599,-0.9599,-0.9599,-0.9599,-0.9599,-0.9599,-0.9599,-0.9599,-0.9599,-0.9599,-0.9599,-0.9599,-0.9599,-0.9599,-0.9599,-0.9599,-0.9599,-0.9599,-0.9599,-0.9599,-0.9278,-0.8981,-0.9451,-0.9253,-0.8931,-0.948,-0.9579,-0.9579,-0.9579,-0.9554,-0.9505,-0.9451,-0.9253,-0.9002,-0.9229,-0.873,-0.8209,-0.8106,-0.7357,-0.6259,-0.5359,-0.5534,-0.5837,-0.6537,-0.7014,-0.6836,-0.6734,-0.6858,-0.6983,-0.6983,-0.6986,-0.721,-0.7456,-0.7982,-0.8609,-0.8882,-0.8931,-0.908,-0.9225,-0.9274,-0.9225,-0.92,-0.92,-0.9324,-0.9476,-0.955,-0.9599,-0.9455,-0.9311,-0.9084,-0.8832,-0.8556,-0.8308,-0.8137,-0.7988,-0.7988,-0.7988,-0.7988,-0.7988,-0.7988,-0.7988,-0.7988,-0.7988,-0.7988,-0.7988,-0.7988,-0.7988,-0.7988,-0.7988,-0.7988,-0.9599,-0.9599,-0.9599,-0.9599,-0.9599,-0.9599,-0.9599,-0.9599,-0.9599,-0.9599,-0.9599,-0.9599,-0.9599,-0.9599,-0.9599,-0.9599,-0.9599,-0.9599,-0.9599,-0.9599,-0.9599,-0.9599,-0.9599,-0.9599,-0.9599,-0.9599,-0.9599,-0.9599,-0.9599,-0.9599,-0.9599,-0.9599,-0.9599,-0.9599,-0.9599,-0.9599,-0.9599,-0.9599,-0.9599,-0.9599,-0.9599,-0.9599,-0.9599,-0.9599,-0.9599,-0.955,-0.955,-0.9599,-0.9599,-0.9599,-0.9599,-0.9599,-0.9599,-0.9599,-0.9599,-0.9599,-0.9599,-0.955,-0.9451,-0.955,-0.9229,-0.8754,-0.8482,-0.818,-0.7357,-0.6134,-0.6162,-0.6661,-0.7335,-0.7637,-0.7559,-0.7633,-0.7786,-0.7808,-0.7783,-0.7907,-0.8159,-0.8357,-0.863,-0.9105,-0.9179,-0.9204,-0.9031,-0.9179,-0.9126,-0.8952,-0.8899,-0.8899,-0.9002,-0.9225,-0.9327,-0.9426,-0.9303,-0.908,-0.8857,-0.8581,-0.8361,-0.8137,-0.8038,-0.7988,-0.7988,-0.7988,-0.7988,-0.7988,-0.7988,-0.7988,-0.7988,-0.7988,-0.7988,-0.7988,-0.7988,-0.7988,-0.7988,-0.7988,-0.7988,-0.9599,-0.9599,-0.9599,-0.9599,-0.9599,-0.9599,-0.9599,-0.9599,-0.9599,-0.9599,-0.9599,-0.9599,-0.9599,-0.9599,-0.9599,-0.9599,-0.9599,-0.9599,-0.9599,-0.9599,-0.9599,-0.9599,-0.9599,-0.9599,-0.9599,-0.9599,-0.9599,-0.9599,-0.9599,-0.9599,-0.9599,-0.9599,-0.9599,-0.9599,-0.9599,-0.9599,-0.9599,-0.9599,-0.9599,-0.9599,-0.9599,-0.9599,-0.9599,-0.9599,-0.9599,-0.9599,-0.9599,-0.9599,-0.9599,-0.9599,-0.9599,-0.9599,-0.9599,-0.9599,-0.9599,-0.9599,-0.9599,-0.9599,-0.9599,-0.9599,-0.9426,-0.9402,-0.9253,-0.92,-0.8602,-0.736,-0.6961,-0.7534,-0.7932,-0.8184,-0.8357,-0.8535,-0.8613,-0.8584,-0.8556,-0.8832,-0.9084,-0.9208,-0.9303,-0.9381,-0.9455,-0.9331,-0.9109,-0.901,-0.8956,-0.8903,-0.8825,-0.88,-0.8751,-0.8878,-0.8878,-0.8952,-0.8977,-0.8779,-0.8581,-0.8432,-0.8212,-0.8113,-0.8013,-0.7988,-0.7988,-0.7988,-0.7988,-0.7988,-0.7988,-0.7988,-0.7988,-0.7988,-0.7988,-0.7988,-0.7988,-0.7988,-0.7988,-0.7988,-0.7988,-0.9599,-0.9599,-0.9599,-0.9599,-0.9599,-0.9599,-0.9599,-0.9599,-0.9599,-0.9599,-0.9599,-0.9599,-0.9599,-0.9599,-0.9599,-0.9599,-0.9599,-0.9599,-0.9599,-0.9599,-0.9599,-0.9599,-0.9599,-0.9599,-0.9599,-0.9599,-0.9599,-0.9599,-0.9599,-0.9599,-0.9599,-0.9599,-0.9599,-0.9599,-0.9599,-0.9599,-0.9599,-0.9599,-0.9599,-0.9599,-0.9599,-0.9599,-0.9599,-0.9599,-0.9599,-0.9599,-0.9599,-0.9599,-0.9599,-0.9599,-0.9599,-0.9599,-0.9599,-0.9599,-0.9599,-0.9599,-0.9599,-0.9599,-0.9599,-0.9599,-0.9599,-0.9599,-0.9599,-0.9426,-0.9426,-0.8354,-0.8304,-0.8779,-0.8853,-0.9055,-0.9031,-0.9158,-0.9059,-0.901,-0.908,-0.9282,-0.9381,-0.943,-0.9406,-0.9282,-0.9257,-0.9109,-0.891,-0.8684,-0.8609,-0.8435,-0.8432,-0.8482,-0.8482,-0.8531,-0.8531,-0.8531,-0.8581,-0.8602,-0.8482,-0.8336,-0.8141,-0.8038,-0.7988,-0.7988,-0.7988,-0.7988,-0.7988,-0.7988,-0.7988,-0.7988,-0.7988,-0.7988,-0.7988,-0.7988,-0.7988,-0.7988,-0.7988,-0.7988,-0.7988,-0.9599,-0.9599,-0.9599,-0.9599,-0.9599,-0.9599,-0.9599,-0.9599,-0.9599,-0.9599,-0.9599,-0.9599,-0.9599,-0.9599,-0.9599,-0.9599,-0.9599,-0.9599,-0.9599,-0.9599,-0.9599,-0.9599,-0.9599,-0.9599,-0.9599,-0.9599,-0.9599,-0.9599,-0.9599,-0.9599,-0.9599,-0.9599,-0.9599,-0.9599,-0.9599,-0.9599,-0.9599,-0.9599,-0.9599,-0.9599,-0.9599,-0.9599,-0.9599,-0.9599,-0.9599,-0.9599,-0.9599,-0.9599,-0.9599,-0.9599,-0.9599,-0.9599,-0.9599,-0.9599,-0.9599,-0.9599,-0.9599,-0.9599,-0.9599,-0.9599,-0.9599,-0.9599,-0.9599,-0.9599,-0.9599,-0.955,-0.9501,-0.9501,-0.9575,-0.9575,-0.9579,-0.9529,-0.9434,-0.936,-0.948,-0.9554,-0.9579,-0.9599,-0.9455,-0.9282,-0.9183,-0.9034,-0.8786,-0.856,-0.8308,-0.8113,-0.7988,-0.7988,-0.8038,-0.8187,-0.8237,-0.8258,-0.8283,-0.8308,-0.8308,-0.8237,-0.8066,-0.8038,-0.7988,-0.7988,-0.7988,-0.7988,-0.7988,-0.7988,-0.7988,-0.7988,-0.7988,-0.7988,-0.7988,-0.7988,-0.7988,-0.7988,-0.7988,-0.7988,-0.7988,-0.9599,-0.9599,-0.9599,-0.9599,-0.9599,-0.9599,-0.9599,-0.9599,-0.9599,-0.9599,-0.9599,-0.9599,-0.9599,-0.9599,-0.9599,-0.9599,-0.9599,-0.9599,-0.9599,-0.9599,-0.9599,-0.9599,-0.9599,-0.9599,-0.9599,-0.9599,-0.9599,-0.9599,-0.9599,-0.9599,-0.9599,-0.9599,-0.9599,-0.9599,-0.9599,-0.9599,-0.9599,-0.9599,-0.9599,-0.9599,-0.9599,-0.9599,-0.9599,-0.9599,-0.9599,-0.9599,-0.9599,-0.9599,-0.9599,-0.9599,-0.9599,-0.9599,-0.9599,-0.9599,-0.9599,-0.9599,-0.9599,-0.9599,-0.9599,-0.9599,-0.9599,-0.9599,-0.9599,-0.9599,-0.9599,-0.9599,-0.9575,-0.9575,-0.9599,-0.9599,-0.9603,-0.9603,-0.9529,-0.9529,-0.9579,-0.9603,-0.9603,-0.9599,-0.9554,-0.9505,-0.9455,-0.9257,-0.901,-0.8733,-0.8432,-0.8233,-0.8013,-0.7988,-0.7988,-0.7988,-0.7988,-0.8038,-0.8084,-0.8038,-0.8063,-0.8113,-0.8013,-0.8013,-0.7988,-0.7988,-0.7988,-0.7988,-0.7988,-0.7988,-0.7988,-0.7988,-0.7988,-0.7988,-0.7988,-0.7988,-0.7988,-0.7988,-0.7988,-0.7988,-0.7988]},{"header":{"parameterUnit":"m.s-1","parameterCategory":1,"la1":31.0,"la2":29.5877,"lo1":-88.7671,"lo2":-86.6584,"dy":0.0162,"dx":0.0185,"nx":115,"ny":88,"refTime":"2024-08-23T12:00:00:Z","depth":0,"parameterNumber":3,"parameterNumberName":"V-component_of_WINDS"},"data":[0.0,0.0,0.0,0.0,0.0,0.0,0.0,0.0,0.0,0.0,0.0,0.0,0.0,0.0,0.0,0.0,0.0,0.0,0.0,0.0,0.0,0.0,0.0,0.0,0.0,0.0,0.0,0.0,0.0,0.0,0.0,0.0,0.0,0.0,0.0,0.0,0.0,0.0,0.0,0.0,0.0,0.0,0.0,0.0,0.0,0.0,0.0,0.0,0.0,0.0,0.0,0.0,0.0,0.0,0.0,0.0,0.0,0.0,0.0,0.0,0.0,0.0,0.0,0.0,0.0,0.0,0.0,0.0,0.0,0.0,0.0,0.0,0.0,0.0,0.0,0.0,0.0,0.0,0.0,0.0,0.0,0.0,0.0,0.0,0.0,0.0,0.0,0.0,0.0,0.0,0.0,0.0,0.0,0.0,0.0,0.0,0.0,0.0,0.0,0.0,0.0,0.0,0.0,0.0,0.0,0.0,0.0,0.0,0.0,0.0,0.0,0.0,0.0,0.0,0.0,0.0,0.0,0.0,0.0,0.0,0.0,0.0,0.0,0.0,0.0,0.0,0.0,0.0,0.0,0.0,0.0,0.0,0.0,0.0,0.0,0.0,0.0,0.0,0.0,0.0,0.0,0.0,0.0,0.0,0.0,0.0,0.0,0.0,0.0,0.0,0.0,0.0,0.0,0.0,0.0,0.0,0.0,0.0,0.0,0.0,0.0,0.0,0.0,0.0,0.0,0.0,0.0,0.0,0.0,0.0,0.0,0.0,0.0,0.0,0.0,0.0,0.0,0.0,0.0,0.0,0.0,0.0,0.0,0.0,0.0,0.0,0.0,0.0,0.0,0.0,0.0,0.0,0.0,0.0,0.0,0.0,0.0,0.0,0.0,0.0,0.0,0.0,0.0,0.0,0.0,0.0,0.0,0.0,0.0,0.0,0.0,0.0,0.0,0.0,0.0,0.0,0.0,0.0,0.0,0.0,0.0,0.0,0.0,0.0,0.0,0.0,0.0,0.0,0.0,0.0,0.0,0.0,0.0,0.0,0.0,0.0,0.0,0.0,0.0,0.0,0.0,0.0,0.0,0.0,0.0,0.0,0.0,0.0,0.0,0.0,0.0,0.0,0.0,0.0,0.0,0.0,0.0,0.0,0.0,0.0,0.0,0.0,0.0,0.0,0.0,0.0,0.0,0.0,0.0,0.0,0.0,0.0,0.0,0.0,0.0,0.0,0.0,0.0,0.0,0.0,0.0,0.0,0.0,0.0,0.0,0.0,0.0,0.0,0.0,0.0,0.0,0.0,0.0,0.0,0.0,0.0,0.0,0.0,0.0,0.0,0.0,0.0,0.0,0.0,0.0,0.0,0.0,0.0,0.0,0.0,0.0,0.0,0.0,0.0,0.0,0.0,0.0,0.0,0.0,0.0,0.0,0.0,0.0,0.0,0.0,0.0,0.0,0.0,0.0,0.0,0.0,0.0,0.0,0.0,0.0,0.0,0.0,0.0,0.0,0.0,0.0,0.0,0.0,0.0,0.0,0.0,0.0,0.0,0.0,0.0,0.0,0.0,0.0,0.0,0.0,0.0,0.0,0.0,0.0,0.0,0.0,0.0,0.0,0.0,0.0,0.0,0.0,0.0,0.0,0.0,0.0,0.0,0.0,0.0,0.0,0.0,0.0,0.0,0.0,0.0,0.0,0.0,0.0,0.0,0.0,0.0,0.0,0.0,0.0,0.0,0.0,0.0,0.0,0.0,0.0,0.0,0.0,0.0,0.0,0.0,0.0,0.0,0.0,0.0,0.0,0.0,0.0,0.0,0.0,0.0,0.0,0.0,0.0,0.0,0.0,0.0,0.0,0.0,0.0,0.0,0.0,0.0,0.0,0.0,0.0,0.0,0.0,0.0,0.0,0.0,0.0,0.0,0.0,0.0,0.0,0.0,0.0,0.0,0.0,0.0,0.0,0.0,0.0,0.0,0.0,0.0,0.0,0.0,0.0,0.0,0.0,0.0,0.0,0.0,0.0,0.0,0.0,0.0,0.0,0.0,0.0,0.0,0.0,0.0,0.0,0.0,0.0,0.0,0.0,0.0,0.0,0.0,0.0,0.0,0.0,0.0,0.0,0.0,0.0,0.0,0.0,0.0,0.0,0.0,0.0,0.0,0.0,0.0,0.0,0.0,0.0,0.0,0.0,0.0,0.0,0.0,0.0,0.0,0.0,0.0,0.0,0.0,0.0,0.0,0.0,0.0,0.0,0.0,0.0,0.0,0.0,0.0,0.0,0.0,0.0,0.0,0.0,0.0,0.0,0.0,0.0,0.0,0.0,0.0,0.0,0.0,0.0,0.0,0.0,0.0,0.0,0.0,0.0,0.0,0.0,0.0,0.0,0.0,0.0,0.0,0.0,0.0,0.0,0.0,0.0,0.0,0.0,0.0,0.0,0.0,0.0,0.0,0.0,0.0,0.0,0.0,0.0,0.0,0.0,0.0,0.0,0.0,0.0,0.0,0.0,0.0,0.0,0.0,0.0,0.0,0.0,0.0,0.0,0.0,0.0,0.0,0.0,0.0,0.0,0.0,0.0,0.0,0.0,0.0,0.0,0.0,0.0,0.0,0.0,0.0,0.0,0.0,0.0,0.0,0.0,0.0,0.0,0.0,0.0,0.0,0.0,0.0,0.0,0.0,0.0,0.0,0.0,0.0,0.0,0.0,0.0,0.0,0.0,0.0,0.0,0.0,0.0,0.0,0.0,0.0,0.0,0.0,0.0,0.0,0.0,0.0,0.0,0.0,0.0,0.0,0.0,0.0,0.0,0.0,0.0,0.0,0.0,0.0,0.0,0.0,0.0,0.0,0.0,0.0,0.0,0.0,0.0,0.0,0.0,0.0,0.0,0.0,0.0,0.0,0.0,0.0,0.0,0.0,0.0,0.0,0.0,0.0,0.0,0.0,0.0,0.0,0.0,0.0,0.0,0.0,0.0,0.0,0.0,0.0,0.0,0.0,0.0,0.0,0.0,0.0,0.0,0.0,0.0,0.0,0.0,0.0,0.0,0.0,0.0,0.0,0.0,0.0,0.0,0.0,0.0,0.0,0.0,0.0,0.0,0.0,0.0,0.0,0.0,0.0,0.0,0.0,0.0,0.0,0.0,0.0,0.0,0.0,0.0,0.0,0.0,0.0,0.0,0.0,0.0,0.0,0.0,0.0,0.0,0.0,0.0,0.0,0.0,0.0,0.0,0.0,0.0,0.0,0.0,0.0,0.0,0.0,0.0,0.0,0.0,0.0,0.0,0.0,0.0,0.0,0.0,0.0,0.0,0.0,0.0,0.0,0.0,0.0,0.0,0.0,0.0,0.0,0.0,0.0,0.0,0.0,0.0,0.0,0.0,0.0,0.0,0.0,0.0,0.0,0.0,0.0,0.0,0.0,0.0,0.0,0.0,0.0,0.0,0.0,0.0,0.0,0.0,0.0,0.0,0.0,0.0,0.0,0.0,0.0,0.0,0.0,0.0,0.0,0.0,0.0,0.0,0.0,0.0,0.0,0.0,0.0,0.0,0.0,0.0,0.0,0.0,0.0,0.0,0.0,0.0,0.0,0.0,0.0,0.0,0.0,0.0,0.0,0.0,0.0,0.0,0.0,0.0,0.0,0.0,0.0,0.0,0.0,0.0,0.0,0.0,0.0,0.0,0.0,0.0,0.0,0.0,0.0,0.0,0.0,0.0,0.0,0.0,0.0,0.0,0.0,0.0,0.0,0.0,0.0,0.0,0.0,0.0,0.0,0.0,0.0,0.0,0.0,0.0,0.0,0.0,0.0,0.0,0.0,0.0,0.0,0.0,0.0,0.0,0.0,0.0,0.0,0.0,0.0,0.0,0.0,0.0,0.0,0.0,0.0,0.0,0.0,0.0,0.0,0.0,0.0,0.0,0.0,0.0,0.0,0.0,0.0,0.0,0.0,0.0,0.0,0.0,0.0,0.0,0.0,0.0,0.0,0.0,0.0,0.0,0.0,0.0,0.0,0.0,0.0,0.0,0.0,0.0,0.0,0.0,0.0,0.0,0.0,0.0,0.0,0.0,0.0,0.0,0.0,0.0,0.0,0.0,0.0,0.0,0.0,0.0,0.0,0.0,0.0,0.0,0.0,0.0,0.0,0.0,0.0,0.0,0.0,0.0,0.0,0.0,0.0,0.0,0.0,0.0,0.0,0.0,0.0,0.0,0.0,0.0,0.0,0.0,0.0,0.0,0.0,0.0,0.0,0.0,0.0,0.0,0.0,0.0,0.0,0.8489,0.0,0.0,0.0,0.0,0.0,0.0,0.0,0.0,0.0,0.0,0.0,0.0,0.0,0.0,0.0,0.0,0.0,0.0,0.0,0.0,0.0,0.0,0.0,0.0,0.0,0.0,0.0,0.0,0.0,0.0,0.0,0.0,0.0,0.0,0.0,0.0,0.0,0.0,0.0,0.0,0.0,0.0,0.0,0.0,0.0,0.0,0.0,0.0,0.0,0.0,0.0,0.0,0.0,0.0,0.0,0.0,0.0,0.0,0.0,0.0,0.0,0.0,0.0,0.0,0.0,0.0,0.0,0.0,0.0,0.0,0.0,0.0,0.0,0.0,0.0,0.0,0.0,0.0,0.0,0.0,0.0,0.0,0.0,0.0,0.0,0.0,0.0,0.0,0.0,0.0,0.0,0.0,0.0,0.0,0.0,0.0,0.0,0.0,0.0,0.0,0.0,0.0,0.0,0.0,0.0,0.0,0.0,0.0,0.0,0.0,0.8451,0.8476,0.8457,0.8489,0.8549,0.0,0.0,0.0,0.0,0.0,0.0,0.0,0.0,0.0,0.0,0.0,0.0,0.0,0.0,0.0,0.0,0.0,0.0,0.0,0.0,0.0,0.0,0.0,0.0,0.0,0.0,0.0,0.0,0.0,0.0,0.0,0.0,0.0,0.0,0.0,0.0,0.0,0.0,0.0,0.0,0.0,0.0,0.0,0.0,0.0,0.0,0.0,0.0,0.0,0.0,0.0,0.0,0.0,0.0,0.0,0.0,0.0,0.0,0.0,0.0,0.0,0.0,0.0,0.0,0.0,0.0,0.0,0.0,0.0,0.0,0.0,0.0,0.0,0.0,0.0,0.0,0.0,0.0,0.0,0.0,0.0,0.0,0.0,0.0,0.0,0.0,0.0,0.0,0.0,0.0,0.0,0.0,0.0,0.0,0.0,0.0,0.0,0.0,0.0,0.0,0.0,0.0,0.0,0.0,0.0,0.0,0.0,0.0,0.0,0.0,0.0,0.0,0.8976,0.9049,0.9121,0.0,0.0,0.0,0.0,0.0,0.0,0.0,0.0,0.0,0.0,0.0,0.0,0.0,0.0,0.0,0.0,0.0,0.0,0.0,0.0,0.0,0.0,0.0,0.0,0.0,0.0,0.0,0.0,0.0,0.0,0.0,0.0,0.0,0.0,0.0,0.0,0.0,0.0,0.0,0.0,0.0,0.0,0.0,0.0,0.0,0.0,0.0,0.0,0.0,0.0,0.0,0.0,0.0,0.0,0.0,0.0,0.0,0.0,0.0,0.0,0.0,0.0,0.0,0.0,0.0,0.0,0.0,0.0,0.0,0.0,0.0,0.0,0.0,0.0,0.0,0.0,0.0,0.0,0.0,0.0,0.0,0.0,0.0,0.0,0.0,0.0,0.0,0.0,0.0,0.0,0.0,0.0,0.0,0.0,0.0,0.0,0.0,0.0,0.0,0.0,0.0,0.0,0.0,0.0,0.0,0.0,0.0,0.0,0.0,0.0,0.9185,1.0453,1.0548,0.0,1.0694,0.0,0.0,0.0,0.0,0.0,0.0,0.0,0.0,0.0,0.0,0.0,0.0,0.0,0.0,0.0,0.0,0.0,0.0,0.0,0.0,0.0,0.0,0.0,0.0,0.0,0.0,0.0,0.0,0.0,0.0,0.0,0.0,0.0,0.0,0.0,0.0,0.0,0.0,0.0,0.0,0.0,0.0,0.0,0.0,0.0,0.0,0.0,0.0,0.0,0.0,0.0,0.0,0.0,0.0,0.0,0.0,0.0,0.0,0.0,0.0,0.0,0.0,0.0,0.0,0.0,0.0,0.0,0.0,0.0,0.0,0.0,0.0,0.0,0.0,0.0,0.0,0.0,0.0,0.0,0.0,0.0,0.0,0.0,0.0,0.0,0.0,0.0,0.0,0.0,0.0,0.0,0.0,0.0,0.0,0.0,0.0,0.0,0.0,0.0,0.0,0.0,0.0,0.0,0.0,0.0,0.0,0.0,0.0,0.0,0.0,1.0086,1.0755,1.0787,1.0672,0.0,0.0,0.0,0.0,0.0,0.0,0.0,0.0,0.0,0.0,0.0,0.0,0.0,0.0,0.0,0.0,0.0,0.0,0.0,0.0,0.0,0.0,0.0,0.0,0.0,0.0,0.0,0.0,0.0,0.0,0.0,0.0,0.0,0.0,0.0,0.0,0.0,0.0,0.0,0.0,0.0,0.0,0.0,0.0,0.0,0.0,0.0,0.0,0.0,0.0,0.0,0.0,0.0,0.0,0.0,0.0,0.0,0.0,0.0,0.0,0.0,0.0,0.0,0.0,0.0,0.0,0.0,0.0,0.0,0.0,0.0,0.0,0.0,0.0,0.0,0.0,0.0,0.0,0.0,0.0,0.0,0.0,0.0,0.0,0.0,0.0,0.0,0.0,0.0,0.0,0.0,0.0,0.0,0.0,0.0,0.0,0.0,0.0,0.0,0.0,0.0,0.0,0.0,0.0,0.0,0.0,0.0,0.0,0.0,0.0,1.0281,1.0892,1.1347,1.1022,1.0643,1.0276,0.0,0.0,0.0,0.0,0.0,0.0,0.0,0.0,0.0,0.0,0.0,0.0,0.0,0.0,0.0,0.0,0.0,0.0,0.0,0.0,0.0,0.0,0.0,0.0,0.0,0.0,0.0,0.0,0.0,0.0,0.0,0.0,0.0,0.0,0.0,0.0,0.0,0.0,0.0,0.0,0.0,0.0,0.0,0.0,0.0,0.0,0.0,0.0,0.0,0.0,0.0,0.0,0.0,0.0,0.0,0.0,0.0,0.0,0.0,0.0,0.0,0.0,0.0,0.0,0.0,0.0,0.0,0.0,0.0,0.0,0.0,0.0,0.0,0.0,0.0,0.0,0.0,0.0,0.0,0.0,0.0,0.0,0.0,0.0,0.0,0.0,0.0,0.0,0.0,0.0,0.0,0.0,0.0,0.0,0.0,0.0,0.0,0.0,0.0,0.0,0.0,0.0,0.0,0.0,0.0,0.0,0.0,0.0,1.2254,1.1344,1.147,1.2748,1.1596,1.0925,0.0,0.0,0.0,0.0,0.0,0.0,0.0,0.0,0.0,0.0,0.0,0.0,0.0,0.0,0.0,0.0,0.0,0.0,0.0,0.0,0.0,0.0,0.0,0.0,0.0,0.0,0.0,0.0,0.0,0.0,0.0,0.0,0.0,0.0,0.0,0.0,0.0,0.0,0.0,0.0,0.0,0.0,0.0,0.0,0.0,0.0,0.0,0.0,0.0,0.0,0.0,0.0,0.0,0.0,0.0,0.0,0.0,0.0,0.0,0.0,0.0,0.0,0.0,0.0,0.0,0.0,0.0,0.0,0.0,0.0,0.0,0.0,0.0,0.0,0.0,0.0,0.0,0.0,0.0,0.0,0.0,0.0,0.0,0.0,0.0,0.0,0.0,0.0,0.0,0.0,0.0,0.0,0.0,0.0,0.0,0.0,0.0,0.0,0.0,0.0,0.0,0.0,0.0,0.0,0.0,0.0,0.0,0.0,0.0,1.008,1.0601,1.1332,1.2218,1.1386,1.0693,0.0,0.0,0.0,0.0,0.0,0.0,0.0,0.0,0.0,0.0,0.0,0.0,0.0,0.0,0.0,0.0,0.0,0.0,0.0,0.0,0.0,0.0,0.0,0.0,0.0,0.0,0.0,0.0,0.0,0.0,0.0,0.0,0.0,0.0,0.0,0.0,0.0,0.0,0.0,0.0,0.0,0.0,0.0,0.0,0.0,0.0,0.0,0.0,0.0,0.0,0.0,0.0,0.0,0.0,0.0,0.0,0.0,0.0,0.0,0.0,0.0,0.0,0.0,0.0,0.0,0.0,0.0,0.0,0.0,0.0,0.0,0.0,0.0,0.0,0.0,0.0,0.0,0.0,0.0,0.0,0.0,0.0,0.0,0.0,0.0,0.0,0.0,0.0,0.0,0.0,0.0,0.0,0.0,0.0,0.0,0.0,0.0,0.0,0.0,0.0,0.0,0.0,0.0,0.0,0.0,0.0,0.0,0.0,0.0,0.9379,0.0,1.1112,0.0,1.0669,0.9981,0.0,0.0,0.0,0.0,0.0,0.0,0.0,0.0,0.0,0.0,0.0,0.0,0.0,0.0,0.0,0.0,0.0,0.0,0.0,0.0,0.0,0.0,0.0,0.0,0.0,0.0,0.0,0.0,0.0,0.0,0.0,0.0,0.0,0.0,0.0,0.0,0.0,0.0,0.0,0.0,0.0,0.0,0.0,0.0,0.0,0.0,0.0,0.0,0.0,0.0,0.0,0.0,0.0,0.0,0.0,0.0,0.0,0.0,0.0,0.0,0.0,0.0,0.0,0.0,0.0,0.0,0.0,0.0,0.0,0.0,0.0,0.0,0.0,0.0,0.0,0.0,0.0,0.0,0.0,0.0,0.0,0.0,0.0,0.0,0.0,0.0,0.0,0.0,0.0,0.0,0.0,0.0,0.0,0.0,0.0,0.0,0.0,0.0,0.0,0.0,0.0,0.0,0.0,0.0,0.0,0.0,0.0,0.0,0.9271,1.0679,1.0816,1.0882,1.0786,0.9501,0.8847,0.0,0.0,0.0,0.0,0.0,0.0,0.0,0.0,0.0,0.0,0.0,0.0,0.0,0.0,0.0,0.0,0.0,0.0,0.0,0.0,0.0,0.0,0.0,0.0,0.0,0.0,0.0,0.0,0.0,0.0,0.0,0.0,0.0,0.0,0.0,0.0,0.0,0.0,0.0,0.0,0.0,0.0,0.0,0.0,0.0,0.0,0.0,0.0,0.0,0.0,0.0,0.0,0.0,0.0,0.0,0.0,0.0,0.0,0.0,0.0,0.0,0.0,0.0,0.0,0.0,0.0,0.0,0.0,0.0,0.0,0.0,0.0,0.0,0.0,0.0,0.0,0.0,0.0,0.0,0.0,0.0,0.0,0.0,0.0,0.0,0.0,0.0,0.0,0.0,0.0,0.0,0.0,0.0,0.0,0.0,0.0,0.0,0.0,0.0,0.0,0.0,0.0,0.0,0.0,0.0,0.0,0.0,0.0,0.0,0.9399,1.0375,1.0895,1.0832,0.9462,0.9246,0.0,0.0,0.0,0.0,0.0,0.0,0.0,0.0,0.0,0.0,0.0,0.0,0.0,0.0,0.0,0.0,0.0,0.0,0.0,0.0,0.0,0.0,0.0,0.0,0.0,0.0,0.0,0.0,0.0,0.0,0.0,0.0,0.0,0.0,0.0,0.0,0.0,0.0,0.0,0.0,0.0,0.0,0.0,0.0,0.0,0.0,0.0,0.0,0.0,0.0,0.0,0.0,0.0,0.0,0.0,0.0,0.0,0.0,0.0,0.0,0.0,0.0,0.0,0.0,0.0,0.0,0.0,0.0,0.0,0.0,0.0,0.0,0.0,0.0,0.0,0.0,0.0,0.0,0.0,0.0,0.0,0.0,0.0,0.0,0.0,0.0,0.0,0.0,0.0,0.0,0.0,0.0,0.0,0.0,0.0,0.0,0.0,0.0,0.0,0.0,0.0,0.0,0.0,0.0,0.0,0.0,0.0,0.0,0.0,1.0288,1.1355,1.1686,1.1081,1.0174,0.992,1.0355,0.0,0.0,0.0,0.0,0.0,0.0,0.0,0.0,0.0,0.0,0.0,0.0,0.0,0.0,0.0,0.0,0.0,0.0,0.0,0.0,0.0,0.0,0.0,0.0,0.0,0.0,0.0,0.0,0.0,0.0,0.0,0.0,0.0,0.0,0.0,0.0,0.0,0.0,0.0,0.0,0.0,0.0,0.0,0.0,0.0,0.0,0.0,0.0,0.0,0.0,0.0,0.0,0.0,0.0,0.0,0.0,0.0,0.0,0.0,0.0,0.0,0.0,0.0,0.0,0.0,0.0,0.0,0.0,0.0,0.0,0.0,0.0,0.0,0.0,0.0,0.0,0.0,0.0,0.0,0.0,0.0,0.0,0.0,0.0,0.0,0.0,0.0,0.0,0.0,0.0,0.0,0.0,0.0,0.0,0.0,0.0,0.0,0.0,0.0,0.0,0.0,0.0,0.0,0.0,0.0,0.0,0.0,0.0,1.2832,1.3737,1.3441,1.1846,1.1641,1.0883,0.0,0.0,0.0,0.0,0.0,0.0,0.0,0.0,0.0,0.0,0.0,0.0,0.0,0.0,0.0,0.0,0.0,0.0,0.0,0.0,0.0,0.0,0.0,0.0,0.0,0.0,0.0,0.0,0.0,0.0,0.0,0.0,0.0,0.0,0.0,0.0,0.0,0.0,0.0,0.0,0.0,0.0,0.0,0.0,0.0,0.0,0.0,0.0,0.0,0.0,0.0,0.0,0.0,0.0,0.0,0.0,0.0,0.0,0.0,0.0,0.0,0.0,0.0,0.0,0.0,0.0,0.0,0.0,0.0,0.0,0.0,0.0,0.0,0.0,0.0,0.0,0.0,0.0,0.0,0.0,0.0,0.0,0.0,0.0,0.0,0.0,0.0,0.0,0.0,0.0,0.0,0.0,0.0,0.0,0.0,0.0,0.0,0.0,0.0,0.0,0.0,0.0,0.0,0.0,0.0,0.0,0.0,0.0,0.0,1.4581,1.7546,1.8072,1.5749,1.4061,1.3001,0.0,0.0,0.0,0.0,0.0,0.0,0.0,0.0,0.0,0.0,0.0,0.0,0.0,0.0,0.0,0.0,0.0,0.0,0.0,0.0,0.0,0.0,0.0,0.0,0.0,0.0,0.0,0.0,0.0,0.0,0.0,0.0,0.0,0.0,0.0,0.0,0.0,0.0,0.0,0.0,0.0,0.0,0.0,0.0,0.0,0.0,0.0,0.0,0.0,0.0,0.0,0.0,0.0,0.0,0.0,0.0,0.0,0.0,0.0,0.0,0.0,0.0,0.0,0.0,0.0,0.0,0.0,0.0,0.0,0.0,0.0,0.0,0.0,0.0,0.0,0.0,0.0,0.0,0.0,0.0,0.0,0.0,0.0,0.0,0.0,0.0,0.0,0.0,0.0,0.0,0.0,0.0,0.0,0.0,0.0,0.0,0.0,0.0,0.0,0.0,0.0,0.0,0.0,0.0,0.0,0.0,0.0,0.0,1.5811,1.6704,1.9903,2.0896,1.9413,1.7135,1.5119,0.0,0.0,0.0,0.0,0.0,0.0,0.0,0.0,0.0,0.0,0.0,0.0,0.0,0.0,0.0,0.0,0.0,0.0,0.0,0.0,0.0,0.0,0.0,0.0,0.0,0.0,0.0,0.0,0.0,0.0,0.0,0.0,0.0,0.0,0.0,0.0,0.0,0.0,0.0,0.0,0.0,0.0,0.0,0.0,0.0,0.0,0.0,0.0,0.0,0.0,0.0,0.0,0.0,0.0,0.0,0.0,0.0,0.0,0.0,0.0,0.0,0.0,0.0,0.0,0.0,0.0,0.0,0.0,0.0,0.0,0.0,0.0,0.0,0.0,0.0,0.0,0.0,0.0,0.0,0.0,0.0,0.0,0.0,0.0,0.0,0.0,0.0,0.0,0.0,0.0,0.0,0.0,0.0,0.0,0.0,0.0,0.0,0.0,0.0,0.0,0.0,0.0,0.0,0.0,0.0,0.0,0.0,0.0,1.6976,1.8865,2.123,2.2464,2.2448,2.0169,1.7152,0.0,0.0,0.0,0.0,0.0,0.0,0.0,0.0,0.0,0.0,0.0,0.0,0.0,0.0,0.0,0.0,0.0,0.0,0.0,0.0,0.0,0.0,0.0,0.0,0.0,0.0,0.0,0.0,0.0,0.0,0.0,0.0,0.0,0.0,0.0,0.0,0.0,0.0,0.0,0.0,0.0,0.0,0.0,0.0,0.0,0.0,0.0,0.0,0.0,0.0,0.0,0.0,0.0,0.0,0.0,0.0,0.0,0.0,0.0,0.0,0.0,0.0,0.0,0.0,0.0,0.0,0.0,0.0,0.0,0.0,0.0,0.0,0.0,0.0,0.0,0.0,0.0,0.0,0.0,0.0,0.0,0.0,0.0,0.0,0.0,0.0,0.0,0.0,0.0,0.0,0.0,0.0,0.0,0.0,0.0,0.0,0.0,0.0,0.0,0.0,0.0,0.0,0.0,0.0,0.0,0.0,0.0,0.0,1.7163,1.8892,2.186,2.3388,2.3333,2.1013,1.8467,0.0,0.0,0.0,0.0,0.0,0.0,0.0,0.0,0.0,0.0,0.0,0.0,0.0,0.0,0.0,0.0,0.0,0.0,0.0,0.0,0.0,0.0,0.0,0.0,0.0,0.0,0.0,0.0,0.0,0.0,0.0,0.0,0.0,0.0,0.0,0.0,0.0,0.0,0.0,0.0,0.0,0.0,0.0,0.0,0.0,0.0,0.0,0.0,1.2866,0.0,0.0,0.0,0.0,0.0,0.0,0.0,0.0,0.0,0.0,0.0,0.0,0.0,0.0,0.0,0.0,0.0,0.0,0.0,0.0,0.0,0.0,0.0,0.0,0.0,0.0,0.0,0.0,0.0,0.0,0.0,0.0,0.0,0.0,0.0,0.0,0.0,0.0,0.0,0.0,0.0,0.0,0.0,0.0,0.0,0.0,0.0,0.0,0.0,0.0,0.0,0.0,0.0,0.0,0.0,0.0,0.0,0.0,0.0,1.8855,2.0558,2.2627,2.3678,2.3585,2.1675,1.9478,0.0,0.0,0.0,0.0,0.0,0.0,0.0,0.0,0.0,0.0,0.0,0.0,0.0,0.0,0.0,0.0,0.0,0.0,0.0,0.0,0.0,0.0,0.0,0.0,0.0,0.0,0.0,0.0,0.0,0.0,0.0,0.0,0.0,0.0,0.0,0.0,0.0,0.0,0.0,0.0,0.0,0.0,0.0,0.0,0.0,0.0,0.0,0.0,0.0,0.0,0.0,0.0,0.0,0.0,0.0,0.0,0.0,0.0,0.0,0.0,0.0,0.0,0.0,0.0,0.0,0.0,0.0,0.0,0.0,0.0,0.0,0.0,0.0,0.0,0.0,0.0,0.0,0.0,0.0,0.0,0.0,0.0,0.0,0.0,0.0,0.0,0.0,0.0,0.0,0.0,0.0,0.0,0.0,0.0,0.0,0.0,0.0,0.0,0.0,0.0,0.0,0.0,0.0,0.0,0.0,0.0,0.0,1.7994,2.0358,2.244,2.3302,2.3711,2.3682,2.2142,2.017,1.786,0.0,0.0,0.0,0.0,0.0,0.0,0.0,0.0,0.0,0.0,0.0,0.0,0.0,0.0,0.0,0.0,0.0,0.0,0.0,0.0,0.0,0.0,0.0,0.0,0.0,0.0,0.0,0.0,0.0,0.0,0.0,0.0,0.0,0.0,0.0,0.0,0.0,0.0,1.1738,1.3999,0.0,0.0,0.0,0.0,0.0,0.0,0.0,0.0,1.4023,0.0,0.0,0.0,0.0,0.0,0.0,0.0,0.0,0.0,0.0,0.0,0.0,0.0,0.0,0.0,0.0,0.0,0.0,0.0,0.0,0.0,0.0,0.0,0.0,0.0,0.0,0.0,0.0,0.0,0.0,0.0,0.0,0.0,0.0,0.0,0.0,0.0,0.0,0.0,0.0,0.0,0.0,0.0,0.0,0.0,0.0,0.0,0.0,0.0,0.0,0.0,0.0,0.0,0.0,0.0,0.0,1.7178,1.7177,1.8886,2.2488,2.3378,2.3748,2.3669,2.2083,2.0404,1.861,0.0,0.0,0.0,0.0,0.0,0.0,0.0,0.0,0.0,0.0,0.0,0.0,0.0,0.0,0.0,0.0,0.0,0.0,0.0,0.0,0.0,0.0,0.0,0.0,0.0,0.0,0.0,0.0,0.0,0.0,0.0,0.0,0.0,0.0,0.0,0.0,0.0,0.0,0.0,1.5406,1.6483,0.0,0.0,0.0,0.0,0.0,0.0,0.0,0.0,1.4603,0.0,0.0,0.0,0.0,0.0,0.0,0.0,0.0,0.0,0.0,0.0,0.0,0.0,0.0,0.0,0.0,0.0,0.0,0.0,0.0,0.0,0.0,0.0,0.0,0.0,0.0,0.0,0.0,0.0,0.0,0.0,0.0,0.0,0.0,0.0,0.0,0.0,0.0,0.0,0.0,0.0,0.0,0.0,0.0,0.0,0.0,0.0,0.0,0.0,0.0,0.0,0.0,0.0,0.0,0.0,1.6942,1.8502,2.0526,2.3123,2.3715,2.3886,2.369,2.1349,1.9507,0.0,0.0,0.0,0.0,0.0,0.0,0.0,0.0,0.0,0.0,0.0,0.0,0.0,0.0,0.0,0.0,0.0,0.0,0.0,0.0,0.0,0.0,0.0,0.0,0.0,0.0,0.0,0.0,0.0,0.0,0.0,0.0,0.0,0.0,0.0,0.0,0.0,0.0,0.0,0.0,1.6866,1.7603,1.8082,0.0,0.0,0.0,0.0,0.0,0.0,1.6637,1.579,0.0,0.0,0.0,0.0,0.0,0.0,0.0,0.0,0.0,0.0,0.0,0.0,0.0,0.0,0.0,0.0,0.0,0.0,0.0,0.0,0.0,0.0,0.0,0.0,0.0,0.0,0.0,0.0,0.0,0.0,0.0,0.0,0.0,0.0,0.0,0.0,0.0,0.0,0.0,0.0,0.0,0.0,0.0,0.0,0.0,0.0,0.0,0.0,0.0,0.0,0.0,0.0,0.0,0.0,0.0,1.6593,1.9648,2.2113,2.3812,2.4064,2.405,2.3834,2.1057,1.9014,0.0,0.0,0.0,0.0,0.0,0.0,0.0,0.0,0.0,0.0,0.0,0.0,0.0,0.0,0.0,0.0,0.0,0.0,0.0,0.0,0.0,0.0,0.0,0.0,0.0,0.0,0.0,0.0,0.0,0.0,0.0,0.0,0.0,0.0,0.0,0.0,0.0,0.0,0.0,0.0,0.0,1.8665,1.9493,1.9117,0.0,0.0,0.0,0.0,1.8734,1.8166,0.0,0.0,0.0,0.0,0.0,0.0,0.0,0.0,0.0,0.0,0.0,0.0,0.0,0.0,0.0,0.0,0.0,0.0,0.0,0.0,0.0,0.0,0.0,0.0,0.0,0.0,0.0,0.0,0.0,0.0,0.0,0.0,0.0,0.0,0.0,0.0,0.0,0.0,0.0,0.0,0.0,0.0,0.0,0.0,0.0,0.0,0.0,0.0,0.0,0.0,0.0,0.0,0.0,0.0,0.0,0.0,1.679,1.8712,2.1191,2.4143,2.4292,2.4224,2.414,2.2341,2.0278,0.0,0.0,0.0,0.0,0.0,0.0,0.0,0.0,0.0,0.0,0.0,0.0,0.0,0.0,0.0,0.0,0.0,0.0,0.0,0.0,0.0,0.0,0.0,0.0,0.0,0.0,0.0,0.0,0.0,0.0,0.0,0.0,0.0,0.0,0.0,0.0,0.0,0.0,0.0,0.0,0.0,1.9499,2.0195,1.854,1.7961,0.0,0.0,1.8848,2.1112,2.0694,0.0,0.0,0.0,0.0,0.0,0.0,0.0,0.0,0.0,0.0,0.0,0.0,0.0,0.0,0.0,0.0,0.0,0.0,0.0,0.0,0.0,0.0,0.0,0.0,0.0,0.0,0.0,0.0,0.0,0.0,0.0,0.0,0.0,0.0,0.0,0.0,0.0,0.0,0.0,0.0,0.0,0.0,0.0,0.0,0.0,0.0,0.0,0.0,0.0,0.0,0.0,0.0,0.0,0.0,0.0,1.456,1.6943,1.962,2.2088,2.4314,2.4493,2.4468,2.432,2.1801,1.949,0.0,0.0,0.0,0.0,0.0,0.0,0.0,0.0,0.0,0.0,0.0,0.0,0.0,0.0,0.0,0.0,0.0,0.0,0.0,0.0,0.0,0.0,0.0,0.0,0.0,0.0,0.0,0.0,0.0,0.0,0.0,0.0,0.0,0.0,0.0,0.0,0.0,0.0,0.0,0.0,0.0,0.0,2.1971,2.1247,0.0,0.0,0.0,2.1779,2.2189,0.0,0.0,0.0,0.0,0.0,0.0,0.0,0.0,0.0,0.0,0.0,0.0,0.0,0.0,0.0,0.0,0.0,0.0,0.0,0.0,0.0,0.0,0.0,0.0,0.0,0.0,0.0,0.0,0.0,0.0,0.0,0.0,0.0,0.0,0.0,0.0,0.0,0.0,0.0,0.0,0.0,0.0,0.0,0.0,0.0,0.0,0.0,0.0,0.0,0.0,0.0,0.0,0.0,0.0,0.0,0.0,0.0,1.7135,2.0495,2.2995,2.4503,2.4707,2.4704,2.4462,2.1708,0.0,0.0,0.0,0.0,0.0,0.0,0.0,0.0,0.0,0.0,0.0,0.0,0.0,0.0,0.0,0.0,0.0,0.0,0.0,0.0,0.0,0.0,0.0,0.0,0.0,0.0,0.0,0.9645,0.0,0.0,0.0,0.0,0.0,0.0,0.0,0.0,0.0,0.0,0.0,0.0,0.0,0.0,2.1641,2.328,2.3453,2.37,0.0,0.0,2.3986,2.3512,2.405,2.3501,0.0,0.0,0.0,0.0,0.0,0.0,0.0,0.0,0.0,0.0,0.0,0.0,0.0,0.0,0.0,0.0,0.0,0.0,0.0,0.0,0.0,0.0,0.0,0.0,0.0,0.0,0.0,0.0,0.0,0.0,0.0,0.0,0.0,0.0,0.0,0.0,0.0,0.0,0.0,0.0,0.0,0.0,0.0,0.0,0.0,0.0,0.0,0.0,0.0,0.0,0.0,0.0,0.0,0.0,1.5585,1.7401,2.0677,2.3226,2.4874,2.4986,2.491,2.4738,2.3035,2.0548,0.0,0.0,0.0,0.0,0.0,0.0,0.0,0.0,0.0,0.0,0.0,0.0,0.0,0.0,0.0,0.0,0.0,0.0,0.0,0.0,0.0,0.0,0.0,0.0,0.0,0.0,0.0,0.0,0.0,0.0,0.0,0.0,0.0,0.0,0.0,0.0,0.0,0.0,0.0,0.0,0.0,2.2381,2.3354,2.359,2.4508,0.0,2.5212,2.4235,2.5725,2.5338,2.3951,2.1343,0.0,0.0,0.0,0.0,0.0,0.0,0.0,0.0,0.0,0.0,0.0,0.0,0.0,0.0,0.0,0.0,0.0,0.0,0.0,0.0,0.0,0.0,0.0,0.0,0.0,0.0,0.0,0.0,0.0,0.0,0.0,0.0,0.0,0.0,0.0,0.0,0.0,0.0,0.0,0.0,0.0,0.0,0.0,0.0,0.0,0.0,0.0,0.0,0.0,0.0,0.0,0.0,0.0,1.5974,1.8178,2.11,2.3402,2.4962,2.5097,2.5096,2.5031,2.3433,2.0945,0.0,0.0,0.0,0.0,0.0,0.0,0.0,0.0,0.0,0.0,0.0,0.0,0.0,0.0,0.0,0.0,0.0,0.0,0.0,0.0,0.0,0.0,0.0,0.0,0.0,0.0,0.0,0.0,1.1556,1.2171,1.1687,0.0,0.0,0.0,0.0,0.0,0.0,0.0,0.0,0.0,0.0,2.3793,2.5758,2.6073,0.0,0.0,2.7199,2.6882,2.7204,2.6796,2.5801,2.3887,2.3015,0.0,0.0,0.0,0.0,0.0,0.0,0.0,0.0,0.0,0.0,0.0,0.0,0.0,0.0,0.0,0.0,0.0,0.0,0.0,0.0,0.0,0.0,0.0,0.0,0.0,0.0,0.0,0.0,0.0,0.0,0.0,0.0,0.0,0.0,0.0,0.0,0.0,0.0,0.0,0.0,0.0,0.0,0.0,0.0,0.0,0.0,0.0,0.0,0.0,0.0,0.0,0.0,1.6506,1.8711,2.1608,2.3748,2.5114,2.5176,2.5209,2.5171,2.3803,2.1567,0.0,0.0,0.0,0.0,0.0,0.0,0.0,0.0,0.0,0.0,0.0,0.0,0.0,0.0,0.0,0.0,0.0,0.0,0.0,0.0,0.0,0.0,0.0,0.0,0.0,0.0,0.0,0.0,1.188,1.253,1.1965,0.0,0.0,0.0,0.0,0.0,0.0,0.0,0.0,0.0,0.0,2.5403,2.7459,2.7934,2.8225,2.8628,2.8325,2.8032,2.7904,2.7514,2.6644,2.5083,0.0,0.0,0.0,0.0,0.0,0.0,0.0,0.0,0.0,0.0,0.0,0.0,0.0,0.0,0.0,0.0,0.0,0.0,0.0,0.0,0.0,0.0,0.0,0.0,0.0,0.0,0.0,1.0287,0.0,0.0,0.9245,0.0,0.0,0.0,0.0,0.0,0.0,0.0,0.0,0.0,0.0,0.0,0.0,0.0,0.0,0.0,0.0,0.0,0.0,0.0,0.0,0.0,0.0,1.7099,1.8835,2.2209,2.4359,2.5149,2.5212,2.5198,2.5157,2.4339,2.2656,2.0056,0.0,0.0,0.0,0.0,0.0,0.0,0.0,0.0,0.0,0.0,0.0,0.0,0.0,0.0,0.0,0.0,0.0,0.0,0.0,0.0,0.0,0.0,0.0,0.0,0.0,0.0,1.0017,1.0698,1.1296,0.0,0.0,0.0,0.0,0.0,0.0,0.0,0.0,0.0,2.1423,2.4645,2.7133,2.8006,2.8722,2.943,3.0264,2.8326,2.7003,2.7846,2.7274,2.61,0.0,0.0,0.0,0.0,0.0,0.0,0.0,0.0,0.0,0.0,0.0,0.0,0.0,0.0,0.0,0.0,0.0,0.0,0.0,0.0,0.0,0.0,0.0,0.0,0.0,0.0,0.0,1.354,1.2973,0.0,0.0,0.0,0.0,0.0,0.0,0.0,0.0,0.0,0.0,0.0,2.0352,1.9408,0.0,0.0,0.0,0.0,0.0,0.0,0.0,0.0,0.0,0.0,0.0,0.0,1.7777,2.0487,2.2915,2.4244,2.4459,2.509,2.5134,2.4553,2.4244,2.2592,1.9413,0.0,0.0,0.0,0.0,0.0,0.0,0.0,0.0,0.0,0.0,0.0,0.0,0.0,0.0,0.0,0.0,0.0,0.0,0.0,0.0,0.0,0.0,0.0,0.0,0.0,1.2088,0.0,0.0,0.0,0.0,0.0,0.0,0.0,0.0,0.0,0.0,1.9715,2.0226,2.5136,2.6579,2.7801,2.953,2.9973,3.0225,0.0,0.0,0.0,0.0,0.0,0.0,0.0,0.0,0.0,0.0,0.0,0.0,0.0,0.0,2.6575,2.2456,2.1888,2.207,2.2062,0.0,0.0,0.0,0.0,0.0,0.0,0.0,0.0,0.0,0.0,0.0,0.0,0.0,0.0,1.6327,1.602,1.6051,0.0,0.0,0.0,0.0,0.0,0.0,0.0,0.0,2.1334,2.297,2.3999,2.3056,2.3157,2.403,2.2097,2.0053,0.0,0.0,0.0,0.0,0.0,0.0,0.0,0.0,1.9172,2.1844,2.3707,2.4639,2.4615,2.4886,2.4774,2.4215,2.3908,2.2508,1.9913,1.8787,1.7134,0.0,0.0,0.0,0.0,0.0,0.0,0.0,0.0,0.0,0.0,0.0,0.0,0.0,0.0,0.0,0.0,0.0,0.0,0.0,0.0,0.0,0.0,0.0,1.2258,0.0,0.0,0.0,0.0,0.0,0.0,0.0,0.0,0.0,2.4191,2.2722,2.3282,2.7868,2.8494,2.9152,3.0885,0.0,0.0,0.0,0.0,0.0,0.0,0.0,2.9549,2.9843,2.9367,2.9042,2.9298,3.0007,3.0459,3.0139,0.0,0.0,2.5388,2.4723,2.4909,2.4904,2.5152,2.535,2.5305,2.5726,2.6143,0.0,0.0,0.0,0.0,1.8007,0.0,0.0,0.0,1.9145,1.92,0.0,1.9452,0.0,0.0,0.0,0.0,1.6442,2.0233,0.0,0.0,2.5718,2.7412,2.7446,2.7411,2.7558,2.7734,2.7593,2.632,2.3937,2.0033,0.0,0.0,0.0,0.0,0.0,0.0,2.1182,2.2838,2.4577,2.5478,2.5403,2.469,2.4245,2.4186,2.3454,2.2601,2.1696,2.1617,2.0125,1.6853,1.6605,0.0,0.0,0.0,0.0,0.0,0.0,0.0,0.0,0.0,0.0,0.0,0.0,0.0,0.0,0.0,0.0,0.0,0.0,0.0,0.0,1.0908,0.0,0.0,0.0,0.0,0.0,0.0,0.0,0.0,0.0,2.4859,2.5886,2.6687,2.791,2.9474,0.0,0.0,0.0,0.0,3.1086,3.1915,3.1268,3.1012,3.183,3.1957,3.1715,3.1011,0.0,0.0,3.2171,3.2726,3.2942,3.2093,3.2569,3.2676,3.0897,2.9857,2.9428,2.941,2.8813,2.8318,2.8262,2.8371,2.8371,2.3582,0.0,0.0,0.0,0.0,2.068,2.1507,2.2827,2.2304,2.2177,2.2344,2.2432,0.0,0.0,0.0,0.0,0.0,0.0,2.2809,2.3583,2.5706,2.7067,2.778,2.7783,2.8155,2.8814,2.8257,2.7609,2.69,2.5772,2.2533,1.7446,0.0,0.0,0.0,0.0,2.215,2.3805,2.4996,2.527,2.4669,2.4998,2.4898,2.4288,2.4654,2.4122,2.2654,2.3205,2.252,2.0308,1.9063,0.0,0.0,0.0,0.0,0.0,0.0,0.0,0.0,0.0,0.0,0.0,0.0,0.0,0.0,0.0,0.0,0.0,0.0,0.0,1.2713,1.3682,1.4983,0.0,0.0,0.0,0.0,0.0,0.0,0.0,0.0,0.0,2.9973,2.9238,2.9294,0.0,0.0,3.3008,3.2209,3.2397,3.2702,3.2958,3.2774,0.0,3.2923,3.2464,3.2197,3.2587,3.308,3.3297,3.3056,3.321,3.3284,3.3002,3.3176,3.3174,3.2722,3.2339,3.2112,3.2089,3.1932,3.1805,3.1805,3.1825,3.1787,2.6548,2.3288,2.3611,2.4054,2.4561,2.4892,2.5648,2.6591,2.6163,2.6196,2.6612,2.6713,2.6292,2.5441,2.5101,0.0,0.0,0.0,2.5703,2.5989,2.7009,2.7832,2.8422,2.8098,2.8429,2.9272,2.8848,2.8622,2.8616,2.8645,2.6205,2.151,0.0,2.2158,2.2223,2.3252,2.4277,2.5295,2.5838,2.5702,2.4845,2.4981,2.4843,2.4333,2.4818,2.4734,2.4082,2.4524,2.4168,2.2783,2.144,1.9767,0.0,0.0,0.0,0.0,0.0,0.0,0.0,0.0,0.0,0.0,0.0,1.3678,1.1765,0.0,0.0,0.0,1.1751,1.2924,1.5804,1.6576,0.0,0.0,0.0,0.0,0.0,0.0,0.0,2.8634,2.9819,3.11,3.2763,3.1905,3.1609,3.2924,3.3554,3.371,3.3164,0.0,3.3476,3.3808,3.3884,3.4035,3.4328,3.397,3.3826,3.4353,3.4431,3.4431,3.4431,3.4431,3.4431,3.4431,3.4431,3.4431,3.4431,3.4359,3.4049,3.3425,3.3312,3.333,3.333,3.3351,3.335,2.864,2.8068,2.8742,2.8863,2.8707,2.9502,2.9813,2.9852,2.9874,3.0377,3.1133,3.1347,3.0977,3.0183,2.9394,0.0,2.8098,2.9634,2.9888,2.9244,2.9364,2.9448,2.9462,2.871,2.8761,2.9618,2.9475,2.9443,2.9522,2.9452,2.868,2.7265,2.7225,2.7107,2.6909,2.6948,2.7005,2.7021,2.7,2.6589,2.5728,2.4875,2.4389,2.4312,2.4389,2.4757,2.5452,2.5561,2.5223,2.4439,2.3517,2.1898,1.9523,0.0,0.0,0.0,0.0,0.0,0.0,0.0,0.0,0.0,0.0,0.0,0.0,0.0,0.0,0.0,1.4624,0.0,1.9019,1.9483,0.0,0.0,0.0,2.4085,2.5996,2.7525,2.9382,3.1896,0.0,0.0,3.4488,3.4474,3.4418,3.4671,3.4014,3.378,3.4495,3.3996,3.38,3.4598,3.4758,3.5039,3.5605,3.5758,3.5768,3.5804,3.5976,3.5899,3.5895,3.5914,3.5972,3.5894,3.5991,3.5952,3.5991,3.5872,3.5504,3.394,3.3667,3.3649,3.3726,3.3746,3.3764,3.1805,3.1655,3.1843,3.0449,2.8121,2.8316,2.8393,2.8451,2.9067,2.9793,3.0631,3.1312,3.1856,3.2205,3.2083,3.1602,3.0856,3.1301,3.1063,3.0382,3.0965,3.1276,3.135,3.1145,3.1192,3.1372,3.0106,2.9845,3.0483,2.9859,2.9684,2.9939,2.9958,2.894,2.7075,2.7579,2.7917,2.7946,2.7965,2.7555,2.6696,2.5817,2.5036,2.4391,2.5036,2.5132,2.4735,2.532,2.5572,2.5332,2.3902,2.2536,2.1293,1.816,0.0,0.0,0.0,0.0,0.0,0.0,0.0,0.0,0.0,1.8491,1.4395,0.0,1.9138,0.0,1.9172,2.0032,2.0193,2.1927,0.0,0.0,2.6128,2.7427,3.1043,3.0671,3.1086,3.3617,3.3891,3.431,3.5376,3.5453,3.5424,3.5498,3.5367,3.5129,3.471,3.5049,3.5344,3.5513,3.5563,3.5689,3.5846,3.5928,3.5916,3.5937,3.5917,3.5934,3.5996,3.6011,3.6011,3.6011,3.6011,3.6011,3.6011,3.6011,3.5895,3.5465,3.5387,3.5387,3.5387,3.5368,3.5367,3.4141,3.4146,3.4182,3.311,3.1349,3.0505,3.0136,3.0205,3.0614,3.1077,3.1587,3.2116,3.2625,3.3027,3.3126,3.2884,3.2438,3.2475,3.2238,3.1817,3.1902,3.196,3.1966,3.1633,3.1691,3.2103,3.1166,3.115,3.1934,3.1172,3.1016,3.1465,3.1074,3.0175,2.8825,2.9195,2.9236,2.8887,2.8496,2.7871,2.7012,2.6523,2.5859,2.5039,2.543,2.5469,2.4999,2.5429,2.5526,2.5132,2.4193,2.3293,2.2435,1.9909,1.7992,0.0,0.0,0.0,0.0,0.0,0.0,0.0,0.0,0.0,0.0,0.0,2.2031,2.1517,2.2696,2.3763,2.4394,2.5729,2.7633,3.0193,2.9356,2.9989,3.3451,3.2667,3.267,3.4832,3.508,3.541,3.6263,3.6474,3.6669,3.6923,3.7196,3.6828,3.5494,3.5578,3.5854,3.5867,3.5873,3.5898,3.5892,3.5894,3.588,3.5892,3.5894,3.5916,3.5937,3.5954,3.5969,3.5969,3.5961,3.6012,3.6011,3.6011,3.6011,3.6011,3.6011,3.6011,3.6011,3.6011,3.6011,3.6013,3.6019,3.5963,3.5953,3.5827,3.4042,3.3312,3.3354,3.3416,3.3459,3.3526,3.3639,3.3619,3.3524,3.342,3.337,3.338,3.3272,3.3268,3.3352,3.2669,3.2419,3.248,3.1686,3.1734,3.25,3.2305,3.2598,3.3359,3.2598,3.2187,3.2148,3.1425,3.0995,3.0878,3.0878,3.0507,2.9766,2.8906,2.8086,2.7363,2.7109,2.6641,2.5918,2.5762,2.5703,2.5703,2.5703,2.5351,2.4608,2.447,2.4059,2.3276,2.1673,2.0695,0.0,1.9058,0.0,0.0,0.0,0.0,0.0,0.0,0.0,0.0,2.3631,2.4773,2.4784,2.5681,2.7157,2.9385,2.9664,3.0688,3.2943,3.1955,3.2032,3.4441,3.4109,3.4264,3.5952,3.6144,3.6438,3.7156,3.7525,3.7914,3.8251,3.8708,3.8289,3.6619,3.6234,3.6275,3.6142,3.6186,3.6419,3.6374,3.6306,3.6309,3.6276,3.6336,3.6221,3.6325,3.6322,3.6288,3.6308,3.6404,3.6395,3.6331,3.637,3.6368,3.6462,3.648,3.6383,3.6089,3.6011,3.6011,3.7826,3.773,3.7068,3.6811,3.676,3.5705,3.526,3.5318,3.5951,3.6232,3.6234,3.6268,3.5877,3.5196,3.4591,3.4335,3.4292,3.3656,3.3744,3.4406,3.4254,3.4568,3.5175,3.4374,3.4062,3.4141,3.2871,3.2617,3.3379,3.2578,3.2167,3.2117,3.1941,3.1502,3.0774,0.0,0.0,0.0,2.9805,2.9277,2.9062,2.7734,2.6914,2.6758,2.6074,0.0,2.5703,2.5703,2.5624,2.5448,2.4781,0.0,0.0,0.0,0.0,0.0,0.0,0.0,0.0,0.0,0.0,0.0,2.4058,2.3827,2.2087,2.4828,2.6958,2.7445,2.8845,2.9906,3.0414,3.1082,3.199,3.3116,3.3021,3.3819,3.6226,3.5836,3.5991,3.7685,3.7918,3.7957,3.8151,3.8564,3.876,3.8561,3.8877,3.8838,3.8076,3.786,3.7853,3.7842,3.7737,3.7891,3.7944,3.7854,3.7762,3.7929,3.7924,3.7902,3.7893,3.7924,3.795,3.793,3.8031,3.7982,3.7988,3.8046,3.7927,3.8069,3.8063,3.7692,3.6305,3.6031,3.6011,3.9682,3.9646,3.926,3.9096,0.0,3.8647,3.8472,3.8371,3.6984,3.6436,3.6463,3.6481,3.6259,3.5819,3.5449,3.5298,3.5276,3.4862,3.4687,3.4707,3.4707,3.4922,3.5351,3.4902,3.4922,3.5312,3.4492,3.4257,3.4584,3.3783,3.3363,3.3272,3.2881,3.2248,3.135,3.0923,3.0732,3.0803,3.0353,2.9943,2.9493,2.8634,2.7794,2.6974,2.6524,0.0,0.0,0.0,0.0,0.0,0.0,0.0,0.0,0.0,0.0,2.363,2.3258,2.3189,2.3634,2.4475,2.5125,2.5549,2.6367,2.6476,2.56,2.766,2.9285,3.0028,3.16,3.2403,3.2069,3.3116,3.4223,3.5041,3.5177,3.5879,3.7335,3.7353,3.743,3.8248,3.8773,3.9043,3.9043,3.963,3.9902,3.9686,3.9863,3.9921,3.9608,3.8909,3.8382,3.8352,3.8378,3.8387,3.8387,3.8387,3.8415,3.8397,3.8385,3.8419,3.8452,3.8461,3.8457,3.8458,3.8473,3.8513,3.8505,3.8513,3.8515,3.8531,3.8561,3.8377,3.7438,3.7281,3.7281,4.1117,4.1118,4.1171,4.1191,4.1191,4.1191,4.1191,4.0996,3.8031,0.0,0.0,3.6654,3.6599,3.6444,3.6288,3.6229,3.623,3.6055,3.5625,3.4941,3.4921,3.4824,3.4706,3.4822,3.5192,3.574,3.5896,3.5948,3.5847,3.5143,3.4714,3.4451,3.3838,3.3053,3.2191,3.1339,3.0892,3.0895,3.0759,3.0337,2.9652,2.9475,2.8734,2.7367,2.7191,2.6783,2.6067,2.6055,2.5707,2.5044,2.4992,2.5,2.5063,2.5023,2.5609,2.6978,2.7095,2.7412,2.8116,2.8172,2.7941,2.7375,2.8222,2.9094,2.9814,3.0381,3.1197,3.2339,3.3487,3.4051,3.3973,3.5018,3.6205,3.7217,3.7333,3.7664,3.8482,3.8637,3.8676,3.887,3.9509,3.9895,3.9934,4.0441,4.0888,4.0888,4.0791,4.0888,4.0733,3.9764,3.8987,3.8987,3.9084,3.8928,3.8872,3.8928,3.8853,3.8974,3.8933,3.8831,3.8842,3.8846,3.884,3.8979,3.8888,3.8989,3.8984,3.9063,3.8943,3.8945,3.8981,3.9034,3.9015,3.9034,3.8916,4.1191,4.1191,4.1191,4.1191,4.1191,4.1191,4.1191,4.1152,4.0582,3.9975,3.9352,3.9353,3.8944,3.8183,3.7461,3.7129,3.707,3.6348,3.5918,3.582,3.5753,3.5336,3.4673,3.5307,3.5349,3.4866,3.5505,3.5811,3.5805,3.5685,3.5247,3.4584,3.4379,3.3856,3.2962,3.2084,3.1641,3.1624,3.1026,3.065,3.0514,2.9789,2.9299,2.9046,2.8301,2.7892,2.7736,2.7716,2.7722,2.7651,2.7642,2.7656,2.7653,2.7602,2.7726,2.7919,2.7934,2.799,2.8118,2.8115,2.8385,2.906,3.0531,3.1502,3.16,3.1061,3.1665,3.3819,3.3392,3.38,3.609,3.6127,3.6593,3.7977,3.8231,3.8559,3.9409,3.9528,3.9742,4.0344,4.0655,4.0691,4.0674,4.081,4.0888,4.0888,4.0888,4.0888,4.0849,4.0713,4.0558,4.0538,4.0558,4.0558,4.0366,4.0519,4.0402,4.0538,4.0441,4.0344,4.0346,4.0341,4.0332,4.0481,4.0368,4.0455,4.0523,4.0638,4.0499,4.0449,4.0449,4.05,4.0479,4.0498,4.0154,4.2031,4.1289,4.166,4.1601,4.1191,4.1191,4.119,4.1146,4.1108,4.0937,4.0625,4.0605,4.039,4.0,3.959,3.914,3.8645,3.8235,3.7524,3.6626,3.6547,3.6344,3.5974,3.5854,3.5612,3.5288,3.5616,3.5541,3.5178,3.5523,3.5541,3.5146,3.4698,3.4226,3.3772,3.2933,3.2507,3.2471,3.1262,3.0643,3.0644,3.0251,2.9822,2.9357,2.8946,2.8542,2.8125,2.8115,2.8108,2.814,2.814,2.8157,2.8155,2.8147,2.835,2.8746,2.8374,2.8511,2.9467,2.9525,2.9892,3.0764,3.197,3.2708,3.2708,3.2749,3.3237,3.4402,3.4694,3.5313,3.636,3.7292,3.8244,3.9004,3.9489,3.9919,4.0264,4.0342,4.0519,4.0849,4.0888,4.0888,4.0888,4.0888,4.0888,4.0888,4.0888,4.0888,4.0888,4.0888,4.0888,4.0888,4.0888,4.0888,4.0888,4.0888,4.0888,4.0888,4.0888,4.0888,4.0888,4.0888,4.0888,4.0888,4.0888,4.0904,4.0931,4.0969,4.0995,4.0993,4.0987,4.0988,4.0976,4.0981,4.0551,4.2948,4.1815,4.2398,4.2162,4.144,4.142,4.1294,4.1077,4.1077,4.1111,4.1146,4.1167,4.1167,4.1147,4.1167,4.0748,4.0141,4.006,3.9198,3.7801,3.7666,3.7465,3.7055,3.6538,3.6243,3.6038,3.5864,3.5406,3.4902,3.5204,3.5514,3.5618,3.501,3.4681,3.4681,3.3825,3.3397,3.3303,3.1937,3.1091,3.0897,3.0716,3.0271,2.9661,2.9579,2.9291,2.8709,2.8656,2.8658,2.8651,2.8667,2.8599,2.8411,2.8392,2.8701,2.9249,2.8764,2.9055,3.0537,3.0906,3.1351,3.2221,3.2924,3.3468,3.3856,3.4167,3.4519,3.4888,3.5935,3.6651,3.7038,3.8419,3.9778,3.9973,4.0517,4.081,4.0888,4.0888,4.0888,4.0888,4.0888,4.0888,4.0888,4.0888,4.0888,4.0888,4.0888,4.0888,4.0888,4.0888,4.0888,4.0888,4.0888,4.0888,4.0888,4.0888,4.0888,4.0888,4.0888,4.0888,4.0888,4.0888,4.0888,4.0888,4.0888,4.089,4.0895,4.0941,4.097,4.0965,4.0959,4.0968,4.0962,4.0977,4.0816,4.353,4.3388,4.3369,4.2914,4.2143,4.2122,4.173,4.1099,4.1019,4.1022,4.1067,4.1009,4.1011,4.1028,4.1013,4.0952,4.0845,4.0883,4.0349,3.9492,3.94,3.8551,3.7294,3.7675,3.7547,3.6784,3.6133,3.5749,3.5501,3.4879,3.4927,3.561,3.5629,3.5532,3.5474,3.472,3.4275,3.4278,3.3413,3.2573,3.1791,3.1016,3.0573,3.0498,3.0476,3.0445,3.0278,3.0356,3.0361,3.0373,3.0378,3.0084,2.9385,2.9288,2.9325,2.9445,2.9368,2.9719,3.0653,3.1446,3.2262,3.3058,3.3293,3.3954,3.5193,3.467,3.4614,3.5486,3.5853,3.7018,3.9002,3.9582,4.0031,4.0616,4.081,4.0888,4.0888,4.0888,4.0888,4.0888,4.0888,4.0888,4.0888,4.0888,4.0888,4.0888,4.0888,4.0888,4.0888,4.0888,4.0888,4.0888,4.0888,4.0888,4.0888,4.0888,4.0888,4.0888,4.0888,4.0888,4.0888,4.0888,4.0888,4.0888,4.0888,4.0888,4.0888,4.09,4.0906,4.0928,4.0917,4.0902,4.0909,4.0907,4.0824,4.4478,4.3595,4.4057,4.3753,4.3013,4.2953,4.2772,4.2395,4.1872,4.163,4.1521,4.1092,4.0924,4.0989,4.0992,4.0988,4.0925,4.0925,4.0738,4.0369,4.0327,3.9921,3.9309,3.9002,3.8511,3.7712,3.7326,3.6651,3.5684,3.4817,3.4604,3.4897,3.4933,3.5184,3.5629,3.5361,3.5165,3.5126,3.4344,3.3742,3.3323,3.2078,3.1364,3.1312,3.0877,3.0626,3.066,3.0651,3.0665,3.0665,3.0684,3.0552,3.0187,3.0604,3.0891,3.0959,3.1446,3.1621,3.1504,3.2708,3.341,3.3332,3.4223,3.4726,3.4379,3.4787,3.5525,3.6457,3.7292,3.8399,3.9545,4.0128,4.0555,4.083,4.0888,4.0888,4.0888,4.0888,4.0888,4.0888,4.0888,4.0888,4.0888,4.0888,4.0888,4.0888,4.0888,4.0888,4.0888,4.0888,4.0888,4.0888,4.0888,4.0888,4.0888,4.0888,4.0888,4.0888,4.0888,4.0888,4.0888,4.0888,4.0888,4.0888,4.0888,4.0888,4.0888,4.0888,4.0888,4.0888,4.0888,4.0888,4.0888,4.0888,4.0913,4.5362,4.4359,4.4846,4.458,4.3817,4.3798,4.3622,4.3305,4.2698,4.2418,4.2267,4.149,4.1178,4.1226,4.1066,4.0913,4.0871,4.0866,4.0862,4.08,4.0794,4.0794,4.0719,4.0197,3.9536,3.8911,3.8389,3.7444,3.6071,3.5165,3.4764,3.4731,3.4512,3.4723,3.527,3.5342,3.5455,3.5635,3.5044,3.4798,3.4618,3.3376,3.2509,3.223,3.1661,3.1316,3.139,3.1375,3.1404,3.1402,3.141,3.1299,3.1096,3.161,3.1938,3.2083,3.3041,3.3254,3.2417,3.3701,3.4266,3.3798,3.4651,3.4942,3.4653,3.5233,3.6379,3.778,3.8948,3.9761,4.0031,4.0555,4.0869,4.0888,4.0888,4.0888,4.0888,4.0888,4.0888,4.0888,4.0888,4.0888,4.0888,4.0888,4.0888,4.0888,4.0888,4.0888,4.0888,4.0888,4.0888,4.0888,4.0888,4.0888,4.0888,4.0888,4.0888,4.0888,4.0888,4.0888,4.0888,4.0888,4.0888,4.0888,4.0888,4.0888,4.0888,4.0888,4.0888,4.0888,4.0888,4.0888,4.0888,4.0888,4.0888,4.5968,4.5855,4.5806,4.5273,4.456,4.4547,4.4098,4.3479,4.3302,4.325,4.3131,4.2318,4.1941,4.1869,4.1204,4.0815,4.0806,4.0793,4.0809,4.0794,4.0794,4.0794,4.0794,4.0755,4.0697,4.0349,3.9088,3.7867,3.6867,3.6035,3.5643,3.5608,3.4874,3.4462,3.4589,3.4581,3.4897,3.5504,3.5507,3.559,3.5539,3.4783,3.394,3.3298,3.307,3.2947,3.3007,3.3057,3.303,3.305,3.3029,3.2767,3.2066,3.2025,3.2103,3.226,3.3546,3.4091,3.3468,3.4033,3.4422,3.4344,3.407,3.4478,3.6226,3.6263,3.7096,3.9288,4.0136,4.0701,4.0745,4.0806,4.0888,4.0888,4.0888,4.0888,4.0888,4.0888,4.0888,4.0888,4.0888,4.0888,4.0888,4.0888,4.0888,4.0907,4.0907,4.0927,4.0927,4.0907,4.0985,4.0907,4.0888,4.0888,4.0888,4.0888,4.0888,4.0888,4.0888,4.0888,4.0888,4.0888,4.0888,4.0888,4.0888,4.0888,4.0888,4.0888,4.0888,4.0888,4.0888,4.0888,4.0888,4.0888,4.0888,4.5864,4.5858,4.5827,4.5629,4.5378,4.5355,4.5181,4.4875,4.4346,4.4133,4.3978,4.3205,4.2531,4.1993,4.1699,4.1277,4.0832,4.0794,4.0794,4.0794,4.0794,4.0794,4.0794,4.0794,4.0794,4.0697,4.0158,3.9139,3.7807,3.6936,3.6526,3.6391,3.5653,3.5224,3.5146,3.4715,3.463,3.4904,3.4938,3.5191,3.5674,3.5489,3.5171,3.4835,3.38,3.3272,3.3256,3.3278,3.3262,3.3262,3.3289,3.3157,3.2924,3.3332,3.3856,3.434,3.4478,3.4363,3.415,3.4325,3.4247,3.3876,3.5041,3.5738,3.6399,3.7292,3.8461,3.9465,4.0308,4.0771,4.0837,4.0876,4.0888,4.0888,4.0886,4.0881,4.0888,4.0888,4.0888,4.0888,4.0888,4.0888,4.0944,4.0907,4.0888,4.0966,4.1374,4.1471,4.116,4.1357,4.1587,4.1043,4.0888,4.0888,4.0888,4.0888,4.0888,4.0888,4.0888,4.0888,4.0888,4.0888,4.0888,4.0888,4.0888,4.0888,4.0888,4.0888,4.0888,4.0888,4.0888,4.0888,4.0888,4.0888,4.0888,4.5803,4.5803,4.5803,4.5803,4.5803,4.5803,4.5803,4.5745,4.522,4.5003,4.481,4.4094,4.3379,4.2841,4.2531,4.197,4.12,4.0929,4.0794,4.0794,4.0794,4.0794,4.0794,4.0794,4.08,4.0809,4.0809,4.0163,3.9154,3.823,3.7687,3.7368,3.6535,3.6125,3.6047,3.5577,3.5299,3.5265,3.5055,3.5124,3.5359,3.5124,3.4998,3.4843,3.3893,3.3584,3.4051,3.4109,3.4109,3.4107,3.4107,3.4107,3.4148,3.4342,3.4752,3.5233,3.481,3.4365,3.4189,3.4344,3.4383,3.4206,3.5605,3.6613,3.7018,3.8437,3.9359,3.9929,4.0352,4.076,4.0781,4.0834,4.0878,4.0891,4.0844,4.0823,4.0866,4.0868,4.0861,4.0898,4.0878,4.1017,4.1345,4.1327,4.1466,4.1658,4.2287,4.2287,4.1995,4.2151,4.2306,4.1529,4.1376,4.1218,4.1043,4.0927,4.0927,4.0927,4.0888,4.0888,4.0888,4.0888,4.0888,4.0888,4.0888,4.0888,4.0888,4.0888,4.0888,4.0888,4.0888,4.0888,4.0888,4.0888,4.0888,4.5803,4.5803,4.5803,4.5803,4.5803,4.5803,4.5803,4.5784,4.5765,4.5687,4.5552,4.4929,4.4501,4.4307,4.3611,4.2841,4.2015,4.138,4.0951,4.0813,4.0794,4.0794,4.0794,4.0794,4.0806,4.0805,4.0794,4.0775,4.0532,3.9782,3.9074,3.8331,3.757,3.7148,3.7106,3.6896,3.6881,3.6673,3.6107,3.5476,3.4566,3.4177,3.3837,3.3584,3.3448,3.4029,3.5445,3.5503,3.535,3.5445,3.5484,3.57,3.527,3.4789,3.448,3.4558,3.448,3.4089,3.3606,3.413,3.4847,3.5428,3.5874,3.7115,3.8823,3.9458,3.9899,4.0516,4.0715,4.0773,4.077,4.0745,4.0787,4.0876,4.0727,4.0688,4.0757,4.0794,4.0829,4.0885,4.0909,4.1347,4.2108,4.2147,4.2202,4.2906,4.3318,4.3342,4.3175,4.3313,4.3102,4.2483,4.2192,4.2034,4.1471,4.0966,4.0966,4.0966,4.0927,4.0888,4.0888,4.0888,4.0888,4.0888,4.0888,4.0888,4.0888,4.0888,4.0888,4.0888,4.0888,4.0888,4.0888,4.0888,4.0888,4.5803,4.5803,4.5803,4.5803,4.5803,4.5803,4.5803,4.5803,4.5803,4.5803,4.5745,4.5533,4.5123,4.4636,4.4288,4.374,4.2973,4.2663,4.1976,4.1013,4.0835,4.0816,4.0797,4.0797,4.08,4.0809,4.0808,4.0809,4.0754,4.0557,4.0317,3.9976,3.9236,3.8558,3.8024,3.7396,3.7059,3.7042,3.6815,3.6526,3.6293,3.6028,3.5333,3.4266,3.4111,3.4187,3.4088,3.4068,3.4088,3.4126,3.4089,3.4089,3.4031,3.3837,3.3957,3.4363,3.3955,3.3895,3.415,3.4404,3.4944,3.5816,3.6865,3.8103,3.9416,4.0081,4.0384,4.0599,4.0522,4.0519,4.0508,4.0476,4.0539,4.0672,4.0652,4.0611,4.0668,4.0697,4.0675,4.0808,4.1226,4.1775,4.2205,4.2273,4.2656,4.3372,4.3825,4.3998,4.3703,4.4107,4.4032,4.3297,4.3161,4.2966,4.2461,4.2112,4.2034,4.1704,4.1393,4.1005,4.0946,4.0888,4.0888,4.0888,4.0888,4.0888,4.0888,4.0888,4.0888,4.0888,4.0888,4.0888,4.0888,4.0888,4.0888,4.5803,4.5803,4.5803,4.5803,4.5803,4.5803,4.5803,4.5803,4.5803,4.5803,4.5803,4.5803,4.5533,4.5126,4.5059,4.4615,4.3898,4.3872,4.3114,4.1843,4.1375,4.1143,4.0872,4.0822,4.082,4.0797,4.0818,4.084,4.082,4.0877,4.0878,4.0767,4.0381,3.9878,3.9336,3.881,3.8421,3.8091,3.7761,3.743,3.71,3.6787,3.5933,3.4713,3.448,3.4089,3.3371,3.3291,3.3291,3.3291,3.3291,3.3429,3.3664,3.3548,3.3662,3.4208,3.4111,3.3992,3.448,3.514,3.5838,3.6828,3.8091,3.9201,3.992,4.0554,4.0622,4.0566,4.0465,4.0401,4.0393,4.0377,4.04,4.0453,4.0469,4.0496,4.0546,4.0831,4.0854,4.0987,4.1579,4.2475,4.3164,4.3032,4.3362,4.4014,4.4586,4.4854,4.46,4.489,4.4585,4.4263,4.4035,4.3782,4.3488,4.3294,4.318,4.2617,4.2015,4.1412,4.1024,4.0927,4.0888,4.0888,4.0888,4.0888,4.0888,4.0888,4.0888,4.0888,4.0985,4.0888,4.0888,4.0888,4.0888,4.5803,4.5803,4.5803,4.5803,4.5803,4.5803,4.5803,4.5803,4.5803,4.5803,4.5803,4.5803,4.5784,4.5794,4.5721,4.5335,4.4799,4.473,4.4283,4.3394,4.2679,4.192,4.0937,4.0834,4.0834,4.0804,4.0845,4.088,4.088,4.0885,4.09,4.0866,4.083,4.0869,4.0616,4.0791,4.0266,3.9604,3.8965,3.8229,3.745,3.669,3.5777,3.4888,3.481,3.448,3.3818,3.3701,3.3526,3.3332,3.3291,3.3586,3.4072,3.3703,3.3682,3.4558,3.4596,3.4771,3.5082,3.6246,3.7411,3.8287,3.9031,4.0026,4.0614,4.0651,4.0641,4.0662,4.0511,4.0397,4.0385,4.0383,4.0398,4.0415,4.0399,4.0387,4.0526,4.1191,4.1323,4.1226,4.2086,4.3474,4.4758,4.4342,4.4573,4.5147,4.5583,4.5548,4.5641,4.5511,4.5476,4.521,4.4816,4.468,4.4414,4.4382,4.4226,4.3646,4.2966,4.2287,4.1395,4.114,4.114,4.1102,4.114,4.1082,4.1238,4.1488,4.1374,4.1296,4.1238,4.1005,4.0907,4.0907,4.0997,4.5803,4.5803,4.5803,4.5803,4.5803,4.5803,4.5803,4.5803,4.5803,4.5803,4.5803,4.5803,4.5803,4.5807,4.5864,4.5754,4.5566,4.56,4.5221,4.4497,4.425,4.2767,4.1183,4.0834,4.0818,4.0815,4.0875,4.0902,4.0885,4.0905,4.0898,4.0886,4.0888,4.0888,4.0888,4.0888,4.0808,4.0614,4.0383,3.98,3.9079,3.8768,3.7914,3.6556,3.642,3.5993,3.5233,3.5136,3.4495,3.339,3.3291,3.3371,3.3759,3.3604,3.4128,3.5272,3.5544,3.6071,3.7122,3.7743,3.8443,3.9213,3.9497,3.9904,4.0735,4.0691,4.0593,4.0546,4.043,4.0379,4.0335,4.0351,4.0568,4.1008,4.0745,4.0649,4.1126,4.1403,4.1661,4.2219,4.3082,4.4169,4.4863,4.5097,4.5017,4.5411,4.5552,4.5587,4.5708,4.5775,4.5602,4.5673,4.5472,4.5464,4.5407,4.5423,4.5198,4.4656,4.4054,4.3452,4.2403,4.1492,4.159,4.1687,4.1879,4.1898,4.2459,4.2906,4.2498,4.1917,4.1879,4.182,4.1179,4.0968,4.1146,4.5803,4.5803,4.5803,4.5803,4.5803,4.5803,4.5803,4.5803,4.5803,4.5803,4.5803,4.5803,4.5814,4.5831,4.5887,4.5918,4.5949,4.5981,4.5731,4.5356,4.4909,4.3492,4.1861,4.139,4.1193,4.0844,4.0876,4.0881,4.0886,4.09,4.0886,4.0888,4.0888,4.0888,4.0888,4.0888,4.0888,4.0888,4.0888,4.0653,4.0245,4.0206,3.9526,3.8419,3.8166,3.7797,3.7042,3.6887,3.609,3.4787,3.4359,3.4495,3.4866,3.4886,3.5527,3.6787,3.6887,3.7392,3.8192,3.8715,3.9143,3.9578,3.9816,4.0283,4.0657,4.0638,4.0481,4.0504,4.0412,4.0344,4.0391,4.0592,4.0998,4.1366,4.138,4.1533,4.203,4.2398,4.2565,4.3042,4.3806,4.4685,4.5264,4.5283,4.5329,4.5376,4.5361,4.5448,4.5575,4.5617,4.5673,4.5704,4.5731,4.5629,4.5603,4.5596,4.564,4.5189,4.4774,4.4258,4.3422,4.2279,4.2364,4.2558,4.2675,4.2889,4.3411,4.3683,4.3216,4.2811,4.2775,4.2597,4.2073,4.1607,4.1708,4.5803,4.5803,4.5803,4.5803,4.5803,4.5803,4.5803,4.5803,4.5803,4.5803,4.5807,4.5807,4.585,4.59,4.5918,4.5929,4.5994,4.5983,4.5977,4.5708,4.5242,4.409,4.2787,4.2376,4.2007,4.1483,4.1158,4.1099,4.1119,4.1043,4.0888,4.0888,4.0888,4.0888,4.0888,4.0888,4.0888,4.0888,4.0888,4.0869,4.0771,4.0733,4.0325,3.9837,3.9643,3.9353,3.8829,3.8579,3.7974,3.6436,3.6205,3.6418,3.7061,3.718,3.7607,3.8207,3.8404,3.852,3.8788,3.9495,3.9755,3.9871,4.0373,4.0757,4.0717,4.0548,4.0454,4.0523,4.0413,4.0408,4.0602,4.1094,4.1609,4.1972,4.2545,4.2865,4.3152,4.3629,4.3744,4.3233,4.4499,4.5111,4.5283,4.5283,4.5288,4.5339,4.5304,4.5371,4.5462,4.5498,4.5543,4.5573,4.5611,4.5657,4.5657,4.5677,4.5733,4.5611,4.5241,4.4787,4.4325,4.3598,4.352,4.3547,4.3607,4.3782,4.4112,4.4074,4.386,4.3704,4.3646,4.3549,4.3352,4.2886,4.2765,4.5803,4.5803,4.5803,4.5803,4.5803,4.5803,4.5803,4.5803,4.5803,4.5807,4.581,4.5854,4.589,4.5903,4.5959,4.5989,4.6,4.5986,4.5982,4.5963,4.5863,4.5203,4.419,4.3607,4.3139,4.2711,4.2189,4.1939,4.1823,4.1315,4.0907,4.0946,4.0927,4.0888,4.0888,4.0888,4.0888,4.0888,4.0888,4.0888,4.0888,4.0888,4.0788,4.057,4.059,4.0536,4.0422,4.0366,4.0169,3.9587,3.8594,3.7968,3.8149,3.819,3.8594,3.9172,3.9429,3.9664,4.0196,4.036,4.0524,4.0428,4.0428,4.0526,4.0631,4.0492,4.0418,4.0442,4.0408,4.0678,4.1189,4.1385,4.2125,4.3018,4.3553,4.3992,4.4494,4.4317,4.4222,4.4647,4.4972,4.5283,4.5283,4.5283,4.5283,4.5288,4.529,4.5315,4.5351,4.5385,4.5419,4.5471,4.5504,4.5549,4.5547,4.5601,4.568,4.5746,4.5496,4.5312,4.4853,4.4513,4.4273,4.4317,4.4501,4.4695,4.4892,4.5144,4.5086,4.4812,4.4501,4.4326,4.4132,4.3857,4.3867,4.5803,4.5803,4.5803,4.5803,4.5803,4.5803,4.5803,4.5803,4.5803,4.5837,4.5854,4.589,4.5916,4.5928,4.598,4.6,4.5997,4.5991,4.5982,4.5982,4.5963,4.5766,4.5436,4.4831,4.4365,4.3624,4.3063,4.283,4.2578,4.1995,4.1551,4.1432,4.1143,4.0907,4.0888,4.0886,4.0888,4.0888,4.0888,4.0888,4.0888,4.0888,4.0881,4.0858,4.085,4.085,4.0809,4.0811,4.0832,4.0653,4.0019,3.9534,3.9563,3.9567,3.9806,4.0101,4.025,4.0351,4.069,4.0781,4.0716,4.0621,4.0473,4.0469,4.0481,4.0404,4.0375,4.0483,4.0765,4.123,4.2001,4.256,4.3228,4.3744,4.4374,4.4819,4.5092,4.4876,4.4743,4.5187,4.5244,4.5283,4.5283,4.5283,4.5283,4.5288,4.5288,4.5309,4.5309,4.5334,4.5324,4.5355,4.5385,4.5419,4.5424,4.5485,4.5575,4.5643,4.5603,4.5557,4.5388,4.5115,4.4853,4.4998,4.5184,4.5414,4.563,4.5921,4.5941,4.5591,4.5242,4.5028,4.4931,4.4933,4.4999,4.5803,4.5803,4.5803,4.5807,4.5814,4.5814,4.5821,4.5824,4.5821,4.5867,4.5896,4.59,4.5912,4.5959,4.5928,4.5958,4.5964,4.593,4.5919,4.5999,4.5972,4.5944,4.5836,4.5669,4.5203,4.3938,4.3763,4.3721,4.3469,4.2869,4.2425,4.225,4.1531,4.1276,4.116,4.091,4.0878,4.0876,4.0856,4.0844,4.0844,4.0846,4.084,4.0775,4.0757,4.076,4.0757,4.0763,4.079,4.0863,4.0801,4.0809,4.0831,4.0864,4.0846,4.0784,4.0715,4.0673,4.0646,4.0684,4.0621,4.041,4.0392,4.0387,4.0381,4.054,4.0646,4.0885,4.1273,4.2068,4.2884,4.3362,4.3873,4.4317,4.4914,4.5225,4.5283,4.5283,4.5264,4.5264,4.5283,4.5283,4.5283,4.5283,4.5283,4.5283,4.5283,4.5283,4.5283,4.5283,4.5283,4.5283,4.5324,4.5339,4.5365,4.538,4.5462,4.5504,4.5552,4.5603,4.5644,4.5438,4.5239,4.5617,4.5828,4.5936,4.5952,4.5963,4.5982,4.5982,4.5885,4.5552,4.5672,4.5988,4.5953,4.5803,4.5803,4.5803,4.5821,4.5886,4.5886,4.5874,4.5893,4.5851,4.5896,4.5883,4.5841,4.5814,4.5821,4.5783,4.5816,4.5877,4.5831,4.5858,4.5947,4.5926,4.5934,4.5964,4.5947,4.5709,4.5494,4.4957,4.4558,4.4382,4.3741,4.3328,4.308,4.2405,4.1998,4.1747,4.1313,4.1061,4.1108,4.1011,4.091,4.0858,4.077,4.0732,4.0648,4.0635,4.0638,4.0638,4.0635,4.0645,4.0642,4.0648,4.0655,4.0672,4.0747,4.0772,4.0757,4.0707,4.0646,4.0589,4.0508,4.0465,4.0385,4.0423,4.0433,4.0553,4.096,4.1332,4.1638,4.2159,4.2908,4.3701,4.4025,4.4374,4.4838,4.513,4.5283,4.5283,4.5283,4.5283,4.5283,4.5283,4.5283,4.5283,4.5283,4.5283,4.5283,4.5283,4.5283,4.5283,4.5283,4.5283,4.5283,4.5283,4.5293,4.5298,4.5304,4.5345,4.5365,4.54,4.5453,4.5495,4.5527,4.5616,4.5759,4.589,4.5926,4.595,4.5983,4.5982,4.5982,4.5982,4.6004,4.6012,4.6047,4.6119,4.583,4.5817,4.5817,4.5769,4.5754,4.5754,4.5742,4.5738,4.5742,4.573,4.5734,4.5711,4.5708,4.5727,4.5708,4.5727,4.5757,4.5742,4.576,4.5811,4.5807,4.5816,4.5858,4.5841,4.5835,4.5715,4.5425,4.5297,4.5311,4.4579,4.4181,4.3885,4.3249,4.2809,4.2655,4.2363,4.2009,4.1928,4.1599,4.135,4.1194,4.0926,4.0599,4.0534,4.0539,4.05,4.0496,4.05,4.0553,4.0589,4.0537,4.0564,4.0628,4.0654,4.0639,4.0658,4.06,4.0546,4.0469,4.0415,4.0558,4.0955,4.094,4.1194,4.1509,4.1991,4.2316,4.2794,4.3037,4.3744,4.4565,4.4623,4.4895,4.5149,4.5283,4.5283,4.5283,4.5283,4.5283,4.5283,4.5283,4.5283,4.5283,4.5283,4.5283,4.5283,4.5283,4.5283,4.5283,4.5283,4.5283,4.5283,4.5283,4.5283,4.5283,4.5283,4.5283,4.5283,4.5288,4.5345,4.537,4.54,4.5495,4.5611,4.5727,4.5867,4.5931,4.595,4.5975,4.6004,4.6025,4.6037,4.6052,4.6073,4.6146,4.5847,4.577,4.577,4.5699,4.5616,4.5588,4.562,4.562,4.5633,4.562,4.5609,4.5592,4.5596,4.5632,4.5639,4.5616,4.566,4.562,4.5632,4.5696,4.5669,4.5676,4.5688,4.5684,4.5708,4.5715,4.5665,4.5786,4.5702,4.5242,4.4979,4.4637,4.4064,4.3585,4.3394,4.3081,4.3191,4.2903,4.2503,4.2121,4.1886,4.1337,4.0878,4.0878,4.0882,4.0974,4.1089,4.1112,4.1139,4.1153,4.1079,4.102,4.1039,4.0956,4.0901,4.0861,4.07,4.0519,4.0634,4.065,4.1032,4.17,4.1753,4.2144,4.2545,4.2846,4.3343,4.405,4.4279,4.4451,4.5048,4.5239,4.5264,4.5283,4.5283,4.5283,4.5283,4.5283,4.5283,4.5283,4.5283,4.5283,4.5283,4.5283,4.5283,4.5283,4.5283,4.5283,4.5283,4.5283,4.5283,4.5283,4.5283,4.5283,4.5283,4.5283,4.5283,4.5283,4.5283,4.5309,4.5304,4.5309,4.5405,4.5517,4.5656,4.5803,4.586,4.5921,4.5946,4.5989,4.6054,4.6082,4.6075,4.6113,4.6165,4.5735,4.5616,4.562,4.561,4.558,4.5575,4.5628,4.5668,4.566,4.5692,4.5632,4.5571,4.5517,4.5504,4.5419,4.5443,4.5462,4.5438,4.549,4.5622,4.5575,4.556,4.5676,4.5684,4.564,4.5632,4.5648,4.5715,4.57,4.5568,4.5541,4.5314,4.4742,4.4276,4.414,4.3688,4.2971,4.2958,4.2857,4.2761,4.2706,4.2464,4.2389,4.2374,4.2355,4.2303,4.2216,4.2197,4.2274,4.2345,4.2408,4.247,4.2537,4.2546,4.2513,4.2078,4.1399,4.0653,4.1237,4.1399,4.1753,4.2436,4.2641,4.2698,4.3138,4.3629,4.4202,4.5053,4.5092,4.5067,4.5225,4.5283,4.5283,4.5283,4.5283,4.5283,4.5283,4.5283,4.5283,4.5283,4.5283,4.5283,4.5283,4.5283,4.5283,4.5283,4.5283,4.5283,4.5283,4.5283,4.5283,4.5283,4.5283,4.5283,4.5283,4.5283,4.5283,4.5283,4.5283,4.5302,4.5317,4.5328,4.5343,4.5472,4.5594,4.5683,4.5723,4.5775,4.5886,4.596,4.6025,4.6078,4.6113,4.6165,4.6219,4.5588,4.5531,4.5531,4.5514,4.5424,4.5438,4.5448,4.5467,4.5471,4.5471,4.5462,4.5424,4.539,4.538,4.5328,4.5324,4.5365,4.5314,4.5345,4.5448,4.5438,4.5434,4.5467,4.5491,4.5471,4.549,4.5491,4.5448,4.5508,4.5627,4.568,4.5552,4.53,4.5051,4.4869,4.4549,4.4379,4.4183,4.3824,4.3288,4.2967,4.2833,4.2813,4.2813,4.2832,4.287,4.287,4.2794,4.2794,4.2794,4.2794,4.2794,4.2775,4.2775,4.2756,4.2698,4.2183,4.1939,4.2187,4.225,4.2698,4.3233,4.3534,4.3725,4.4131,4.4475,4.48,4.5225,4.5283,4.5283,4.5283,4.5283,4.5283,4.5283,4.5283,4.5283,4.5283,4.5283,4.5283,4.5283,4.5283,4.5283,4.5283,4.5283,4.5283,4.5283,4.5283,4.5283,4.5283,4.5283,4.5283,4.5283,4.5283,4.5283,4.5283,4.5283,4.5283,4.5283,4.5283,4.5312,4.5343,4.5383,4.5379,4.5385,4.5476,4.5544,4.556,4.5688,4.584,4.591,4.5983,4.6056,4.6115,4.6209,4.6263,4.5462,4.5467,4.5462,4.5395,4.5283,4.5283,4.5288,4.5302,4.5293,4.5307,4.5283,4.5307,4.5307,4.5302,4.5307,4.5288,4.5283,4.5283,4.5283,4.5283,4.5283,4.5293,4.5324,4.5323,4.5323,4.5283,4.5329,4.5324,4.538,4.5457,4.5527,4.5472,4.5441,4.5404,4.537,4.5246,4.5141,4.5051,4.461,4.4108,4.3683,4.3525,4.352,4.3482,4.3424,4.3429,4.3424,4.3487,4.3506,4.3594,4.3656,4.3757,4.3766,4.3823,4.3784,4.3784,4.3578,4.3593,4.3517,4.3455,4.3616,4.4011,4.4355,4.4551,4.501,4.5283,4.5283,4.5283,4.5283,4.5283,4.5283,4.5283,4.5283,4.5283,4.5283,4.5283,4.5283,4.5283,4.5283,4.5283,4.5283,4.5283,4.5283,4.5283,4.5283,4.5283,4.5283,4.5283,4.5283,4.5283,4.5283,4.5283,4.5283,4.5283,4.5283,4.5283,4.5283,4.5302,4.5302,4.5323,4.5364,4.5389,4.5409,4.5414,4.5419,4.5485,4.5586,4.568,4.5777,4.5822,4.588,4.6017,4.6125,4.6228,4.6295,4.5298,4.5317,4.5323,4.5317,4.5283,4.5283,4.5283,4.5283,4.5283,4.5283,4.5283,4.5283,4.5283,4.5283,4.5283,4.5283,4.5283,4.5283,4.5283,4.5283,4.5283,4.5283,4.5283,4.5283,4.5283,4.5283,4.5283,4.5283,4.5288,4.5334,4.535,4.5333,4.5385,4.5348,4.5317,4.5314,4.5329,4.5283,4.5067,4.5067,4.4876,4.4876,4.4895,4.4939,4.5015,4.5116,4.5097,4.4923,4.4892,4.4986,4.4948,4.4988,4.4957,4.4994,4.4978,4.4978,4.4998,4.4998,4.4895,4.4413,4.4424,4.4901,4.5149,4.5067,4.5264,4.5283,4.5283,4.5283,4.5283,4.5283,4.5283,4.5283,4.5283,4.5283,4.5283,4.5283,4.5283,4.5283,4.5283,4.5283,4.5283,4.5283,4.5283,4.5283,4.5283,4.5283,4.5283,4.5283,4.5283,4.5283,4.5283,4.5283,4.5283,4.5283,4.5283,4.5283,4.5283,4.5307,4.5317,4.5329,4.5384,4.539,4.5434,4.5457,4.5499,4.5541,4.5564,4.5647,4.5685,4.5684,4.5764,4.5928,4.6054,4.6162,4.6236,4.5283,4.5283,4.5283,4.5283,4.5283,4.5283,4.5283,4.5283,4.5283,4.5283,4.5283,4.5283,4.5283,4.5283,4.5283,4.5283,4.5283,4.5283,4.5283,4.5283,4.5283,4.5283,4.5283,4.5283,4.5283,4.5283,4.5283,4.5283,4.5283,4.5283,4.5283,4.5302,4.5283,4.5302,4.5302,4.5283,4.5283,4.5283,4.5283,4.5283,4.5283,4.5283,4.5283,4.5283,4.539,4.5405,4.5395,4.5494,4.5556,4.5595,4.5607,4.5653,4.5715,4.5708,4.5708,4.5708,4.5712,4.5712,4.568,4.5194,4.5093,4.5116,4.5283,4.5293,4.5319,4.5312,4.5302,4.5283,4.5304,4.5329,4.5312,4.5307,4.5283,4.5283,4.5288,4.5298,4.5314,4.5329,4.5324,4.5339,4.5309,4.5283,4.5283,4.5283,4.5283,4.5283,4.5283,4.5283,4.5283,4.5283,4.5283,4.5283,4.5283,4.5283,4.5283,4.5283,4.5283,4.5317,4.5333,4.536,4.5404,4.5458,4.5481,4.5522,4.5544,4.5573,4.5586,4.5584,4.5624,4.5685,4.5765,4.5872,4.5974,4.6087,4.6143,4.5283,4.5283,4.5283,4.5283,4.5283,4.5283,4.5283,4.5283,4.5283,4.5283,4.5283,4.5283,4.5283,4.5283,4.5283,4.5283,4.5283,4.5283,4.5283,4.5283,4.5283,4.5283,4.5283,4.5283,4.5283,4.5283,4.5283,4.5283,4.5283,4.5283,4.5283,4.5283,4.5283,4.5283,4.5283,4.5283,4.5283,4.5283,4.5283,4.5283,4.5283,4.5283,4.5283,4.5304,4.541,4.5481,4.5517,4.5597,4.5704,4.5742,4.5746,4.576,4.5782,4.5773,4.5773,4.5789,4.5789,4.5766,4.5757,4.564,4.5512,4.5462,4.5438,4.5429,4.5405,4.5424,4.5453,4.5438,4.5443,4.5424,4.5414,4.54,4.5424,4.5448,4.5385,4.538,4.541,4.5429,4.54,4.5404,4.538,4.5375,4.5339,4.5339,4.5283,4.5283,4.5283,4.5283,4.5283,4.5283,4.5283,4.5283,4.5283,4.5283,4.5283,4.5323,4.5343,4.5339,4.536,4.5409,4.5438,4.5485,4.5522,4.5568,4.5581,4.559,4.5599,4.5603,4.5643,4.5715,4.5766,4.5822,4.5897,4.5998,4.6055,4.5283,4.5283,4.5283,4.5283,4.5283,4.5283,4.5283,4.5283,4.5283,4.5283,4.5283,4.5283,4.5283,4.5283,4.5283,4.5283,4.5283,4.5283,4.5283,4.5283,4.5283,4.5283,4.5283,4.5283,4.5283,4.5283,4.5283,4.5283,4.5283,4.5283,4.5283,4.5283,4.5283,4.5283,4.5283,4.5283,4.5283,4.5283,4.5283,4.5283,4.5283,4.5283,4.5283,4.5338,4.5424,4.5499,4.5571,4.5643,4.5746,4.583,4.5823,4.585,4.5893,4.5889,4.5898,4.5929,4.5922,4.5939,4.5969,4.578,4.5673,4.562,4.5586,4.5603,4.5644,4.5648,4.5639,4.5593,4.5647,4.5664,4.5624,4.5573,4.5578,4.556,4.5517,4.5499,4.5507,4.5525,4.5522,4.5471,4.5481,4.549,4.5434,4.538,4.5314,4.5283,4.5283,4.5283,4.5283,4.5283,4.5283,4.5283,4.5283,4.5283,4.5307,4.5373,4.5398,4.5394,4.5404,4.5434,4.5471,4.5504,4.5555,4.5586,4.5594,4.5594,4.5594,4.5594,4.5642,4.5668,4.5723,4.5791,4.5852,4.5902,4.5952,4.5283,4.5283,4.5283,4.5283,4.5283,4.5283,4.5283,4.5283,4.5283,4.5283,4.5283,4.5283,4.5283,4.5283,4.5283,4.5283,4.5283,4.5283,4.5283,4.5283,4.5283,4.5283,4.5283,4.5283,4.5283,4.5283,4.5283,4.5283,4.5283,4.5283,4.5283,4.5283,4.5283,4.5283,4.5283,4.5283,4.5283,4.5283,4.5283,4.5283,4.5283,4.5283,4.5302,4.5326,4.5438,4.5535,4.561,4.5676,4.5761,4.584,4.5826,4.5789,4.5824,4.5808,4.5801,4.5798,4.5794,4.5844,4.5858,4.5794,4.5692,4.5688,4.5696,4.57,4.5708,4.5609,4.5617,4.5719,4.5757,4.5769,4.5677,4.5676,4.5672,4.5653,4.5624,4.562,4.5636,4.564,4.5628,4.5556,4.5549,4.5464,4.5399,4.5375,4.5304,4.5283,4.5283,4.5283,4.5283,4.5283,4.5283,4.5283,4.5283,4.5283,4.5317,4.5369,4.5423,4.5419,4.5443,4.5476,4.5504,4.555,4.5568,4.559,4.5594,4.5594,4.5594,4.5594,4.5594,4.5633,4.568,4.5684,4.5711,4.5789,4.5845,4.5283,4.5283,4.5283,4.5283,4.5283,4.5283,4.5283,4.5283,4.5283,4.5283,4.5283,4.5283,4.5283,4.5283,4.5283,4.5283,4.5283,4.5283,4.5283,4.5283,4.5283,4.5283,4.5283,4.5283,4.5283,4.5283,4.5283,4.5283,4.5283,4.5283,4.5283,4.5283,4.5283,4.5283,4.5283,4.5283,4.5283,4.5283,4.5283,4.5283,4.5283,4.5283,4.5283,4.5324,4.541,4.554,4.5622,4.5688,4.5739,4.5776,4.5757,4.568,4.568,4.568,4.5684,4.5684,4.5696,4.5738,4.5776,4.5769,4.5727,4.578,4.5769,4.5791,4.5793,4.5761,4.5758,4.5827,4.5844,4.5838,4.5803,4.5801,4.5746,4.5746,4.5746,4.5746,4.5688,4.5692,4.5669,4.5603,4.5535,4.5436,4.538,4.5337,4.5283,4.5283,4.5283,4.5283,4.5283,4.5283,4.5283,4.5283,4.5307,4.5312,4.5324,4.5375,4.5404,4.5438,4.5477,4.5517,4.5555,4.5573,4.5586,4.5594,4.5594,4.5594,4.5594,4.5594,4.5594,4.5594,4.5616,4.562,4.5594,4.5656,4.5742,4.5283,4.5283,4.5283,4.5283,4.5283,4.5283,4.5283,4.5283,4.5283,4.5283,4.5283,4.5283,4.5283,4.5283,4.5283,4.5283,4.5283,4.5283,4.5283,4.5283,4.5283,4.5283,4.5283,4.5283,4.5283,4.5283,4.5283,4.5283,4.5283,4.5283,4.5283,4.5283,4.5283,4.5283,4.5283,4.5283,4.5283,4.5283,4.5283,4.5283,4.5283,4.5283,4.5283,4.5324,4.5409,4.5476,4.5544,4.5601,4.5656,4.5684,4.5657,4.5657,4.5661,4.5692,4.5673,4.5665,4.5648,4.5648,4.5669,4.5668,4.5754,4.5799,4.5835,4.5909,4.5944,4.5922,4.5913,4.5917,4.592,4.5947,4.5975,4.5902,4.5848,4.5851,4.5874,4.583,4.5731,4.5696,4.5673,4.5603,4.5508,4.5429,4.5376,4.5329,4.5293,4.5283,4.5283,4.5283,4.5283,4.5283,4.5283,4.5283,4.5312,4.5333,4.5369,4.5375,4.5419,4.5462,4.5523,4.5577,4.559,4.559,4.559,4.5594,4.5594,4.5594,4.5594,4.5594,4.5594,4.5594,4.5594,4.5594,4.5594,4.5594,4.5664,4.5283,4.5283,4.5283,4.5283,4.5283,4.5283,4.5283,4.5283,4.5283,4.5283,4.5283,4.5283,4.5283,4.5283,4.5283,4.5283,4.5283,4.5283,4.5283,4.5283,4.5283,4.5283,4.5283,4.5283,4.5283,4.5283,4.5283,4.5283,4.5283,4.5283,4.5283,4.5283,4.5283,4.5283,4.5283,4.5283,4.5283,4.5283,4.5283,4.5283,4.5283,4.5283,4.5283,4.5314,4.5334,4.5395,4.5481,4.5438,4.5485,4.5544,4.5457,4.5434,4.5424,4.5424,4.5419,4.5419,4.5429,4.5438,4.5522,4.5467,4.5522,4.5692,4.5692,4.5784,4.5898,4.5974,4.5972,4.5953,4.589,4.5871,4.588,4.5854,4.5798,4.5791,4.5814,4.5782,4.5708,4.5673,4.564,4.5553,4.5458,4.5438,4.538,4.5345,4.5314,4.5293,4.5283,4.5293,4.5288,4.5288,4.5283,4.5283,4.5323,4.5362,4.5389,4.5409,4.5443,4.549,4.554,4.5594,4.559,4.559,4.5594,4.5594,4.5594,4.5594,4.5594,4.5594,4.5594,4.5594,4.5594,4.5594,4.5594,4.5594,4.5599,4.5283,4.5283,4.5283,4.5283,4.5283,4.5283,4.5283,4.5283,4.5283,4.5283,4.5283,4.5283,4.5283,4.5283,4.5283,4.5283,4.5283,4.5283,4.5283,4.5283,4.5283,4.5283,4.5283,4.5283,4.5283,4.5283,4.5283,4.5283,4.5283,4.5283,4.5283,4.5283,4.5283,4.5283,4.5283,4.5283,4.5283,4.5283,4.5283,4.5283,4.5283,4.5283,4.5283,4.5283,4.5283,4.535,4.5409,4.5314,4.5355,4.5419,4.5328,4.5307,4.5307,4.5307,4.5312,4.5323,4.5314,4.5355,4.5385,4.536,4.5438,4.5535,4.5534,4.5641,4.5805,4.5919,4.5898,4.588,4.5786,4.5735,4.5742,4.5737,4.5719,4.57,4.57,4.5719,4.5684,4.5625,4.5556,4.5481,4.5429,4.5419,4.539,4.5341,4.533,4.5341,4.5346,4.5346,4.532,4.5309,4.5293,4.5283,4.5333,4.5383,4.5409,4.5438,4.5471,4.5517,4.5568,4.5594,4.5594,4.5594,4.5594,4.5594,4.5594,4.5594,4.5594,4.5594,4.5594,4.5594,4.5594,4.5594,4.5594,4.5594,4.5594,4.5283,4.5283,4.5283,4.5283,4.5283,4.5283,4.5283,4.5283,4.5283,4.5283,4.5283,4.5283,4.5283,4.5283,4.5283,4.5283,4.5283,4.5283,4.5283,4.5283,4.5283,4.5283,4.5283,4.5283,4.5283,4.5283,4.5283,4.5283,4.5283,4.5283,4.5283,4.5283,4.5283,4.5283,4.5283,4.5283,4.5283,4.5283,4.5283,4.5283,4.5283,4.5283,4.5283,4.5283,4.5283,4.5293,4.5293,4.5283,4.5283,4.5283,4.5283,4.5283,4.5283,4.5283,4.5283,4.5283,4.5283,4.5293,4.5314,4.5293,4.536,4.5434,4.5485,4.5521,4.5641,4.5822,4.5838,4.5768,4.5665,4.5635,4.5628,4.5616,4.561,4.5586,4.559,4.5569,4.5544,4.5508,4.5457,4.5385,4.537,4.5365,4.54,4.537,4.5361,4.5395,4.5386,4.5386,4.5385,4.5341,4.5339,4.5319,4.5345,4.539,4.5434,4.5467,4.5528,4.5568,4.5586,4.5594,4.5594,4.5594,4.5594,4.5594,4.5594,4.5594,4.5594,4.5594,4.5594,4.5594,4.5594,4.5594,4.5594,4.5594,4.5594,4.5283,4.5283,4.5283,4.5283,4.5283,4.5283,4.5283,4.5283,4.5283,4.5283,4.5283,4.5283,4.5283,4.5283,4.5283,4.5283,4.5283,4.5283,4.5283,4.5283,4.5283,4.5283,4.5283,4.5283,4.5283,4.5283,4.5283,4.5283,4.5283,4.5283,4.5283,4.5283,4.5283,4.5283,4.5283,4.5283,4.5283,4.5283,4.5283,4.5283,4.5283,4.5283,4.5283,4.5283,4.5283,4.5283,4.5283,4.5283,4.5283,4.5283,4.5283,4.5283,4.5283,4.5283,4.5283,4.5283,4.5283,4.5283,4.5283,4.5283,4.5319,4.5324,4.5355,4.5346,4.5443,4.5661,4.5723,4.5632,4.5565,4.554,4.5508,4.5495,4.55,4.5486,4.5471,4.5438,4.5409,4.5384,4.5345,4.5348,4.5333,4.5359,4.5404,4.5424,4.5414,4.5405,4.54,4.5405,4.5415,4.541,4.541,4.5395,4.539,4.5429,4.5467,4.5495,4.5555,4.5573,4.559,4.5594,4.5594,4.5594,4.5594,4.5594,4.5594,4.5594,4.5594,4.5594,4.5594,4.5594,4.5594,4.5594,4.5594,4.5594,4.5594,4.5283,4.5283,4.5283,4.5283,4.5283,4.5283,4.5283,4.5283,4.5283,4.5283,4.5283,4.5283,4.5283,4.5283,4.5283,4.5283,4.5283,4.5283,4.5283,4.5283,4.5283,4.5283,4.5283,4.5283,4.5283,4.5283,4.5283,4.5283,4.5283,4.5283,4.5283,4.5283,4.5283,4.5283,4.5283,4.5283,4.5283,4.5283,4.5283,4.5283,4.5283,4.5283,4.5283,4.5283,4.5283,4.5283,4.5283,4.5283,4.5283,4.5283,4.5283,4.5283,4.5283,4.5283,4.5283,4.5283,4.5283,4.5283,4.5283,4.5283,4.5283,4.5283,4.5283,4.5319,4.5319,4.5489,4.5498,4.5429,4.5415,4.5395,4.54,4.5394,4.5414,4.5424,4.539,4.5369,4.5348,4.5338,4.5343,4.5369,4.5374,4.5404,4.5443,4.5467,4.5481,4.5514,4.5495,4.5485,4.5485,4.5476,4.5476,4.5476,4.5467,4.5443,4.5485,4.5532,4.5587,4.5586,4.5594,4.5594,4.5594,4.5594,4.5594,4.5594,4.5594,4.5594,4.5594,4.5594,4.5594,4.5594,4.5594,4.5594,4.5594,4.5594,4.5594,4.5283,4.5283,4.5283,4.5283,4.5283,4.5283,4.5283,4.5283,4.5283,4.5283,4.5283,4.5283,4.5283,4.5283,4.5283,4.5283,4.5283,4.5283,4.5283,4.5283,4.5283,4.5283,4.5283,4.5283,4.5283,4.5283,4.5283,4.5283,4.5283,4.5283,4.5283,4.5283,4.5283,4.5283,4.5283,4.5283,4.5283,4.5283,4.5283,4.5283,4.5283,4.5283,4.5283,4.5283,4.5283,4.5283,4.5283,4.5283,4.5283,4.5283,4.5283,4.5283,4.5283,4.5283,4.5283,4.5283,4.5283,4.5283,4.5283,4.5283,4.5283,4.5283,4.5283,4.5283,4.5283,4.5293,4.5304,4.5304,4.5288,4.5288,4.5307,4.5317,4.5357,4.5373,4.5328,4.5312,4.5307,4.5283,4.5333,4.5369,4.5389,4.5419,4.5467,4.5491,4.5517,4.5573,4.5594,4.5594,4.5586,4.5559,4.555,4.5527,4.5522,4.5517,4.5517,4.555,4.5601,4.5586,4.5594,4.5594,4.5594,4.5594,4.5594,4.5594,4.5594,4.5594,4.5594,4.5594,4.5594,4.5594,4.5594,4.5594,4.5594,4.5594,4.5594,4.5283,4.5283,4.5283,4.5283,4.5283,4.5283,4.5283,4.5283,4.5283,4.5283,4.5283,4.5283,4.5283,4.5283,4.5283,4.5283,4.5283,4.5283,4.5283,4.5283,4.5283,4.5283,4.5283,4.5283,4.5283,4.5283,4.5283,4.5283,4.5283,4.5283,4.5283,4.5283,4.5283,4.5283,4.5283,4.5283,4.5283,4.5283,4.5283,4.5283,4.5283,4.5283,4.5283,4.5283,4.5283,4.5283,4.5283,4.5283,4.5283,4.5283,4.5283,4.5283,4.5283,4.5283,4.5283,4.5283,4.5283,4.5283,4.5283,4.5283,4.5283,4.5283,4.5283,4.5283,4.5283,4.5283,4.5288,4.5288,4.5283,4.5283,4.5302,4.5302,4.5317,4.5317,4.5307,4.5302,4.5302,4.5283,4.5312,4.5323,4.5333,4.5374,4.5424,4.5458,4.5495,4.5531,4.559,4.5594,4.5594,4.5594,4.5594,4.5586,4.5558,4.5586,4.5581,4.5573,4.559,4.559,4.5594,4.5594,4.5594,4.5594,4.5594,4.5594,4.5594,4.5594,4.5594,4.5594,4.5594,4.5594,4.5594,4.5594,4.5594,4.5594,4.5594]}]]